﻿<?xml version="1.0" encoding="utf-8"?><gpx creator="Garmin Desktop App" version="1.1" xsi:schemaLocation="http://www.topografix.com/GPX/1/1 http://www.topografix.com/GPX/1/1/gpx.xsd http://www.garmin.com/xmlschemas/WaypointExtension/v1 http://www8.garmin.com/xmlschemas/WaypointExtensionv1.xsd http://www.garmin.com/xmlschemas/TrackPointExtension/v1 http://www.garmin.com/xmlschemas/TrackPointExtensionv1.xsd http://www.garmin.com/xmlschemas/GpxExtensions/v3 http://www8.garmin.com/xmlschemas/GpxExtensionsv3.xsd http://www.garmin.com/xmlschemas/ActivityExtension/v1 http://www8.garmin.com/xmlschemas/ActivityExtensionv1.xsd http://www.garmin.com/xmlschemas/AdventuresExtensions/v1 http://www8.garmin.com/xmlschemas/AdventuresExtensionv1.xsd http://www.garmin.com/xmlschemas/PressureExtension/v1 http://www.garmin.com/xmlschemas/PressureExtensionv1.xsd http://www.garmin.com/xmlschemas/TripExtensions/v1 http://www.garmin.com/xmlschemas/TripExtensionsv1.xsd http://www.garmin.com/xmlschemas/TripMetaDataExtensions/v1 http://www.garmin.com/xmlschemas/TripMetaDataExtensionsv1.xsd http://www.garmin.com/xmlschemas/ViaPointTransportationModeExtensions/v1 http://www.garmin.com/xmlschemas/ViaPointTransportationModeExtensionsv1.xsd http://www.garmin.com/xmlschemas/CreationTimeExtension/v1 http://www.garmin.com/xmlschemas/CreationTimeExtensionsv1.xsd http://www.garmin.com/xmlschemas/AccelerationExtension/v1 http://www.garmin.com/xmlschemas/AccelerationExtensionv1.xsd http://www.garmin.com/xmlschemas/PowerExtension/v1 http://www.garmin.com/xmlschemas/PowerExtensionv1.xsd http://www.garmin.com/xmlschemas/VideoExtension/v1 http://www.garmin.com/xmlschemas/VideoExtensionv1.xsd" xmlns="http://www.topografix.com/GPX/1/1" xmlns:xsi="http://www.w3.org/2001/XMLSchema-instance" xmlns:wptx1="http://www.garmin.com/xmlschemas/WaypointExtension/v1" xmlns:gpxtrx="http://www.garmin.com/xmlschemas/GpxExtensions/v3" xmlns:gpxtpx="http://www.garmin.com/xmlschemas/TrackPointExtension/v1" xmlns:gpxx="http://www.garmin.com/xmlschemas/GpxExtensions/v3" xmlns:trp="http://www.garmin.com/xmlschemas/TripExtensions/v1" xmlns:adv="http://www.garmin.com/xmlschemas/AdventuresExtensions/v1" xmlns:prs="http://www.garmin.com/xmlschemas/PressureExtension/v1" xmlns:tmd="http://www.garmin.com/xmlschemas/TripMetaDataExtensions/v1" xmlns:vptm="http://www.garmin.com/xmlschemas/ViaPointTransportationModeExtensions/v1" xmlns:ctx="http://www.garmin.com/xmlschemas/CreationTimeExtension/v1" xmlns:gpxacc="http://www.garmin.com/xmlschemas/AccelerationExtension/v1" xmlns:gpxpx="http://www.garmin.com/xmlschemas/PowerExtension/v1" xmlns:vidx1="http://www.garmin.com/xmlschemas/VideoExtension/v1">

  <metadata>
    <link href="http://www.garmin.com">
      <text>Garmin International</text>
    </link>
    <time>2021-11-01T09:00:15Z</time>
    <bounds maxlat="45.562327718362212" maxlon="10.917061418294907" minlat="45.544530674815178" minlon="10.90172647498548" />
  </metadata>

  <trk>
    <name>Marano di Valpolicella 31.10.2021</name>
    <extensions>
      <gpxx:TrackExtension>
        <gpxx:DisplayColor>DarkGray</gpxx:DisplayColor>
      </gpxx:TrackExtension>
    </extensions>
    <trkseg>
      <trkpt lat="45.545054376125336" lon="10.914239566773176">
        <ele>232.74000000000001</ele>
        <time>2021-10-31T08:41:21Z</time>
      </trkpt>
      <trkpt lat="45.545049849897623" lon="10.914238728582859">
        <ele>232.74000000000001</ele>
        <time>2021-10-31T08:41:22Z</time>
      </trkpt>
      <trkpt lat="45.545033840462565" lon="10.914231520146132">
        <ele>233.19999999999999</ele>
        <time>2021-10-31T08:41:33Z</time>
      </trkpt>
      <trkpt lat="45.544993188232183" lon="10.914206458255649">
        <ele>233.37</ele>
        <time>2021-10-31T08:41:39Z</time>
      </trkpt>
      <trkpt lat="45.54498078301549" lon="10.914191622287035">
        <ele>233.09</ele>
        <time>2021-10-31T08:41:42Z</time>
      </trkpt>
      <trkpt lat="45.544959576800466" lon="10.914177959784865">
        <ele>232.81</ele>
        <time>2021-10-31T08:41:45Z</time>
      </trkpt>
      <trkpt lat="45.544881373643875" lon="10.914165554568172">
        <ele>232.16</ele>
        <time>2021-10-31T08:41:53Z</time>
      </trkpt>
      <trkpt lat="45.544879194349051" lon="10.914152981713414">
        <ele>231.96000000000001</ele>
        <time>2021-10-31T08:41:58Z</time>
      </trkpt>
      <trkpt lat="45.544880116358399" lon="10.914146779105067">
        <ele>231.94999999999999</ele>
        <time>2021-10-31T08:41:59Z</time>
      </trkpt>
      <trkpt lat="45.544806271791458" lon="10.914097996428609">
        <ele>231.59999999999999</ele>
        <time>2021-10-31T08:42:06Z</time>
      </trkpt>
      <trkpt lat="45.544723877683282" lon="10.914062038064003">
        <ele>230.75999999999999</ele>
        <time>2021-10-31T08:42:15Z</time>
      </trkpt>
      <trkpt lat="45.544697558507323" lon="10.914056086912751">
        <ele>230.52000000000001</ele>
        <time>2021-10-31T08:42:17Z</time>
      </trkpt>
      <trkpt lat="45.544601334258914" lon="10.913988444954157">
        <ele>229.36000000000001</ele>
        <time>2021-10-31T08:42:24Z</time>
      </trkpt>
      <trkpt lat="45.544532770290971" lon="10.913848131895065">
        <ele>228.13</ele>
        <time>2021-10-31T08:42:32Z</time>
      </trkpt>
      <trkpt lat="45.544530674815178" lon="10.913826590403914">
        <ele>228.03999999999999</ele>
        <time>2021-10-31T08:42:33Z</time>
      </trkpt>
      <trkpt lat="45.544533357024193" lon="10.913807647302747">
        <ele>227.84999999999999</ele>
        <time>2021-10-31T08:42:34Z</time>
      </trkpt>
      <trkpt lat="45.544540481641889" lon="10.913789877668023">
        <ele>227.75</ele>
        <time>2021-10-31T08:42:35Z</time>
      </trkpt>
      <trkpt lat="45.54462555795908" lon="10.913682756945491">
        <ele>228.06</ele>
        <time>2021-10-31T08:42:43Z</time>
      </trkpt>
      <trkpt lat="45.54463779553771" lon="10.913674123585224">
        <ele>228.09999999999999</ele>
        <time>2021-10-31T08:42:44Z</time>
      </trkpt>
      <trkpt lat="45.544651038944721" lon="10.913668423891068">
        <ele>228.13999999999999</ele>
        <time>2021-10-31T08:42:45Z</time>
      </trkpt>
      <trkpt lat="45.544729493558407" lon="10.913689043372869">
        <ele>228.99000000000001</ele>
        <time>2021-10-31T08:42:52Z</time>
      </trkpt>
      <trkpt lat="45.544793950393796" lon="10.913730030879378">
        <ele>230.00999999999999</ele>
        <time>2021-10-31T08:42:59Z</time>
      </trkpt>
      <trkpt lat="45.544869722798467" lon="10.913762552663684">
        <ele>231.13</ele>
        <time>2021-10-31T08:43:07Z</time>
      </trkpt>
      <trkpt lat="45.544899562373757" lon="10.91378677636385">
        <ele>231.90000000000001</ele>
        <time>2021-10-31T08:43:11Z</time>
      </trkpt>
      <trkpt lat="45.544941471889615" lon="10.913797253742814">
        <ele>232.44</ele>
        <time>2021-10-31T08:43:16Z</time>
      </trkpt>
      <trkpt lat="45.544967539608479" lon="10.913800438866019">
        <ele>232.74000000000001</ele>
        <time>2021-10-31T08:43:18Z</time>
      </trkpt>
      <trkpt lat="45.544981537386775" lon="10.913806222379208">
        <ele>232.84</ele>
        <time>2021-10-31T08:43:19Z</time>
      </trkpt>
      <trkpt lat="45.544994948431849" lon="10.913813766092062">
        <ele>232.94999999999999</ele>
        <time>2021-10-31T08:43:20Z</time>
      </trkpt>
      <trkpt lat="45.545006850734353" lon="10.91381954960525">
        <ele>233.22</ele>
        <time>2021-10-31T08:43:21Z</time>
      </trkpt>
      <trkpt lat="45.545052280649543" lon="10.913800774142146">
        <ele>233.62</ele>
        <time>2021-10-31T08:43:25Z</time>
      </trkpt>
      <trkpt lat="45.545066278427839" lon="10.91380245052278">
        <ele>233.71000000000001</ele>
        <time>2021-10-31T08:43:26Z</time>
      </trkpt>
      <trkpt lat="45.545079773291945" lon="10.913805719465017">
        <ele>233.83000000000001</ele>
        <time>2021-10-31T08:43:27Z</time>
      </trkpt>
      <trkpt lat="45.545094022527337" lon="10.913808150216937">
        <ele>233.97999999999999</ele>
        <time>2021-10-31T08:43:28Z</time>
      </trkpt>
      <trkpt lat="45.545184630900621" lon="10.913794236257672">
        <ele>235.31999999999999</ele>
        <time>2021-10-31T08:43:37Z</time>
      </trkpt>
      <trkpt lat="45.545233245939016" lon="10.913786860182881">
        <ele>236.50999999999999</ele>
        <time>2021-10-31T08:43:47Z</time>
      </trkpt>
      <trkpt lat="45.545229557901621" lon="10.913776131346822">
        <ele>237.03999999999999</ele>
        <time>2021-10-31T08:43:59Z</time>
      </trkpt>
      <trkpt lat="45.545253697782755" lon="10.913745872676373">
        <ele>237.06999999999999</ele>
        <time>2021-10-31T08:44:05Z</time>
      </trkpt>
      <trkpt lat="45.545267779380083" lon="10.913760541006923">
        <ele>237.44999999999999</ele>
        <time>2021-10-31T08:44:13Z</time>
      </trkpt>
      <trkpt lat="45.545270377770066" lon="10.913769342005253">
        <ele>237.55000000000001</ele>
        <time>2021-10-31T08:44:33Z</time>
      </trkpt>
      <trkpt lat="45.545272892341018" lon="10.91377361677587">
        <ele>237.88999999999999</ele>
        <time>2021-10-31T08:44:54Z</time>
      </trkpt>
      <trkpt lat="45.54527054540813" lon="10.913773197680712">
        <ele>237.31999999999999</ele>
        <time>2021-10-31T08:45:21Z</time>
      </trkpt>
      <trkpt lat="45.545277250930667" lon="10.913769258186221">
        <ele>237.31999999999999</ele>
        <time>2021-10-31T08:45:41Z</time>
      </trkpt>
      <trkpt lat="45.545280938968062" lon="10.913776382803917">
        <ele>237.31999999999999</ele>
        <time>2021-10-31T08:46:08Z</time>
      </trkpt>
      <trkpt lat="45.545281860977411" lon="10.913778394460678">
        <ele>237.31999999999999</ele>
        <time>2021-10-31T08:46:44Z</time>
      </trkpt>
      <trkpt lat="45.545279430225492" lon="10.913772527128458">
        <ele>237.31999999999999</ele>
        <time>2021-10-31T08:47:08Z</time>
      </trkpt>
      <trkpt lat="45.545279597863555" lon="10.913770934566855">
        <ele>237.31999999999999</ele>
        <time>2021-10-31T08:47:40Z</time>
      </trkpt>
      <trkpt lat="45.545280687510967" lon="10.913770599290729">
        <ele>237.31999999999999</ele>
        <time>2021-10-31T08:48:02Z</time>
      </trkpt>
      <trkpt lat="45.545277837663889" lon="10.913779232650995">
        <ele>237.31999999999999</ele>
        <time>2021-10-31T08:48:29Z</time>
      </trkpt>
      <trkpt lat="45.545294182375073" lon="10.913814771920443">
        <ele>237.31999999999999</ele>
        <time>2021-10-31T08:48:36Z</time>
      </trkpt>
      <trkpt lat="45.545320250093937" lon="10.913850646466017">
        <ele>237.31999999999999</ele>
        <time>2021-10-31T08:48:40Z</time>
      </trkpt>
      <trkpt lat="45.545414378866553" lon="10.913983164355159">
        <ele>238.41999999999999</ele>
        <time>2021-10-31T08:48:52Z</time>
      </trkpt>
      <trkpt lat="45.545483194291592" lon="10.914054829627275">
        <ele>239.22999999999999</ele>
        <time>2021-10-31T08:49:00Z</time>
      </trkpt>
      <trkpt lat="45.545546980574727" lon="10.914121968671679">
        <ele>240.13</ele>
        <time>2021-10-31T08:49:08Z</time>
      </trkpt>
      <trkpt lat="45.545573048293591" lon="10.914145186543465">
        <ele>240.77000000000001</ele>
        <time>2021-10-31T08:49:16Z</time>
      </trkpt>
      <trkpt lat="45.545583860948682" lon="10.914170751348138">
        <ele>242.30000000000001</ele>
        <time>2021-10-31T08:49:33Z</time>
      </trkpt>
      <trkpt lat="45.545613281428814" lon="10.914194555953145">
        <ele>241.5</ele>
        <time>2021-10-31T08:49:45Z</time>
      </trkpt>
      <trkpt lat="45.545634236186743" lon="10.914196986705065">
        <ele>241.53999999999999</ele>
        <time>2021-10-31T08:49:51Z</time>
      </trkpt>
      <trkpt lat="45.545687042176723" lon="10.914192879572511">
        <ele>241.65000000000001</ele>
        <time>2021-10-31T08:49:57Z</time>
      </trkpt>
      <trkpt lat="45.545767256990075" lon="10.914161950349808">
        <ele>241.74000000000001</ele>
        <time>2021-10-31T08:50:07Z</time>
      </trkpt>
      <trkpt lat="45.545792151242495" lon="10.914140744134784">
        <ele>241.88</ele>
        <time>2021-10-31T08:50:11Z</time>
      </trkpt>
      <trkpt lat="45.545809585601091" lon="10.914132529869676">
        <ele>242.00999999999999</ele>
        <time>2021-10-31T08:50:13Z</time>
      </trkpt>
      <trkpt lat="45.545879239216447" lon="10.91413957066834">
        <ele>242.43000000000001</ele>
        <time>2021-10-31T08:50:22Z</time>
      </trkpt>
      <trkpt lat="45.545880747959018" lon="10.914139822125435">
        <ele>242.28</ele>
        <time>2021-10-31T08:50:31Z</time>
      </trkpt>
      <trkpt lat="45.545886447653174" lon="10.914134290069342">
        <ele>242.28</ele>
        <time>2021-10-31T08:50:32Z</time>
      </trkpt>
      <trkpt lat="45.545895164832473" lon="10.914124650880694">
        <ele>242.28</ele>
        <time>2021-10-31T08:50:33Z</time>
      </trkpt>
      <trkpt lat="45.545905977487564" lon="10.914112832397223">
        <ele>242.30000000000001</ele>
        <time>2021-10-31T08:50:34Z</time>
      </trkpt>
      <trkpt lat="45.545917125418782" lon="10.91410294175148">
        <ele>242.38</ele>
        <time>2021-10-31T08:50:35Z</time>
      </trkpt>
      <trkpt lat="45.545928440988064" lon="10.914095733314753">
        <ele>242.44999999999999</ele>
        <time>2021-10-31T08:50:36Z</time>
      </trkpt>
      <trkpt lat="45.545964734628797" lon="10.914076371118426">
        <ele>242.93000000000001</ele>
        <time>2021-10-31T08:50:40Z</time>
      </trkpt>
      <trkpt lat="45.545975044369698" lon="10.914070336148143">
        <ele>242.97999999999999</ele>
        <time>2021-10-31T08:50:41Z</time>
      </trkpt>
      <trkpt lat="45.54600547067821" lon="10.914053153246641">
        <ele>243.58000000000001</ele>
        <time>2021-10-31T08:50:47Z</time>
      </trkpt>
      <trkpt lat="45.546033550053835" lon="10.914040580391884">
        <ele>244.22</ele>
        <time>2021-10-31T08:51:00Z</time>
      </trkpt>
      <trkpt lat="45.546089038252831" lon="10.914023984223604">
        <ele>244.44</ele>
        <time>2021-10-31T08:51:08Z</time>
      </trkpt>
      <trkpt lat="45.546117788180709" lon="10.914026582613587">
        <ele>244.80000000000001</ele>
        <time>2021-10-31T08:51:17Z</time>
      </trkpt>
      <trkpt lat="45.546111334115267" lon="10.914053739979863">
        <ele>244.87</ele>
        <time>2021-10-31T08:51:23Z</time>
      </trkpt>
      <trkpt lat="45.546115189790726" lon="10.914044855162501">
        <ele>244.93000000000001</ele>
        <time>2021-10-31T08:51:27Z</time>
      </trkpt>
      <trkpt lat="45.546169588342309" lon="10.914036054164171">
        <ele>245.15000000000001</ele>
        <time>2021-10-31T08:51:33Z</time>
      </trkpt>
      <trkpt lat="45.546180987730622" lon="10.914036054164171">
        <ele>245.25</ele>
        <time>2021-10-31T08:51:34Z</time>
      </trkpt>
      <trkpt lat="45.54629716090858" lon="10.914030270650983">
        <ele>245.77000000000001</ele>
        <time>2021-10-31T08:51:44Z</time>
      </trkpt>
      <trkpt lat="45.546423476189375" lon="10.914007471874356">
        <ele>247.08000000000001</ele>
        <time>2021-10-31T08:51:56Z</time>
      </trkpt>
      <trkpt lat="45.546487597748637" lon="10.913993055000901">
        <ele>247.91</ele>
        <time>2021-10-31T08:52:04Z</time>
      </trkpt>
      <trkpt lat="45.546567058190703" lon="10.914009651169181">
        <ele>248.90000000000001</ele>
        <time>2021-10-31T08:52:14Z</time>
      </trkpt>
      <trkpt lat="45.546640567481518" lon="10.914026498794556">
        <ele>249.94999999999999</ele>
        <time>2021-10-31T08:52:22Z</time>
      </trkpt>
      <trkpt lat="45.546755818650126" lon="10.914051728323102">
        <ele>250.84</ele>
        <time>2021-10-31T08:52:33Z</time>
      </trkpt>
      <trkpt lat="45.54677358828485" lon="10.914056925103068">
        <ele>251.47</ele>
        <time>2021-10-31T08:52:40Z</time>
      </trkpt>
      <trkpt lat="45.546782556921244" lon="10.91406287625432">
        <ele>251.5</ele>
        <time>2021-10-31T08:52:41Z</time>
      </trkpt>
      <trkpt lat="45.546795045956969" lon="10.91406874358654">
        <ele>251.5</ele>
        <time>2021-10-31T08:52:42Z</time>
      </trkpt>
      <trkpt lat="45.546876518055797" lon="10.914073353633285">
        <ele>251.62</ele>
        <time>2021-10-31T08:52:49Z</time>
      </trkpt>
      <trkpt lat="45.546903759241104" lon="10.914080059155822">
        <ele>252.08000000000001</ele>
        <time>2021-10-31T08:52:56Z</time>
      </trkpt>
      <trkpt lat="45.546918930485845" lon="10.914075784385204">
        <ele>252.43000000000001</ele>
        <time>2021-10-31T08:53:08Z</time>
      </trkpt>
      <trkpt lat="45.546928821131587" lon="10.914084585383534">
        <ele>252.41999999999999</ele>
        <time>2021-10-31T08:53:24Z</time>
      </trkpt>
      <trkpt lat="45.546975843608379" lon="10.914086177945137">
        <ele>252.44999999999999</ele>
        <time>2021-10-31T08:53:34Z</time>
      </trkpt>
      <trkpt lat="45.547034936025739" lon="10.914076957851648">
        <ele>252.74000000000001</ele>
        <time>2021-10-31T08:53:43Z</time>
      </trkpt>
      <trkpt lat="45.547088999301195" lon="10.914061199873686">
        <ele>253.53</ele>
        <time>2021-10-31T08:53:54Z</time>
      </trkpt>
      <trkpt lat="45.547158233821392" lon="10.914049381390214">
        <ele>254.16</ele>
        <time>2021-10-31T08:54:06Z</time>
      </trkpt>
      <trkpt lat="45.547223445028067" lon="10.914041250944138">
        <ele>254.90000000000001</ele>
        <time>2021-10-31T08:54:15Z</time>
      </trkpt>
      <trkpt lat="45.547241717576981" lon="10.914048124104738">
        <ele>255.16</ele>
        <time>2021-10-31T08:54:31Z</time>
      </trkpt>
      <trkpt lat="45.547270383685827" lon="10.914039658382535">
        <ele>255.44999999999999</ele>
        <time>2021-10-31T08:54:38Z</time>
      </trkpt>
      <trkpt lat="45.547373732551932" lon="10.91401987709105">
        <ele>256.33999999999997</ele>
        <time>2021-10-31T08:54:49Z</time>
      </trkpt>
      <trkpt lat="45.547411199659109" lon="10.914018116891384">
        <ele>257.22000000000003</ele>
        <time>2021-10-31T08:54:57Z</time>
      </trkpt>
      <trkpt lat="45.547428634017706" lon="10.914010656997561">
        <ele>257.49000000000001</ele>
        <time>2021-10-31T08:55:02Z</time>
      </trkpt>
      <trkpt lat="45.54750943556428" lon="10.913996323943138">
        <ele>258.07999999999998</ele>
        <time>2021-10-31T08:55:11Z</time>
      </trkpt>
      <trkpt lat="45.547519074752927" lon="10.91399397701025">
        <ele>258.19999999999999</ele>
        <time>2021-10-31T08:55:12Z</time>
      </trkpt>
      <trkpt lat="45.547587219625711" lon="10.914006382226944">
        <ele>259.85000000000002</ele>
        <time>2021-10-31T08:55:22Z</time>
      </trkpt>
      <trkpt lat="45.547674894332886" lon="10.914001353085041">
        <ele>261.60000000000002</ele>
        <time>2021-10-31T08:55:34Z</time>
      </trkpt>
      <trkpt lat="45.547712361440063" lon="10.913975536823273">
        <ele>262.72000000000003</ele>
        <time>2021-10-31T08:55:42Z</time>
      </trkpt>
      <trkpt lat="45.547778327018023" lon="10.913945948705077">
        <ele>264.12</ele>
        <time>2021-10-31T08:55:53Z</time>
      </trkpt>
      <trkpt lat="45.547793665900826" lon="10.913935136049986">
        <ele>264.80000000000001</ele>
        <time>2021-10-31T08:56:02Z</time>
      </trkpt>
      <trkpt lat="45.54785393178463" lon="10.913898926228285">
        <ele>265.30000000000001</ele>
        <time>2021-10-31T08:56:11Z</time>
      </trkpt>
      <trkpt lat="45.547939343377948" lon="10.913852071389556">
        <ele>266.5</ele>
        <time>2021-10-31T08:56:22Z</time>
      </trkpt>
      <trkpt lat="45.548036573454738" lon="10.91380538418889">
        <ele>267.73000000000002</ele>
        <time>2021-10-31T08:56:34Z</time>
      </trkpt>
      <trkpt lat="45.548125756904483" lon="10.913761043921113">
        <ele>268.81</ele>
        <time>2021-10-31T08:56:45Z</time>
      </trkpt>
      <trkpt lat="45.548215778544545" lon="10.91369885019958">
        <ele>269.64999999999998</ele>
        <time>2021-10-31T08:56:58Z</time>
      </trkpt>
      <trkpt lat="45.548237320035696" lon="10.913688456639647">
        <ele>270.07999999999998</ele>
        <time>2021-10-31T08:57:05Z</time>
      </trkpt>
      <trkpt lat="45.548246456310153" lon="10.913683930411935">
        <ele>270.14999999999998</ele>
        <time>2021-10-31T08:57:06Z</time>
      </trkpt>
      <trkpt lat="45.548264645040035" lon="10.913669932633638">
        <ele>270.27999999999997</ele>
        <time>2021-10-31T08:57:08Z</time>
      </trkpt>
      <trkpt lat="45.548373190686107" lon="10.91360648162663">
        <ele>271.49000000000001</ele>
        <time>2021-10-31T08:57:20Z</time>
      </trkpt>
      <trkpt lat="45.548446280881763" lon="10.913539677858353">
        <ele>272.57999999999998</ele>
        <time>2021-10-31T08:57:31Z</time>
      </trkpt>
      <trkpt lat="45.548458769917488" lon="10.913533559069037">
        <ele>272.91000000000003</ele>
        <time>2021-10-31T08:57:36Z</time>
      </trkpt>
      <trkpt lat="45.548467738553882" lon="10.913530122488737">
        <ele>273.01999999999998</ele>
        <time>2021-10-31T08:57:37Z</time>
      </trkpt>
      <trkpt lat="45.548489782959223" lon="10.913525344803929">
        <ele>273.19</ele>
        <time>2021-10-31T08:57:39Z</time>
      </trkpt>
      <trkpt lat="45.548511743545532" lon="10.913522494956851">
        <ele>273.30000000000001</ele>
        <time>2021-10-31T08:57:41Z</time>
      </trkpt>
      <trkpt lat="45.548523059114814" lon="10.913520567119122">
        <ele>273.44999999999999</ele>
        <time>2021-10-31T08:57:42Z</time>
      </trkpt>
      <trkpt lat="45.548534626141191" lon="10.913519058376551">
        <ele>273.51999999999998</ele>
        <time>2021-10-31T08:57:43Z</time>
      </trkpt>
      <trkpt lat="45.548546696081758" lon="10.913516543805599">
        <ele>273.62</ele>
        <time>2021-10-31T08:57:44Z</time>
      </trkpt>
      <trkpt lat="45.548568489030004" lon="10.91348284855485">
        <ele>274.37</ele>
        <time>2021-10-31T08:57:50Z</time>
      </trkpt>
      <trkpt lat="45.548578631132841" lon="10.913458038121462">
        <ele>274.56</ele>
        <time>2021-10-31T08:57:52Z</time>
      </trkpt>
      <trkpt lat="45.54860545322299" lon="10.913422834128141">
        <ele>274.77999999999997</ele>
        <time>2021-10-31T08:57:56Z</time>
      </trkpt>
      <trkpt lat="45.548615092411637" lon="10.91341495513916">
        <ele>274.82999999999998</ele>
        <time>2021-10-31T08:57:57Z</time>
      </trkpt>
      <trkpt lat="45.548624480143189" lon="10.913404393941164">
        <ele>274.94999999999999</ele>
        <time>2021-10-31T08:57:58Z</time>
      </trkpt>
      <trkpt lat="45.548632191494107" lon="10.913391234353185">
        <ele>275.11000000000001</ele>
        <time>2021-10-31T08:57:59Z</time>
      </trkpt>
      <trkpt lat="45.548639064654708" lon="10.913377990946174">
        <ele>275.24000000000001</ele>
        <time>2021-10-31T08:58:00Z</time>
      </trkpt>
      <trkpt lat="45.548696732148528" lon="10.913281934335828">
        <ele>276.67000000000002</ele>
        <time>2021-10-31T08:58:08Z</time>
      </trkpt>
      <trkpt lat="45.548748783767223" lon="10.913190152496099">
        <ele>277.68000000000001</ele>
        <time>2021-10-31T08:58:16Z</time>
      </trkpt>
      <trkpt lat="45.54878038354218" lon="10.913125276565552">
        <ele>278.64999999999998</ele>
        <time>2021-10-31T08:58:23Z</time>
      </trkpt>
      <trkpt lat="45.548802427947521" lon="10.913103399798274">
        <ele>279.10000000000002</ele>
        <time>2021-10-31T08:58:28Z</time>
      </trkpt>
      <trkpt lat="45.54881508462131" lon="10.91308269649744">
        <ele>279.35000000000002</ele>
        <time>2021-10-31T08:58:30Z</time>
      </trkpt>
      <trkpt lat="45.54885414429009" lon="10.913049085065722">
        <ele>280.00999999999999</ele>
        <time>2021-10-31T08:58:37Z</time>
      </trkpt>
      <trkpt lat="45.548890773206949" lon="10.91303282417357">
        <ele>281.01999999999998</ele>
        <time>2021-10-31T08:58:45Z</time>
      </trkpt>
      <trkpt lat="45.548907537013292" lon="10.913015389814973">
        <ele>281.31999999999999</ele>
        <time>2021-10-31T08:58:48Z</time>
      </trkpt>
      <trkpt lat="45.548967970535159" lon="10.912968451157212">
        <ele>282.08999999999997</ele>
        <time>2021-10-31T08:58:56Z</time>
      </trkpt>
      <trkpt lat="45.548991858959198" lon="10.912958141416311">
        <ele>283.00999999999999</ele>
        <time>2021-10-31T08:59:06Z</time>
      </trkpt>
      <trkpt lat="45.548996217548847" lon="10.91295612975955">
        <ele>283.06999999999999</ele>
        <time>2021-10-31T08:59:07Z</time>
      </trkpt>
      <trkpt lat="45.549003845080733" lon="10.912952274084091">
        <ele>283.12</ele>
        <time>2021-10-31T08:59:08Z</time>
      </trkpt>
      <trkpt lat="45.549014490097761" lon="10.912949172779918">
        <ele>283.13999999999999</ele>
        <time>2021-10-31T08:59:09Z</time>
      </trkpt>
      <trkpt lat="45.549080539494753" lon="10.912926960736513">
        <ele>283.77999999999997</ele>
        <time>2021-10-31T08:59:18Z</time>
      </trkpt>
      <trkpt lat="45.549113983288407" lon="10.912925284355879">
        <ele>284.13999999999999</ele>
        <time>2021-10-31T08:59:22Z</time>
      </trkpt>
      <trkpt lat="45.549218337982893" lon="10.912928637117147">
        <ele>285.60000000000002</ele>
        <time>2021-10-31T08:59:34Z</time>
      </trkpt>
      <trkpt lat="45.549288829788566" lon="10.91292486526072">
        <ele>286.62</ele>
        <time>2021-10-31T08:59:43Z</time>
      </trkpt>
      <trkpt lat="45.549350185319781" lon="10.912916483357549">
        <ele>287.60000000000002</ele>
        <time>2021-10-31T08:59:51Z</time>
      </trkpt>
      <trkpt lat="45.549420593306422" lon="10.912916148081422">
        <ele>288.73000000000002</ele>
        <time>2021-10-31T09:00:01Z</time>
      </trkpt>
      <trkpt lat="45.549494186416268" lon="10.91290776617825">
        <ele>290.01999999999998</ele>
        <time>2021-10-31T09:00:12Z</time>
      </trkpt>
      <trkpt lat="45.549562834203243" lon="10.912911789491773">
        <ele>290.77999999999997</ele>
        <time>2021-10-31T09:00:22Z</time>
      </trkpt>
      <trkpt lat="45.549627123400569" lon="10.912916650995612">
        <ele>291.80000000000001</ele>
        <time>2021-10-31T09:00:31Z</time>
      </trkpt>
      <trkpt lat="45.549677079543471" lon="10.912918830290437">
        <ele>292.76999999999998</ele>
        <time>2021-10-31T09:00:39Z</time>
      </trkpt>
      <trkpt lat="45.549735836684704" lon="10.912921847775578">
        <ele>293.91000000000003</ele>
        <time>2021-10-31T09:00:47Z</time>
      </trkpt>
      <trkpt lat="45.54977866820991" lon="10.9129189979285">
        <ele>294.86000000000001</ele>
        <time>2021-10-31T09:00:54Z</time>
      </trkpt>
      <trkpt lat="45.549820996820927" lon="10.912925284355879">
        <ele>295.73000000000002</ele>
        <time>2021-10-31T09:01:03Z</time>
      </trkpt>
      <trkpt lat="45.549856284633279" lon="10.91292385943234">
        <ele>296.38999999999999</ele>
        <time>2021-10-31T09:01:12Z</time>
      </trkpt>
      <trkpt lat="45.549874054268003" lon="10.912942048162222">
        <ele>296.63</ele>
        <time>2021-10-31T09:01:16Z</time>
      </trkpt>
      <trkpt lat="45.549882017076015" lon="10.912951435893774">
        <ele>296.66000000000003</ele>
        <time>2021-10-31T09:01:17Z</time>
      </trkpt>
      <trkpt lat="45.549929542466998" lon="10.913050342351198">
        <ele>297.00999999999999</ele>
        <time>2021-10-31T09:01:26Z</time>
      </trkpt>
      <trkpt lat="45.549937840551138" lon="10.913069453090429">
        <ele>297.04000000000002</ele>
        <time>2021-10-31T09:01:28Z</time>
      </trkpt>
      <trkpt lat="45.549985282123089" lon="10.913182524964213">
        <ele>297.47000000000003</ele>
        <time>2021-10-31T09:01:38Z</time>
      </trkpt>
      <trkpt lat="45.550027694553137" lon="10.913272798061371">
        <ele>297.76999999999998</ele>
        <time>2021-10-31T09:01:47Z</time>
      </trkpt>
      <trkpt lat="45.550072453916073" lon="10.913370363414288">
        <ele>298.12</ele>
        <time>2021-10-31T09:01:57Z</time>
      </trkpt>
      <trkpt lat="45.550081841647625" lon="10.913390647619963">
        <ele>298.14999999999998</ele>
        <time>2021-10-31T09:01:59Z</time>
      </trkpt>
      <trkpt lat="45.550103383138776" lon="10.913419565185905">
        <ele>298.22000000000003</ele>
        <time>2021-10-31T09:02:02Z</time>
      </trkpt>
      <trkpt lat="45.550160296261311" lon="10.913530625402927">
        <ele>298.68000000000001</ele>
        <time>2021-10-31T09:02:11Z</time>
      </trkpt>
      <trkpt lat="45.550222573801875" lon="10.913654677569866">
        <ele>299.27999999999997</ele>
        <time>2021-10-31T09:02:22Z</time>
      </trkpt>
      <trkpt lat="45.550252161920071" lon="10.913720224052668">
        <ele>299.54000000000002</ele>
        <time>2021-10-31T09:02:29Z</time>
      </trkpt>
      <trkpt lat="45.550260376185179" lon="10.913743525743484">
        <ele>299.72000000000003</ele>
        <time>2021-10-31T09:02:31Z</time>
      </trkpt>
      <trkpt lat="45.550308488309383" lon="10.91380974277854">
        <ele>300.27999999999997</ele>
        <time>2021-10-31T09:02:41Z</time>
      </trkpt>
      <trkpt lat="45.550321647897363" lon="10.913806976750493">
        <ele>300.47000000000003</ele>
        <time>2021-10-31T09:02:49Z</time>
      </trkpt>
      <trkpt lat="45.550331035628915" lon="10.913811419159174">
        <ele>300.50999999999999</ele>
        <time>2021-10-31T09:02:50Z</time>
      </trkpt>
      <trkpt lat="45.550341093912721" lon="10.913817789405584">
        <ele>300.55000000000001</ele>
        <time>2021-10-31T09:02:51Z</time>
      </trkpt>
      <trkpt lat="45.550379063934088" lon="10.91384494677186">
        <ele>300.82999999999998</ele>
        <time>2021-10-31T09:02:57Z</time>
      </trkpt>
      <trkpt lat="45.550450477749109" lon="10.913872187957168">
        <ele>301.63</ele>
        <time>2021-10-31T09:03:06Z</time>
      </trkpt>
      <trkpt lat="45.550530441105366" lon="10.913897166028619">
        <ele>302.61000000000001</ele>
        <time>2021-10-31T09:03:16Z</time>
      </trkpt>
      <trkpt lat="45.550609230995178" lon="10.913934297859669">
        <ele>303.75</ele>
        <time>2021-10-31T09:03:26Z</time>
      </trkpt>
      <trkpt lat="45.550647033378482" lon="10.913954665884376">
        <ele>304.31999999999999</ele>
        <time>2021-10-31T09:03:31Z</time>
      </trkpt>
      <trkpt lat="45.55071777664125" lon="10.913976794108748">
        <ele>304.92000000000002</ele>
        <time>2021-10-31T09:03:40Z</time>
      </trkpt>
      <trkpt lat="45.550802266225219" lon="10.914004538208246">
        <ele>305.61000000000001</ele>
        <time>2021-10-31T09:03:49Z</time>
      </trkpt>
      <trkpt lat="45.550866471603513" lon="10.914043262600899">
        <ele>306.29000000000002</ele>
        <time>2021-10-31T09:03:57Z</time>
      </trkpt>
      <trkpt lat="45.550940651446581" lon="10.914066731929779">
        <ele>307.23000000000002</ele>
        <time>2021-10-31T09:04:06Z</time>
      </trkpt>
      <trkpt lat="45.551012232899666" lon="10.914095398038626">
        <ele>308.31999999999999</ele>
        <time>2021-10-31T09:04:15Z</time>
      </trkpt>
      <trkpt lat="45.551083395257592" lon="10.914124483242631">
        <ele>309.36000000000001</ele>
        <time>2021-10-31T09:04:25Z</time>
      </trkpt>
      <trkpt lat="45.551126981154084" lon="10.914145186543465">
        <ele>310.24000000000001</ele>
        <time>2021-10-31T09:04:31Z</time>
      </trkpt>
      <trkpt lat="45.551187163218856" lon="10.914174439385533">
        <ele>311.58999999999997</ele>
        <time>2021-10-31T09:04:40Z</time>
      </trkpt>
      <trkpt lat="45.551211219280958" lon="10.914185419678688">
        <ele>312.37</ele>
        <time>2021-10-31T09:04:47Z</time>
      </trkpt>
      <trkpt lat="45.551221361383796" lon="10.914191035553813">
        <ele>312.43000000000001</ele>
        <time>2021-10-31T09:04:48Z</time>
      </trkpt>
      <trkpt lat="45.551243657246232" lon="10.914201093837619">
        <ele>312.69999999999999</ele>
        <time>2021-10-31T09:04:50Z</time>
      </trkpt>
      <trkpt lat="45.551313059404492" lon="10.914234453812242">
        <ele>313.42000000000002</ele>
        <time>2021-10-31T09:04:56Z</time>
      </trkpt>
      <trkpt lat="45.551381958648562" lon="10.914214085787535">
        <ele>314.92000000000002</ele>
        <time>2021-10-31T09:05:04Z</time>
      </trkpt>
      <trkpt lat="45.551389753818512" lon="10.914204698055983">
        <ele>315</ele>
        <time>2021-10-31T09:05:05Z</time>
      </trkpt>
      <trkpt lat="45.55139796808362" lon="10.914193382486701">
        <ele>315.06</ele>
        <time>2021-10-31T09:05:06Z</time>
      </trkpt>
      <trkpt lat="45.551437865942717" lon="10.914168739691377">
        <ele>315.29000000000002</ele>
        <time>2021-10-31T09:05:11Z</time>
      </trkpt>
      <trkpt lat="45.551448343321681" lon="10.914176367223263">
        <ele>315.45999999999998</ele>
        <time>2021-10-31T09:05:12Z</time>
      </trkpt>
      <trkpt lat="45.551458820700645" lon="10.914184246212244">
        <ele>315.51999999999998</ele>
        <time>2021-10-31T09:05:13Z</time>
      </trkpt>
      <trkpt lat="45.551520427688956" lon="10.914223054423928">
        <ele>316.25</ele>
        <time>2021-10-31T09:05:23Z</time>
      </trkpt>
      <trkpt lat="45.551509279757738" lon="10.914211655035615">
        <ele>316.58999999999997</ele>
        <time>2021-10-31T09:05:32Z</time>
      </trkpt>
      <trkpt lat="45.551508441567421" lon="10.914178378880024">
        <ele>316.58999999999997</ele>
        <time>2021-10-31T09:05:34Z</time>
      </trkpt>
      <trkpt lat="45.551506849005818" lon="10.914159184321761">
        <ele>316.58999999999997</ele>
        <time>2021-10-31T09:05:35Z</time>
      </trkpt>
      <trkpt lat="45.551478182896972" lon="10.913973022252321">
        <ele>316.51999999999998</ele>
        <time>2021-10-31T09:05:45Z</time>
      </trkpt>
      <trkpt lat="45.551393693313003" lon="10.913792727515101">
        <ele>317.12</ele>
        <time>2021-10-31T09:05:55Z</time>
      </trkpt>
      <trkpt lat="45.551315238699317" lon="10.913648894056678">
        <ele>317.83999999999997</ele>
        <time>2021-10-31T09:06:04Z</time>
      </trkpt>
      <trkpt lat="45.551299983635545" lon="10.91357764787972">
        <ele>318.67000000000002</ele>
        <time>2021-10-31T09:06:11Z</time>
      </trkpt>
      <trkpt lat="45.551313729956746" lon="10.913540767505765">
        <ele>318.82999999999998</ele>
        <time>2021-10-31T09:06:14Z</time>
      </trkpt>
      <trkpt lat="45.551331164315343" lon="10.913507072255015">
        <ele>319.38</ele>
        <time>2021-10-31T09:06:21Z</time>
      </trkpt>
      <trkpt lat="45.55131733417511" lon="10.913498187437654">
        <ele>319.75</ele>
        <time>2021-10-31T09:06:44Z</time>
      </trkpt>
      <trkpt lat="45.551300151273608" lon="10.913456361740828">
        <ele>319.69999999999999</ele>
        <time>2021-10-31T09:06:50Z</time>
      </trkpt>
      <trkpt lat="45.551301073282957" lon="10.913452841341496">
        <ele>319.66000000000003</ele>
        <time>2021-10-31T09:07:01Z</time>
      </trkpt>
      <trkpt lat="45.551292272284627" lon="10.913460133597255">
        <ele>319.52999999999997</ele>
        <time>2021-10-31T09:07:13Z</time>
      </trkpt>
      <trkpt lat="45.551297133788466" lon="10.913464240729809">
        <ele>319.12</ele>
        <time>2021-10-31T09:07:25Z</time>
      </trkpt>
      <trkpt lat="45.551287326961756" lon="10.913477819412947">
        <ele>319.41000000000003</ele>
        <time>2021-10-31T09:07:47Z</time>
      </trkpt>
      <trkpt lat="45.551282968372107" lon="10.913501875475049">
        <ele>319.41000000000003</ele>
        <time>2021-10-31T09:08:00Z</time>
      </trkpt>
      <trkpt lat="45.551279867067933" lon="10.913498271256685">
        <ele>319.41000000000003</ele>
        <time>2021-10-31T09:08:18Z</time>
      </trkpt>
      <trkpt lat="45.551282130181789" lon="10.913503132760525">
        <ele>319.41000000000003</ele>
        <time>2021-10-31T09:08:30Z</time>
      </trkpt>
      <trkpt lat="45.551283890381455" lon="10.913453679531813">
        <ele>319.41000000000003</ele>
        <time>2021-10-31T09:08:38Z</time>
      </trkpt>
      <trkpt lat="45.551283555105329" lon="10.913427779451013">
        <ele>319.41000000000003</ele>
        <time>2021-10-31T09:08:45Z</time>
      </trkpt>
      <trkpt lat="45.551264192909002" lon="10.91341445222497">
        <ele>319.41000000000003</ele>
        <time>2021-10-31T09:08:57Z</time>
      </trkpt>
      <trkpt lat="45.551277184858918" lon="10.913427360355854">
        <ele>319.41000000000003</ele>
        <time>2021-10-31T09:09:04Z</time>
      </trkpt>
      <trkpt lat="45.551276681944728" lon="10.913426522165537">
        <ele>319.41000000000003</ele>
        <time>2021-10-31T09:09:19Z</time>
      </trkpt>
      <trkpt lat="45.551277352496982" lon="10.913424929603934">
        <ele>319.41000000000003</ele>
        <time>2021-10-31T09:09:37Z</time>
      </trkpt>
      <trkpt lat="45.551279950886965" lon="10.913425264880061">
        <ele>319.41000000000003</ele>
        <time>2021-10-31T09:09:55Z</time>
      </trkpt>
      <trkpt lat="45.551281124353409" lon="10.913422834128141">
        <ele>319.41000000000003</ele>
        <time>2021-10-31T09:10:17Z</time>
      </trkpt>
      <trkpt lat="45.551282381638885" lon="10.913423672318459">
        <ele>319.41000000000003</ele>
        <time>2021-10-31T09:10:36Z</time>
      </trkpt>
      <trkpt lat="45.55127534084022" lon="10.913408333435655">
        <ele>319.41000000000003</ele>
        <time>2021-10-31T09:11:03Z</time>
      </trkpt>
      <trkpt lat="45.551260085776448" lon="10.913344044238329">
        <ele>319.41000000000003</ele>
        <time>2021-10-31T09:11:11Z</time>
      </trkpt>
      <trkpt lat="45.551263941451907" lon="10.913314456120133">
        <ele>319.41000000000003</ele>
        <time>2021-10-31T09:11:22Z</time>
      </trkpt>
      <trkpt lat="45.551264528185129" lon="10.913313869386911">
        <ele>319.41000000000003</ele>
        <time>2021-10-31T09:11:30Z</time>
      </trkpt>
      <trkpt lat="45.551276346668601" lon="10.913373380899429">
        <ele>319.41000000000003</ele>
        <time>2021-10-31T09:11:43Z</time>
      </trkpt>
      <trkpt lat="45.551278358325362" lon="10.913384780287743">
        <ele>319.41000000000003</ele>
        <time>2021-10-31T09:12:00Z</time>
      </trkpt>
      <trkpt lat="45.551284477114677" lon="10.913382098078728">
        <ele>319.41000000000003</ele>
        <time>2021-10-31T09:12:49Z</time>
      </trkpt>
      <trkpt lat="45.551289841532707" lon="10.913408752530813">
        <ele>319.41000000000003</ele>
        <time>2021-10-31T09:13:01Z</time>
      </trkpt>
      <trkpt lat="45.551287494599819" lon="10.913419984281063">
        <ele>319.41000000000003</ele>
        <time>2021-10-31T09:13:13Z</time>
      </trkpt>
      <trkpt lat="45.551284225657582" lon="10.913424175232649">
        <ele>319.41000000000003</ele>
        <time>2021-10-31T09:13:40Z</time>
      </trkpt>
      <trkpt lat="45.551287746056914" lon="10.913427947089076">
        <ele>319.41000000000003</ele>
        <time>2021-10-31T09:14:05Z</time>
      </trkpt>
      <trkpt lat="45.551283219829202" lon="10.913432724773884">
        <ele>319.41000000000003</ele>
        <time>2021-10-31T09:14:22Z</time>
      </trkpt>
      <trkpt lat="45.551283387467265" lon="10.913434652611613">
        <ele>319.41000000000003</ele>
        <time>2021-10-31T09:14:49Z</time>
      </trkpt>
      <trkpt lat="45.551284393295646" lon="10.913438173010945">
        <ele>319.41000000000003</ele>
        <time>2021-10-31T09:15:18Z</time>
      </trkpt>
      <trkpt lat="45.5512919370085" lon="10.913451332598925">
        <ele>319.41000000000003</ele>
        <time>2021-10-31T09:15:33Z</time>
      </trkpt>
      <trkpt lat="45.551288668066263" lon="10.913452338427305">
        <ele>319.41000000000003</ele>
        <time>2021-10-31T09:16:00Z</time>
      </trkpt>
      <trkpt lat="45.551298139616847" lon="10.913492068648338">
        <ele>319.41000000000003</ele>
        <time>2021-10-31T09:16:12Z</time>
      </trkpt>
      <trkpt lat="45.551309371367097" lon="10.913522578775883">
        <ele>319.41000000000003</ele>
        <time>2021-10-31T09:16:23Z</time>
      </trkpt>
      <trkpt lat="45.551321944221854" lon="10.913505731150508">
        <ele>319.41000000000003</ele>
        <time>2021-10-31T09:16:45Z</time>
      </trkpt>
      <trkpt lat="45.551329236477613" lon="10.913557531312108">
        <ele>319.41000000000003</ele>
        <time>2021-10-31T09:17:02Z</time>
      </trkpt>
      <trkpt lat="45.551367793232203" lon="10.91368761844933">
        <ele>318.98000000000002</ele>
        <time>2021-10-31T09:17:13Z</time>
      </trkpt>
      <trkpt lat="45.551428394392133" lon="10.913841594010592">
        <ele>318.13</ele>
        <time>2021-10-31T09:17:25Z</time>
      </trkpt>
      <trkpt lat="45.551480278372765" lon="10.913981571793556">
        <ele>317.51999999999998</ele>
        <time>2021-10-31T09:17:36Z</time>
      </trkpt>
      <trkpt lat="45.551510537043214" lon="10.914101181551814">
        <ele>317.02999999999997</ele>
        <time>2021-10-31T09:17:45Z</time>
      </trkpt>
      <trkpt lat="45.551530150696635" lon="10.914268819615245">
        <ele>316.80000000000001</ele>
        <time>2021-10-31T09:17:57Z</time>
      </trkpt>
      <trkpt lat="45.551543058827519" lon="10.914391530677676">
        <ele>316.73000000000002</ele>
        <time>2021-10-31T09:18:06Z</time>
      </trkpt>
      <trkpt lat="45.55153769440949" lon="10.914450287818909">
        <ele>316.75999999999999</ele>
        <time>2021-10-31T09:18:12Z</time>
      </trkpt>
      <trkpt lat="45.551538029685616" lon="10.914461687207222">
        <ele>316.75999999999999</ele>
        <time>2021-10-31T09:18:13Z</time>
      </trkpt>
      <trkpt lat="45.551539035513997" lon="10.914473757147789">
        <ele>316.77999999999997</ele>
        <time>2021-10-31T09:18:14Z</time>
      </trkpt>
      <trkpt lat="45.551539789885283" lon="10.914487335830927">
        <ele>316.79000000000002</ele>
        <time>2021-10-31T09:18:15Z</time>
      </trkpt>
      <trkpt lat="45.551540292799473" lon="10.914502423256636">
        <ele>316.81</ele>
        <time>2021-10-31T09:18:16Z</time>
      </trkpt>
      <trkpt lat="45.551540879532695" lon="10.914517259225249">
        <ele>316.81999999999999</ele>
        <time>2021-10-31T09:18:17Z</time>
      </trkpt>
      <trkpt lat="45.551565354689956" lon="10.914591187611222">
        <ele>316.91000000000003</ele>
        <time>2021-10-31T09:18:23Z</time>
      </trkpt>
      <trkpt lat="45.55158069357276" lon="10.914722448214889">
        <ele>316.85000000000002</ele>
        <time>2021-10-31T09:18:33Z</time>
      </trkpt>
      <trkpt lat="45.551572227850556" lon="10.91481875628233">
        <ele>316.86000000000001</ele>
        <time>2021-10-31T09:18:43Z</time>
      </trkpt>
      <trkpt lat="45.551550770178437" lon="10.914852451533079">
        <ele>316.75999999999999</ele>
        <time>2021-10-31T09:18:49Z</time>
      </trkpt>
      <trkpt lat="45.551543729379773" lon="10.914863683283329">
        <ele>316.72000000000003</ele>
        <time>2021-10-31T09:18:50Z</time>
      </trkpt>
      <trkpt lat="45.551537442952394" lon="10.914876675233245">
        <ele>316.69</ele>
        <time>2021-10-31T09:18:51Z</time>
      </trkpt>
      <trkpt lat="45.551531994715333" lon="10.914890337735415">
        <ele>316.64999999999998</ele>
        <time>2021-10-31T09:18:52Z</time>
      </trkpt>
      <trkpt lat="45.551526630297303" lon="10.914904335513711">
        <ele>316.63</ele>
        <time>2021-10-31T09:18:53Z</time>
      </trkpt>
      <trkpt lat="45.551450354978442" lon="10.915095862001181">
        <ele>315.82999999999998</ele>
        <time>2021-10-31T09:19:06Z</time>
      </trkpt>
      <trkpt lat="45.551378186792135" lon="10.915281353518367">
        <ele>315.07999999999998</ele>
        <time>2021-10-31T09:19:18Z</time>
      </trkpt>
      <trkpt lat="45.551376845687628" lon="10.915401885285974">
        <ele>314.36000000000001</ele>
        <time>2021-10-31T09:19:26Z</time>
      </trkpt>
      <trkpt lat="45.551373241469264" lon="10.915403729304671">
        <ele>314.07999999999998</ele>
        <time>2021-10-31T09:19:37Z</time>
      </trkpt>
      <trkpt lat="45.551370643079281" lon="10.915397861972451">
        <ele>314.07999999999998</ele>
        <time>2021-10-31T09:19:38Z</time>
      </trkpt>
      <trkpt lat="45.551365278661251" lon="10.915385289117694">
        <ele>314.07999999999998</ele>
        <time>2021-10-31T09:19:39Z</time>
      </trkpt>
      <trkpt lat="45.551356729120016" lon="10.915365759283304">
        <ele>314.07999999999998</ele>
        <time>2021-10-31T09:19:40Z</time>
      </trkpt>
      <trkpt lat="45.551252039149404" lon="10.915224440395832">
        <ele>314.22000000000003</ele>
        <time>2021-10-31T09:19:50Z</time>
      </trkpt>
      <trkpt lat="45.551115833222866" lon="10.915121845901012">
        <ele>314.74000000000001</ele>
        <time>2021-10-31T09:20:04Z</time>
      </trkpt>
      <trkpt lat="45.551006365567446" lon="10.915067782625556">
        <ele>314.77999999999997</ele>
        <time>2021-10-31T09:20:16Z</time>
      </trkpt>
      <trkpt lat="45.550997145473957" lon="10.915112290531397">
        <ele>314.75</ele>
        <time>2021-10-31T09:20:20Z</time>
      </trkpt>
      <trkpt lat="45.55100167170167" lon="10.915158977732062">
        <ele>314.67000000000002</ele>
        <time>2021-10-31T09:20:28Z</time>
      </trkpt>
      <trkpt lat="45.551002258434892" lon="10.915164593607187">
        <ele>314.69999999999999</ele>
        <time>2021-10-31T09:20:36Z</time>
      </trkpt>
      <trkpt lat="45.551010221242905" lon="10.915100136771798">
        <ele>314.69999999999999</ele>
        <time>2021-10-31T09:20:40Z</time>
      </trkpt>
      <trkpt lat="45.551021620631218" lon="10.915038529783487">
        <ele>314.73000000000002</ele>
        <time>2021-10-31T09:20:48Z</time>
      </trkpt>
      <trkpt lat="45.551024554297328" lon="10.915015060454607">
        <ele>314.87</ele>
        <time>2021-10-31T09:20:56Z</time>
      </trkpt>
      <trkpt lat="45.551028493791819" lon="10.914958147332072">
        <ele>314.82999999999998</ele>
        <time>2021-10-31T09:21:00Z</time>
      </trkpt>
      <trkpt lat="45.55103687569499" lon="10.914750527590513">
        <ele>314.44</ele>
        <time>2021-10-31T09:21:13Z</time>
      </trkpt>
      <trkpt lat="45.551051879301667" lon="10.914695542305708">
        <ele>314.42000000000002</ele>
        <time>2021-10-31T09:21:21Z</time>
      </trkpt>
      <trkpt lat="45.551057998090982" lon="10.914709540084004">
        <ele>314.79000000000002</ele>
        <time>2021-10-31T09:21:33Z</time>
      </trkpt>
      <trkpt lat="45.551057998090982" lon="10.91471423394978">
        <ele>314.79000000000002</ele>
        <time>2021-10-31T09:21:45Z</time>
      </trkpt>
      <trkpt lat="45.551059423014522" lon="10.914708198979497">
        <ele>314.79000000000002</ele>
        <time>2021-10-31T09:22:22Z</time>
      </trkpt>
      <trkpt lat="45.551060177385807" lon="10.914706522598863">
        <ele>314.79000000000002</ele>
        <time>2021-10-31T09:22:47Z</time>
      </trkpt>
      <trkpt lat="45.551062691956758" lon="10.91471079736948">
        <ele>314.79000000000002</ele>
        <time>2021-10-31T09:23:06Z</time>
      </trkpt>
      <trkpt lat="45.551090855151415" lon="10.914742648601532">
        <ele>314.79000000000002</ele>
        <time>2021-10-31T09:23:13Z</time>
      </trkpt>
      <trkpt lat="45.551099153235555" lon="10.914743570610881">
        <ele>314.79000000000002</ele>
        <time>2021-10-31T09:23:21Z</time>
      </trkpt>
      <trkpt lat="45.551119269803166" lon="10.91474499553442">
        <ele>314.79000000000002</ele>
        <time>2021-10-31T09:23:40Z</time>
      </trkpt>
      <trkpt lat="45.551118263974786" lon="10.91473326086998">
        <ele>314.79000000000002</ele>
        <time>2021-10-31T09:23:54Z</time>
      </trkpt>
      <trkpt lat="45.551115833222866" lon="10.914731165394187">
        <ele>314.79000000000002</ele>
        <time>2021-10-31T09:24:20Z</time>
      </trkpt>
      <trkpt lat="45.551117844879627" lon="10.91473032720387">
        <ele>314.79000000000002</ele>
        <time>2021-10-31T09:24:46Z</time>
      </trkpt>
      <trkpt lat="45.551139218732715" lon="10.91468682512641">
        <ele>314.79000000000002</ele>
        <time>2021-10-31T09:24:55Z</time>
      </trkpt>
      <trkpt lat="45.551136117428541" lon="10.91468682512641">
        <ele>314.79000000000002</ele>
        <time>2021-10-31T09:25:05Z</time>
      </trkpt>
      <trkpt lat="45.551132848486304" lon="10.914684562012553">
        <ele>314.79000000000002</ele>
        <time>2021-10-31T09:25:21Z</time>
      </trkpt>
      <trkpt lat="45.551131842657924" lon="10.914705181494355">
        <ele>314.79000000000002</ele>
        <time>2021-10-31T09:25:31Z</time>
      </trkpt>
      <trkpt lat="45.551130836829543" lon="10.91469956561923">
        <ele>314.79000000000002</ele>
        <time>2021-10-31T09:26:05Z</time>
      </trkpt>
      <trkpt lat="45.551120946183801" lon="10.914759496226907">
        <ele>314.79000000000002</ele>
        <time>2021-10-31T09:26:18Z</time>
      </trkpt>
      <trkpt lat="45.551077695563436" lon="10.914837531745434">
        <ele>314.52999999999997</ele>
        <time>2021-10-31T09:26:27Z</time>
      </trkpt>
      <trkpt lat="45.551050119102001" lon="10.91494582593441">
        <ele>314.41000000000003</ele>
        <time>2021-10-31T09:26:38Z</time>
      </trkpt>
      <trkpt lat="45.551056992262602" lon="10.915029644966125">
        <ele>314.55000000000001</ele>
        <time>2021-10-31T09:26:48Z</time>
      </trkpt>
      <trkpt lat="45.551130753010511" lon="10.915084630250931">
        <ele>314.82999999999998</ele>
        <time>2021-10-31T09:27:00Z</time>
      </trkpt>
      <trkpt lat="45.551223959773779" lon="10.915157133713365">
        <ele>314.81999999999999</ele>
        <time>2021-10-31T09:27:13Z</time>
      </trkpt>
      <trkpt lat="45.551262935623527" lon="10.915185464546084">
        <ele>314.80000000000001</ele>
        <time>2021-10-31T09:27:18Z</time>
      </trkpt>
      <trkpt lat="45.551366368308663" lon="10.915259979665279">
        <ele>314.60000000000002</ele>
        <time>2021-10-31T09:27:31Z</time>
      </trkpt>
      <trkpt lat="45.551384892314672" lon="10.915262997150421">
        <ele>314.60000000000002</ele>
        <time>2021-10-31T09:27:34Z</time>
      </trkpt>
      <trkpt lat="45.551405930891633" lon="10.915267020463943">
        <ele>314.58999999999997</ele>
        <time>2021-10-31T09:27:36Z</time>
      </trkpt>
      <trkpt lat="45.551417246460915" lon="10.915266769006848">
        <ele>314.58999999999997</ele>
        <time>2021-10-31T09:27:37Z</time>
      </trkpt>
      <trkpt lat="45.551428478211164" lon="10.915264924988151">
        <ele>314.60000000000002</ele>
        <time>2021-10-31T09:27:38Z</time>
      </trkpt>
      <trkpt lat="45.551439374685287" lon="10.915261069312692">
        <ele>314.60000000000002</ele>
        <time>2021-10-31T09:27:39Z</time>
      </trkpt>
      <trkpt lat="45.551489749923348" lon="10.915256375446916">
        <ele>314.89999999999998</ele>
        <time>2021-10-31T09:27:46Z</time>
      </trkpt>
      <trkpt lat="45.551502574235201" lon="10.915241539478302">
        <ele>315.48000000000002</ele>
        <time>2021-10-31T09:27:50Z</time>
      </trkpt>
      <trkpt lat="45.551507938653231" lon="10.915231565013528">
        <ele>315.5</ele>
        <time>2021-10-31T09:27:51Z</time>
      </trkpt>
      <trkpt lat="45.551513638347387" lon="10.915218824520707">
        <ele>315.55000000000001</ele>
        <time>2021-10-31T09:27:52Z</time>
      </trkpt>
      <trkpt lat="45.5515440646559" lon="10.915181022137403">
        <ele>315.85000000000002</ele>
        <time>2021-10-31T09:27:59Z</time>
      </trkpt>
      <trkpt lat="45.551562923938036" lon="10.915141878649592">
        <ele>316.19</ele>
        <time>2021-10-31T09:28:09Z</time>
      </trkpt>
      <trkpt lat="45.551589326933026" lon="10.915090078487992">
        <ele>316.22000000000003</ele>
        <time>2021-10-31T09:28:14Z</time>
      </trkpt>
      <trkpt lat="45.551612628623843" lon="10.915080020204186">
        <ele>316.52999999999997</ele>
        <time>2021-10-31T09:28:20Z</time>
      </trkpt>
      <trkpt lat="45.551618328318" lon="10.915068034082651">
        <ele>316.57999999999998</ele>
        <time>2021-10-31T09:28:22Z</time>
      </trkpt>
      <trkpt lat="45.55162419565022" lon="10.915056299418211">
        <ele>316.58999999999997</ele>
        <time>2021-10-31T09:28:23Z</time>
      </trkpt>
      <trkpt lat="45.551629643887281" lon="10.915042972192168">
        <ele>316.57999999999998</ele>
        <time>2021-10-31T09:28:24Z</time>
      </trkpt>
      <trkpt lat="45.551700470969081" lon="10.91494875960052">
        <ele>316.82999999999998</ele>
        <time>2021-10-31T09:28:33Z</time>
      </trkpt>
      <trkpt lat="45.551714384928346" lon="10.914936689659953">
        <ele>317.38999999999999</ele>
        <time>2021-10-31T09:28:42Z</time>
      </trkpt>
      <trkpt lat="45.551717318594456" lon="10.914929648861289">
        <ele>317.41000000000003</ele>
        <time>2021-10-31T09:28:43Z</time>
      </trkpt>
      <trkpt lat="45.551738189533353" lon="10.914926463738084">
        <ele>317.45999999999998</ele>
        <time>2021-10-31T09:28:46Z</time>
      </trkpt>
      <trkpt lat="45.551828043535352" lon="10.914928643032908">
        <ele>317.81</ele>
        <time>2021-10-31T09:28:56Z</time>
      </trkpt>
      <trkpt lat="45.551837431266904" lon="10.914932498708367">
        <ele>317.88999999999999</ele>
        <time>2021-10-31T09:28:57Z</time>
      </trkpt>
      <trkpt lat="45.551846651360393" lon="10.914939623326063">
        <ele>317.97000000000003</ele>
        <time>2021-10-31T09:28:58Z</time>
      </trkpt>
      <trkpt lat="45.551924435421824" lon="10.914970384910703">
        <ele>318.94</ele>
        <time>2021-10-31T09:29:08Z</time>
      </trkpt>
      <trkpt lat="45.552016133442521" lon="10.915000978857279">
        <ele>320.05000000000001</ele>
        <time>2021-10-31T09:29:20Z</time>
      </trkpt>
      <trkpt lat="45.552110262215137" lon="10.91502889059484">
        <ele>320.75</ele>
        <time>2021-10-31T09:29:31Z</time>
      </trkpt>
      <trkpt lat="45.552133731544018" lon="10.915036769583821">
        <ele>321.30000000000001</ele>
        <time>2021-10-31T09:29:37Z</time>
      </trkpt>
      <trkpt lat="45.552142281085253" lon="10.915037775412202">
        <ele>321.33999999999997</ele>
        <time>2021-10-31T09:29:38Z</time>
      </trkpt>
      <trkpt lat="45.552152758464217" lon="10.915039116516709">
        <ele>321.38999999999999</ele>
        <time>2021-10-31T09:29:39Z</time>
      </trkpt>
      <trkpt lat="45.552243869751692" lon="10.915054539218545">
        <ele>321.69999999999999</ele>
        <time>2021-10-31T09:29:46Z</time>
      </trkpt>
      <trkpt lat="45.552340261638165" lon="10.915086138993502">
        <ele>322.51999999999998</ele>
        <time>2021-10-31T09:29:55Z</time>
      </trkpt>
      <trkpt lat="45.552454926073551" lon="10.915121929720044">
        <ele>323.56</ele>
        <time>2021-10-31T09:30:06Z</time>
      </trkpt>
      <trkpt lat="45.552549390122294" lon="10.915147075429559">
        <ele>324.23000000000002</ele>
        <time>2021-10-31T09:30:16Z</time>
      </trkpt>
      <trkpt lat="45.55263907648623" lon="10.915173394605517">
        <ele>324.92000000000002</ele>
        <time>2021-10-31T09:30:27Z</time>
      </trkpt>
      <trkpt lat="45.552715938538313" lon="10.915193343535066">
        <ele>325.57999999999998</ele>
        <time>2021-10-31T09:30:36Z</time>
      </trkpt>
      <trkpt lat="45.552784837782383" lon="10.915217148140073">
        <ele>326.20999999999998</ele>
        <time>2021-10-31T09:30:45Z</time>
      </trkpt>
      <trkpt lat="45.552844349294901" lon="10.915235336869955">
        <ele>326.79000000000002</ele>
        <time>2021-10-31T09:30:52Z</time>
      </trkpt>
      <trkpt lat="45.552924647927284" lon="10.915254782885313">
        <ele>327.63999999999999</ele>
        <time>2021-10-31T09:31:01Z</time>
      </trkpt>
      <trkpt lat="45.552934035658836" lon="10.915255369618535">
        <ele>327.72000000000003</ele>
        <time>2021-10-31T09:31:02Z</time>
      </trkpt>
      <trkpt lat="45.552989356219769" lon="10.915261823683977">
        <ele>328.50999999999999</ele>
        <time>2021-10-31T09:31:12Z</time>
      </trkpt>
      <trkpt lat="45.55302263237536" lon="10.915267691016197">
        <ele>328.69999999999999</ele>
        <time>2021-10-31T09:31:18Z</time>
      </trkpt>
      <trkpt lat="45.553033947944641" lon="10.915271546691656">
        <ele>328.79000000000002</ele>
        <time>2021-10-31T09:31:19Z</time>
      </trkpt>
      <trkpt lat="45.553119275718927" lon="10.915333656594157">
        <ele>329.72000000000003</ele>
        <time>2021-10-31T09:31:29Z</time>
      </trkpt>
      <trkpt lat="45.553154731169343" lon="10.915379924699664">
        <ele>330.5</ele>
        <time>2021-10-31T09:31:37Z</time>
      </trkpt>
      <trkpt lat="45.553156826645136" lon="10.915371458977461">
        <ele>331.06</ele>
        <time>2021-10-31T09:31:44Z</time>
      </trkpt>
      <trkpt lat="45.553154982626438" lon="10.915369363501668">
        <ele>331.30000000000001</ele>
        <time>2021-10-31T09:31:55Z</time>
      </trkpt>
      <trkpt lat="45.553156156092882" lon="10.91537238098681">
        <ele>331.30000000000001</ele>
        <time>2021-10-31T09:32:04Z</time>
      </trkpt>
      <trkpt lat="45.553154982626438" lon="10.915373219177127">
        <ele>331.37</ele>
        <time>2021-10-31T09:32:18Z</time>
      </trkpt>
      <trkpt lat="45.553156826645136" lon="10.915372883901">
        <ele>331.25999999999999</ele>
        <time>2021-10-31T09:32:36Z</time>
      </trkpt>
      <trkpt lat="45.55315607227385" lon="10.915378332138062">
        <ele>331.23000000000002</ele>
        <time>2021-10-31T09:32:45Z</time>
      </trkpt>
      <trkpt lat="45.553164118900895" lon="10.915372967720032">
        <ele>331.19999999999999</ele>
        <time>2021-10-31T09:32:58Z</time>
      </trkpt>
      <trkpt lat="45.553172836080194" lon="10.915373638272285">
        <ele>331.17000000000002</ele>
        <time>2021-10-31T09:32:59Z</time>
      </trkpt>
      <trkpt lat="45.553193120285869" lon="10.915380595251918">
        <ele>331.14999999999998</ele>
        <time>2021-10-31T09:33:01Z</time>
      </trkpt>
      <trkpt lat="45.55323519743979" lon="10.915394257754087">
        <ele>331.44999999999999</ele>
        <time>2021-10-31T09:33:08Z</time>
      </trkpt>
      <trkpt lat="45.553240394219756" lon="10.915397694334388">
        <ele>331.51999999999998</ele>
        <time>2021-10-31T09:33:09Z</time>
      </trkpt>
      <trkpt lat="45.553248692303896" lon="10.915405489504337">
        <ele>331.56</ele>
        <time>2021-10-31T09:33:10Z</time>
      </trkpt>
      <trkpt lat="45.553258918225765" lon="10.915412697941065">
        <ele>331.62</ele>
        <time>2021-10-31T09:33:11Z</time>
      </trkpt>
      <trkpt lat="45.553351957350969" lon="10.915469191968441">
        <ele>332.01999999999998</ele>
        <time>2021-10-31T09:33:21Z</time>
      </trkpt>
      <trkpt lat="45.553441224619746" lon="10.915513029322028">
        <ele>332.76999999999998</ele>
        <time>2021-10-31T09:33:29Z</time>
      </trkpt>
      <trkpt lat="45.553541723638773" lon="10.915564326569438">
        <ele>333.77999999999997</ele>
        <time>2021-10-31T09:33:38Z</time>
      </trkpt>
      <trkpt lat="45.553612299263477" lon="10.915614366531372">
        <ele>334.91000000000003</ele>
        <time>2021-10-31T09:33:46Z</time>
      </trkpt>
      <trkpt lat="45.553707852959633" lon="10.915658790618181">
        <ele>336.17000000000002</ele>
        <time>2021-10-31T09:33:55Z</time>
      </trkpt>
      <trkpt lat="45.553804077208042" lon="10.915657952427864">
        <ele>337.67000000000002</ele>
        <time>2021-10-31T09:34:04Z</time>
      </trkpt>
      <trkpt lat="45.553812626749277" lon="10.915645295754075">
        <ele>338.47000000000003</ele>
        <time>2021-10-31T09:34:14Z</time>
      </trkpt>
      <trkpt lat="45.55381522513926" lon="10.915636494755745">
        <ele>338.52999999999997</ele>
        <time>2021-10-31T09:34:16Z</time>
      </trkpt>
      <trkpt lat="45.55382058955729" lon="10.915620485320687">
        <ele>338.54000000000002</ele>
        <time>2021-10-31T09:34:17Z</time>
      </trkpt>
      <trkpt lat="45.55382989346981" lon="10.91559424996376">
        <ele>338.54000000000002</ele>
        <time>2021-10-31T09:34:18Z</time>
      </trkpt>
      <trkpt lat="45.553839784115553" lon="10.915569271892309">
        <ele>338.54000000000002</ele>
        <time>2021-10-31T09:34:19Z</time>
      </trkpt>
      <trkpt lat="45.553847579285502" lon="10.915547730401158">
        <ele>338.54000000000002</ele>
        <time>2021-10-31T09:34:20Z</time>
      </trkpt>
      <trkpt lat="45.553852776065469" lon="10.915530547499657">
        <ele>338.54000000000002</ele>
        <time>2021-10-31T09:34:21Z</time>
      </trkpt>
      <trkpt lat="45.553866270929575" lon="10.915477825328708">
        <ele>338.76999999999998</ele>
        <time>2021-10-31T09:34:24Z</time>
      </trkpt>
      <trkpt lat="45.55386652238667" lon="10.915461396798491">
        <ele>338.91000000000003</ele>
        <time>2021-10-31T09:34:25Z</time>
      </trkpt>
      <trkpt lat="45.553862834349275" lon="10.915333069860935">
        <ele>339.44999999999999</ele>
        <time>2021-10-31T09:34:32Z</time>
      </trkpt>
      <trkpt lat="45.553884040564299" lon="10.915173226967454">
        <ele>340.56</ele>
        <time>2021-10-31T09:34:42Z</time>
      </trkpt>
      <trkpt lat="45.553890829905868" lon="10.91508949175477">
        <ele>341.43000000000001</ele>
        <time>2021-10-31T09:34:50Z</time>
      </trkpt>
      <trkpt lat="45.553893344476819" lon="10.915075242519379">
        <ele>341.5</ele>
        <time>2021-10-31T09:34:51Z</time>
      </trkpt>
      <trkpt lat="45.553896194323897" lon="10.915058562532067">
        <ele>341.55000000000001</ele>
        <time>2021-10-31T09:34:52Z</time>
      </trkpt>
      <trkpt lat="45.55389828979969" lon="10.915041044354439">
        <ele>341.61000000000001</ele>
        <time>2021-10-31T09:34:53Z</time>
      </trkpt>
      <trkpt lat="45.553899630904198" lon="10.91502252034843">
        <ele>341.68000000000001</ele>
        <time>2021-10-31T09:34:54Z</time>
      </trkpt>
      <trkpt lat="45.55391195230186" lon="10.914897043257952">
        <ele>342.22000000000003</ele>
        <time>2021-10-31T09:35:02Z</time>
      </trkpt>
      <trkpt lat="45.55392662063241" lon="10.914815738797188">
        <ele>342.5</ele>
        <time>2021-10-31T09:35:09Z</time>
      </trkpt>
      <trkpt lat="45.553921926766634" lon="10.914766788482666">
        <ele>342.88</ele>
        <time>2021-10-31T09:35:15Z</time>
      </trkpt>
      <trkpt lat="45.553935589268804" lon="10.914662349969149">
        <ele>343.32999999999998</ele>
        <time>2021-10-31T09:35:25Z</time>
      </trkpt>
      <trkpt lat="45.553962578997016" lon="10.914580626413226">
        <ele>343.67000000000002</ele>
        <time>2021-10-31T09:35:33Z</time>
      </trkpt>
      <trkpt lat="45.553978253155947" lon="10.914518516510725">
        <ele>344.24000000000001</ele>
        <time>2021-10-31T09:35:38Z</time>
      </trkpt>
      <trkpt lat="45.55398378521204" lon="10.914490856230259">
        <ele>344.41000000000003</ele>
        <time>2021-10-31T09:35:40Z</time>
      </trkpt>
      <trkpt lat="45.554002895951271" lon="10.914356494322419">
        <ele>345.29000000000002</ele>
        <time>2021-10-31T09:35:50Z</time>
      </trkpt>
      <trkpt lat="45.553989317268133" lon="10.914251133799553">
        <ele>346.27999999999997</ele>
        <time>2021-10-31T09:35:58Z</time>
      </trkpt>
      <trkpt lat="45.553976492956281" lon="10.914119957014918">
        <ele>347.54000000000002</ele>
        <time>2021-10-31T09:36:08Z</time>
      </trkpt>
      <trkpt lat="45.553947323933244" lon="10.914003029465675">
        <ele>348.76999999999998</ele>
        <time>2021-10-31T09:36:17Z</time>
      </trkpt>
      <trkpt lat="45.553915640339255" lon="10.913885096088052">
        <ele>350.10000000000002</ele>
        <time>2021-10-31T09:36:27Z</time>
      </trkpt>
      <trkpt lat="45.553887896239758" lon="10.91379314661026">
        <ele>351.37</ele>
        <time>2021-10-31T09:36:36Z</time>
      </trkpt>
      <trkpt lat="45.553867947310209" lon="10.913732293993235">
        <ele>352.56</ele>
        <time>2021-10-31T09:36:44Z</time>
      </trkpt>
      <trkpt lat="45.553844477981329" lon="10.913665154948831">
        <ele>353.16000000000003</ele>
        <time>2021-10-31T09:36:51Z</time>
      </trkpt>
      <trkpt lat="45.553826373070478" lon="10.913608325645328">
        <ele>353.82999999999998</ele>
        <time>2021-10-31T09:36:57Z</time>
      </trkpt>
      <trkpt lat="45.55379125289619" lon="10.913517381995916">
        <ele>354.81999999999999</ele>
        <time>2021-10-31T09:37:06Z</time>
      </trkpt>
      <trkpt lat="45.553757390007377" lon="10.913410848006606">
        <ele>355.91000000000003</ele>
        <time>2021-10-31T09:37:16Z</time>
      </trkpt>
      <trkpt lat="45.553750768303871" lon="10.913389977067709">
        <ele>356.31</ele>
        <time>2021-10-31T09:37:18Z</time>
      </trkpt>
      <trkpt lat="45.553736099973321" lon="10.91334018856287">
        <ele>357.11000000000001</ele>
        <time>2021-10-31T09:37:24Z</time>
      </trkpt>
      <trkpt lat="45.553708942607045" lon="10.913282185792923">
        <ele>357.73000000000002</ele>
        <time>2021-10-31T09:37:30Z</time>
      </trkpt>
      <trkpt lat="45.553693268448114" lon="10.913208592683077">
        <ele>358.64999999999998</ele>
        <time>2021-10-31T09:37:38Z</time>
      </trkpt>
      <trkpt lat="45.553668960928917" lon="10.913120331242681">
        <ele>359.5</ele>
        <time>2021-10-31T09:37:46Z</time>
      </trkpt>
      <trkpt lat="45.553664434701204" lon="10.91309585608542">
        <ele>359.69999999999999</ele>
        <time>2021-10-31T09:37:48Z</time>
      </trkpt>
      <trkpt lat="45.553648257628083" lon="10.912997787818313">
        <ele>360.66000000000003</ele>
        <time>2021-10-31T09:37:56Z</time>
      </trkpt>
      <trkpt lat="45.553637193515897" lon="10.912887817248702">
        <ele>361.73000000000002</ele>
        <time>2021-10-31T09:38:05Z</time>
      </trkpt>
      <trkpt lat="45.55362562648952" lon="10.912756556645036">
        <ele>362.88999999999999</ele>
        <time>2021-10-31T09:38:16Z</time>
      </trkpt>
      <trkpt lat="45.553627973422408" lon="10.912651279941201">
        <ele>364.29000000000002</ele>
        <time>2021-10-31T09:38:26Z</time>
      </trkpt>
      <trkpt lat="45.553629817441106" lon="10.912540555000305">
        <ele>365.37</ele>
        <time>2021-10-31T09:38:37Z</time>
      </trkpt>
      <trkpt lat="45.553610287606716" lon="10.912460340186954">
        <ele>365.02999999999997</ele>
        <time>2021-10-31T09:38:45Z</time>
      </trkpt>
      <trkpt lat="45.553560750558972" lon="10.912397392094135">
        <ele>367.69999999999999</ele>
        <time>2021-10-31T09:38:53Z</time>
      </trkpt>
      <trkpt lat="45.553529737517238" lon="10.912351543083787">
        <ele>367.77999999999997</ele>
        <time>2021-10-31T09:38:58Z</time>
      </trkpt>
      <trkpt lat="45.553494282066822" lon="10.912310052663088">
        <ele>367.80000000000001</ele>
        <time>2021-10-31T09:39:03Z</time>
      </trkpt>
      <trkpt lat="45.553445834666491" lon="10.912248948588967">
        <ele>368.52999999999997</ele>
        <time>2021-10-31T09:39:11Z</time>
      </trkpt>
      <trkpt lat="45.553390681743622" lon="10.912183821201324">
        <ele>369.38999999999999</ele>
        <time>2021-10-31T09:39:19Z</time>
      </trkpt>
      <trkpt lat="45.553343323990703" lon="10.91212204657495">
        <ele>370.55000000000001</ele>
        <time>2021-10-31T09:39:27Z</time>
      </trkpt>
      <trkpt lat="45.553290350362659" lon="10.912041077390313">
        <ele>371.88999999999999</ele>
        <time>2021-10-31T09:39:36Z</time>
      </trkpt>
      <trkpt lat="45.553254224359989" lon="10.911984751001">
        <ele>372.73000000000002</ele>
        <time>2021-10-31T09:39:43Z</time>
      </trkpt>
      <trkpt lat="45.553217260167003" lon="10.911925323307514">
        <ele>373.69</ele>
        <time>2021-10-31T09:39:50Z</time>
      </trkpt>
      <trkpt lat="45.553181888535619" lon="10.911868661642075">
        <ele>374.50999999999999</ele>
        <time>2021-10-31T09:39:58Z</time>
      </trkpt>
      <trkpt lat="45.553133022040129" lon="10.911793727427721">
        <ele>375.42000000000002</ele>
        <time>2021-10-31T09:40:06Z</time>
      </trkpt>
      <trkpt lat="45.553073175251484" lon="10.911715440452099">
        <ele>376.49000000000001</ele>
        <time>2021-10-31T09:40:15Z</time>
      </trkpt>
      <trkpt lat="45.553049789741635" lon="10.911690294742584">
        <ele>376.68000000000001</ele>
        <time>2021-10-31T09:40:18Z</time>
      </trkpt>
      <trkpt lat="45.552990194410086" lon="10.911617539823055">
        <ele>377.77999999999997</ele>
        <time>2021-10-31T09:40:27Z</time>
      </trkpt>
      <trkpt lat="45.552977873012424" lon="10.911586191505194">
        <ele>378.42000000000002</ele>
        <time>2021-10-31T09:40:34Z</time>
      </trkpt>
      <trkpt lat="45.55293814279139" lon="10.911550233140588">
        <ele>379.02999999999997</ele>
        <time>2021-10-31T09:40:48Z</time>
      </trkpt>
      <trkpt lat="45.552899921312928" lon="10.911498768255115">
        <ele>379.37</ele>
        <time>2021-10-31T09:40:54Z</time>
      </trkpt>
      <trkpt lat="45.552842086181045" lon="10.91143699362874">
        <ele>380.36000000000001</ele>
        <time>2021-10-31T09:41:03Z</time>
      </trkpt>
      <trkpt lat="45.552789028733969" lon="10.911373291164637">
        <ele>381.33999999999997</ele>
        <time>2021-10-31T09:41:12Z</time>
      </trkpt>
      <trkpt lat="45.552746951580048" lon="10.911325681954622">
        <ele>381.94</ele>
        <time>2021-10-31T09:41:18Z</time>
      </trkpt>
      <trkpt lat="45.552701773121953" lon="10.911270529031754">
        <ele>382.81</ele>
        <time>2021-10-31T09:41:25Z</time>
      </trkpt>
      <trkpt lat="45.552658690139651" lon="10.911208754405379">
        <ele>383.82999999999998</ele>
        <time>2021-10-31T09:41:33Z</time>
      </trkpt>
      <trkpt lat="45.552605045959353" lon="10.911148153245449">
        <ele>384.88</ele>
        <time>2021-10-31T09:41:43Z</time>
      </trkpt>
      <trkpt lat="45.552552826702595" lon="10.911099119111896">
        <ele>385.73000000000002</ele>
        <time>2021-10-31T09:41:52Z</time>
      </trkpt>
      <trkpt lat="45.552495075389743" lon="10.911025861278176">
        <ele>386.64999999999998</ele>
        <time>2021-10-31T09:42:02Z</time>
      </trkpt>
      <trkpt lat="45.552456937730312" lon="10.910981437191367">
        <ele>387.73000000000002</ele>
        <time>2021-10-31T09:42:10Z</time>
      </trkpt>
      <trkpt lat="45.552434558048844" lon="10.910955285653472">
        <ele>388.07999999999998</ele>
        <time>2021-10-31T09:42:14Z</time>
      </trkpt>
      <trkpt lat="45.552375968545675" lon="10.910859564319253">
        <ele>389.10000000000002</ele>
        <time>2021-10-31T09:42:25Z</time>
      </trkpt>
      <trkpt lat="45.552317462861538" lon="10.910759568214417">
        <ele>390.47000000000003</ele>
        <time>2021-10-31T09:42:37Z</time>
      </trkpt>
      <trkpt lat="45.55226088501513" lon="10.910663092508912">
        <ele>391.86000000000001</ele>
        <time>2021-10-31T09:42:48Z</time>
      </trkpt>
      <trkpt lat="45.552219478413463" lon="10.910588828846812">
        <ele>392.95999999999998</ele>
        <time>2021-10-31T09:42:58Z</time>
      </trkpt>
      <trkpt lat="45.552159044891596" lon="10.910461423918605">
        <ele>394.25999999999999</ele>
        <time>2021-10-31T09:43:11Z</time>
      </trkpt>
      <trkpt lat="45.552128283306956" lon="10.910372994840145">
        <ele>395.18000000000001</ele>
        <time>2021-10-31T09:43:19Z</time>
      </trkpt>
      <trkpt lat="45.552107831463218" lon="10.910290433093905">
        <ele>396.11000000000001</ele>
        <time>2021-10-31T09:43:27Z</time>
      </trkpt>
      <trkpt lat="45.55209525860846" lon="10.910194460302591">
        <ele>396.94999999999999</ele>
        <time>2021-10-31T09:43:36Z</time>
      </trkpt>
      <trkpt lat="45.552100539207458" lon="10.910082058981061">
        <ele>398.30000000000001</ele>
        <time>2021-10-31T09:43:47Z</time>
      </trkpt>
      <trkpt lat="45.55211529135704" lon="10.90997745282948">
        <ele>399.43000000000001</ele>
        <time>2021-10-31T09:43:57Z</time>
      </trkpt>
      <trkpt lat="45.552123421803117" lon="10.909912157803774">
        <ele>400.19999999999999</ele>
        <time>2021-10-31T09:44:04Z</time>
      </trkpt>
      <trkpt lat="45.552133647724986" lon="10.909843258559704">
        <ele>401.38</ele>
        <time>2021-10-31T09:44:13Z</time>
      </trkpt>
      <trkpt lat="45.552143454551697" lon="10.909763043746352">
        <ele>402.24000000000001</ele>
        <time>2021-10-31T09:44:22Z</time>
      </trkpt>
      <trkpt lat="45.55215141735971" lon="10.909685427322984">
        <ele>403.38999999999999</ele>
        <time>2021-10-31T09:44:31Z</time>
      </trkpt>
      <trkpt lat="45.552165331318974" lon="10.90961828827858">
        <ele>404.42000000000002</ele>
        <time>2021-10-31T09:44:39Z</time>
      </trkpt>
      <trkpt lat="45.552168264985085" lon="10.909594651311636">
        <ele>405.43000000000001</ele>
        <time>2021-10-31T09:44:52Z</time>
      </trkpt>
      <trkpt lat="45.552177652716637" lon="10.909502534195781">
        <ele>405.63999999999999</ele>
        <time>2021-10-31T09:45:01Z</time>
      </trkpt>
      <trkpt lat="45.552175138145685" lon="10.90945852920413">
        <ele>405.86000000000001</ele>
        <time>2021-10-31T09:45:05Z</time>
      </trkpt>
      <trkpt lat="45.55217245593667" lon="10.909445034340024">
        <ele>405.91000000000003</ele>
        <time>2021-10-31T09:45:06Z</time>
      </trkpt>
      <trkpt lat="45.552163822576404" lon="10.909418379887938">
        <ele>405.97000000000003</ele>
        <time>2021-10-31T09:45:08Z</time>
      </trkpt>
      <trkpt lat="45.552130378782749" lon="10.909335734322667">
        <ele>406.49000000000001</ele>
        <time>2021-10-31T09:45:15Z</time>
      </trkpt>
      <trkpt lat="45.552078243345022" lon="10.90925769880414">
        <ele>407.22000000000003</ele>
        <time>2021-10-31T09:45:25Z</time>
      </trkpt>
      <trkpt lat="45.552063742652535" lon="10.909236324951053">
        <ele>407.56</ele>
        <time>2021-10-31T09:45:32Z</time>
      </trkpt>
      <trkpt lat="45.552056198939681" lon="10.909224338829517">
        <ele>407.57999999999998</ele>
        <time>2021-10-31T09:45:33Z</time>
      </trkpt>
      <trkpt lat="45.552039854228497" lon="10.909202042967081">
        <ele>407.63</ele>
        <time>2021-10-31T09:45:35Z</time>
      </trkpt>
      <trkpt lat="45.552029879763722" lon="10.909193074330688">
        <ele>407.64999999999998</ele>
        <time>2021-10-31T09:45:36Z</time>
      </trkpt>
      <trkpt lat="45.551975062116981" lon="10.909133898094296">
        <ele>407.86000000000001</ele>
        <time>2021-10-31T09:45:43Z</time>
      </trkpt>
      <trkpt lat="45.551959052681923" lon="10.909114871174097">
        <ele>408.06</ele>
        <time>2021-10-31T09:45:45Z</time>
      </trkpt>
      <trkpt lat="45.551951341331005" lon="10.909102717414498">
        <ele>408.16000000000003</ele>
        <time>2021-10-31T09:45:46Z</time>
      </trkpt>
      <trkpt lat="45.551892165094614" lon="10.909030130133033">
        <ele>408.74000000000001</ele>
        <time>2021-10-31T09:45:54Z</time>
      </trkpt>
      <trkpt lat="45.551857966929674" lon="10.908985957503319">
        <ele>409.08999999999997</ele>
        <time>2021-10-31T09:46:00Z</time>
      </trkpt>
      <trkpt lat="45.551851177588105" lon="10.908976821228862">
        <ele>409.12</ele>
        <time>2021-10-31T09:46:01Z</time>
      </trkpt>
      <trkpt lat="45.551834497600794" lon="10.908955447375774">
        <ele>409.17000000000002</ele>
        <time>2021-10-31T09:46:03Z</time>
      </trkpt>
      <trkpt lat="45.551799796521664" lon="10.908906329423189">
        <ele>409.39999999999998</ele>
        <time>2021-10-31T09:46:11Z</time>
      </trkpt>
      <trkpt lat="45.551764592528343" lon="10.908822594210505">
        <ele>409.56999999999999</ele>
        <time>2021-10-31T09:46:19Z</time>
      </trkpt>
      <trkpt lat="45.551726957783103" lon="10.908698961138725">
        <ele>409.80000000000001</ele>
        <time>2021-10-31T09:46:29Z</time>
      </trkpt>
      <trkpt lat="45.551671469584107" lon="10.908578094094992">
        <ele>410.55000000000001</ele>
        <time>2021-10-31T09:46:40Z</time>
      </trkpt>
      <trkpt lat="45.551629895344377" lon="10.908476253971457">
        <ele>411.25</ele>
        <time>2021-10-31T09:46:49Z</time>
      </trkpt>
      <trkpt lat="45.551589159294963" lon="10.908354381099343">
        <ele>412.22000000000003</ele>
        <time>2021-10-31T09:46:59Z</time>
      </trkpt>
      <trkpt lat="45.551558062434196" lon="10.90822865255177">
        <ele>412.82999999999998</ele>
        <time>2021-10-31T09:47:09Z</time>
      </trkpt>
      <trkpt lat="45.551530234515667" lon="10.908078365027905">
        <ele>413.07999999999998</ele>
        <time>2021-10-31T09:47:21Z</time>
      </trkpt>
      <trkpt lat="45.551516991108656" lon="10.907972082495689">
        <ele>413.63</ele>
        <time>2021-10-31T09:47:30Z</time>
      </trkpt>
      <trkpt lat="45.551494779065251" lon="10.907852556556463">
        <ele>414.58999999999997</ele>
        <time>2021-10-31T09:47:41Z</time>
      </trkpt>
      <trkpt lat="45.551468292251229" lon="10.907813161611557">
        <ele>414.64999999999998</ele>
        <time>2021-10-31T09:47:45Z</time>
      </trkpt>
      <trkpt lat="45.551397129893303" lon="10.90770436450839">
        <ele>415.11000000000001</ele>
        <time>2021-10-31T09:47:56Z</time>
      </trkpt>
      <trkpt lat="45.551339378580451" lon="10.907584838569164">
        <ele>415.26999999999998</ele>
        <time>2021-10-31T09:48:06Z</time>
      </trkpt>
      <trkpt lat="45.551297217607498" lon="10.907408986240625">
        <ele>415.43000000000001</ele>
        <time>2021-10-31T09:48:19Z</time>
      </trkpt>
      <trkpt lat="45.551325045526028" lon="10.90726749971509">
        <ele>415.62</ele>
        <time>2021-10-31T09:48:29Z</time>
      </trkpt>
      <trkpt lat="45.55137206800282" lon="10.907173287123442">
        <ele>415.81999999999999</ele>
        <time>2021-10-31T09:48:37Z</time>
      </trkpt>
      <trkpt lat="45.551420096307993" lon="10.907033225521445">
        <ele>416.02999999999997</ele>
        <time>2021-10-31T09:48:48Z</time>
      </trkpt>
      <trkpt lat="45.55139796808362" lon="10.906944628804922">
        <ele>416.02999999999997</ele>
        <time>2021-10-31T09:48:59Z</time>
      </trkpt>
      <trkpt lat="45.551403081044555" lon="10.906948484480381">
        <ele>415.89999999999998</ele>
        <time>2021-10-31T09:49:17Z</time>
      </trkpt>
      <trkpt lat="45.55143509991467" lon="10.906948652118444">
        <ele>415.88999999999999</ele>
        <time>2021-10-31T09:49:29Z</time>
      </trkpt>
      <trkpt lat="45.551443565636873" lon="10.906960051506758">
        <ele>416.38999999999999</ele>
        <time>2021-10-31T09:49:38Z</time>
      </trkpt>
      <trkpt lat="45.551442727446556" lon="10.906957620754838">
        <ele>416.25</ele>
        <time>2021-10-31T09:49:54Z</time>
      </trkpt>
      <trkpt lat="45.551441553980112" lon="10.906957788392901">
        <ele>415.93000000000001</ele>
        <time>2021-10-31T09:50:21Z</time>
      </trkpt>
      <trkpt lat="45.551443062722683" lon="10.906956866383553">
        <ele>415.93000000000001</ele>
        <time>2021-10-31T09:50:43Z</time>
      </trkpt>
      <trkpt lat="45.551449516788125" lon="10.906955944374204">
        <ele>415.93000000000001</ele>
        <time>2021-10-31T09:51:06Z</time>
      </trkpt>
      <trkpt lat="45.551450187340379" lon="10.906952759250998">
        <ele>415.93000000000001</ele>
        <time>2021-10-31T09:51:29Z</time>
      </trkpt>
      <trkpt lat="45.551457647234201" lon="10.90695183724165">
        <ele>415.93000000000001</ele>
        <time>2021-10-31T09:51:46Z</time>
      </trkpt>
      <trkpt lat="45.55146049708128" lon="10.906953178346157">
        <ele>415.93000000000001</ele>
        <time>2021-10-31T09:52:02Z</time>
      </trkpt>
      <trkpt lat="45.551463682204485" lon="10.906957788392901">
        <ele>415.93000000000001</ele>
        <time>2021-10-31T09:52:14Z</time>
      </trkpt>
      <trkpt lat="45.551497042179108" lon="10.906945047900081">
        <ele>415.93000000000001</ele>
        <time>2021-10-31T09:52:21Z</time>
      </trkpt>
      <trkpt lat="45.551533252000809" lon="10.906912358477712">
        <ele>416.01999999999998</ele>
        <time>2021-10-31T09:52:26Z</time>
      </trkpt>
      <trkpt lat="45.551540544256568" lon="10.906901126727462">
        <ele>416.11000000000001</ele>
        <time>2021-10-31T09:52:27Z</time>
      </trkpt>
      <trkpt lat="45.551650933921337" lon="10.906749162822962">
        <ele>416.45999999999998</ele>
        <time>2021-10-31T09:52:42Z</time>
      </trkpt>
      <trkpt lat="45.551737938076258" lon="10.906640449538827">
        <ele>416.48000000000002</ele>
        <time>2021-10-31T09:52:54Z</time>
      </trkpt>
      <trkpt lat="45.551810692995787" lon="10.906532322987914">
        <ele>416.5</ele>
        <time>2021-10-31T09:53:05Z</time>
      </trkpt>
      <trkpt lat="45.551871964707971" lon="10.906431237235665">
        <ele>416.37</ele>
        <time>2021-10-31T09:53:15Z</time>
      </trkpt>
      <trkpt lat="45.551936253905296" lon="10.906353536993265">
        <ele>416.22000000000003</ele>
        <time>2021-10-31T09:53:24Z</time>
      </trkpt>
      <trkpt lat="45.552017390727997" lon="10.906246332451701">
        <ele>416.19999999999999</ele>
        <time>2021-10-31T09:53:36Z</time>
      </trkpt>
      <trkpt lat="45.552075561136007" lon="10.906169638037682">
        <ele>416.31999999999999</ele>
        <time>2021-10-31T09:53:45Z</time>
      </trkpt>
      <trkpt lat="45.552150243893266" lon="10.906065450981259">
        <ele>416.33999999999997</ele>
        <time>2021-10-31T09:53:56Z</time>
      </trkpt>
      <trkpt lat="45.552222663536668" lon="10.905968472361565">
        <ele>416.32999999999998</ele>
        <time>2021-10-31T09:54:08Z</time>
      </trkpt>
      <trkpt lat="45.552214197814465" lon="10.90596579015255">
        <ele>415.75</ele>
        <time>2021-10-31T09:54:15Z</time>
      </trkpt>
      <trkpt lat="45.552243534475565" lon="10.905956737697124">
        <ele>415.81999999999999</ele>
        <time>2021-10-31T09:54:18Z</time>
      </trkpt>
      <trkpt lat="45.552256861701608" lon="10.905951457098126">
        <ele>415.85000000000002</ele>
        <time>2021-10-31T09:54:19Z</time>
      </trkpt>
      <trkpt lat="45.552269350737333" lon="10.905942237004638">
        <ele>415.87</ele>
        <time>2021-10-31T09:54:20Z</time>
      </trkpt>
      <trkpt lat="45.552281672134995" lon="10.905932262539864">
        <ele>415.88</ele>
        <time>2021-10-31T09:54:21Z</time>
      </trkpt>
      <trkpt lat="45.55229315534234" lon="10.90592086315155">
        <ele>415.88999999999999</ele>
        <time>2021-10-31T09:54:22Z</time>
      </trkpt>
      <trkpt lat="45.552305057644844" lon="10.905910134315491">
        <ele>415.86000000000001</ele>
        <time>2021-10-31T09:54:23Z</time>
      </trkpt>
      <trkpt lat="45.552316959947348" lon="10.905900159850717">
        <ele>415.85000000000002</ele>
        <time>2021-10-31T09:54:24Z</time>
      </trkpt>
      <trkpt lat="45.55232928134501" lon="10.905890939757228">
        <ele>415.81</ele>
        <time>2021-10-31T09:54:25Z</time>
      </trkpt>
      <trkpt lat="45.552454590797424" lon="10.90579379349947">
        <ele>415.20999999999998</ele>
        <time>2021-10-31T09:54:37Z</time>
      </trkpt>
      <trkpt lat="45.552554251626134" lon="10.905711483210325">
        <ele>414.94999999999999</ele>
        <time>2021-10-31T09:54:48Z</time>
      </trkpt>
      <trkpt lat="45.552642848342657" lon="10.905704526230693">
        <ele>414.79000000000002</ele>
        <time>2021-10-31T09:54:56Z</time>
      </trkpt>
      <trkpt lat="45.552653660997748" lon="10.905701341107488">
        <ele>414.77999999999997</ele>
        <time>2021-10-31T09:54:57Z</time>
      </trkpt>
      <trkpt lat="45.552777126431465" lon="10.905635794624686">
        <ele>414.80000000000001</ele>
        <time>2021-10-31T09:55:08Z</time>
      </trkpt>
      <trkpt lat="45.552884833887219" lon="10.905593549832702">
        <ele>414.79000000000002</ele>
        <time>2021-10-31T09:55:18Z</time>
      </trkpt>
      <trkpt lat="45.552946021780372" lon="10.905595142394304">
        <ele>414.85000000000002</ele>
        <time>2021-10-31T09:55:25Z</time>
      </trkpt>
      <trkpt lat="45.55304316803813" lon="10.905589358881116">
        <ele>415.18000000000001</ele>
        <time>2021-10-31T09:55:36Z</time>
      </trkpt>
      <trkpt lat="45.553142577409744" lon="10.905601596459746">
        <ele>415.83999999999997</ele>
        <time>2021-10-31T09:55:47Z</time>
      </trkpt>
      <trkpt lat="45.553206782788038" lon="10.905620874837041">
        <ele>416.26999999999998</ele>
        <time>2021-10-31T09:55:55Z</time>
      </trkpt>
      <trkpt lat="45.553256068378687" lon="10.905648535117507">
        <ele>416.74000000000001</ele>
        <time>2021-10-31T09:56:01Z</time>
      </trkpt>
      <trkpt lat="45.55334223434329" lon="10.905695222318172">
        <ele>417.41000000000003</ele>
        <time>2021-10-31T09:56:11Z</time>
      </trkpt>
      <trkpt lat="45.553438793867826" lon="10.905739143490791">
        <ele>418.25999999999999</ele>
        <time>2021-10-31T09:56:22Z</time>
      </trkpt>
      <trkpt lat="45.553549770265818" lon="10.905749117955565">
        <ele>419</ele>
        <time>2021-10-31T09:56:33Z</time>
      </trkpt>
      <trkpt lat="45.553645743057132" lon="10.905719781294465">
        <ele>419.75999999999999</ele>
        <time>2021-10-31T09:56:43Z</time>
      </trkpt>
      <trkpt lat="45.553722186014056" lon="10.905694048851728">
        <ele>420.13</ele>
        <time>2021-10-31T09:56:51Z</time>
      </trkpt>
      <trkpt lat="45.553821260109544" lon="10.90566479600966">
        <ele>420.50999999999999</ele>
        <time>2021-10-31T09:57:01Z</time>
      </trkpt>
      <trkpt lat="45.553928464651108" lon="10.9056281670928">
        <ele>421.06</ele>
        <time>2021-10-31T09:57:13Z</time>
      </trkpt>
      <trkpt lat="45.554010355845094" lon="10.905596986413002">
        <ele>421.38</ele>
        <time>2021-10-31T09:57:22Z</time>
      </trkpt>
      <trkpt lat="45.554109429940581" lon="10.905544180423021">
        <ele>421.83999999999997</ele>
        <time>2021-10-31T09:57:33Z</time>
      </trkpt>
      <trkpt lat="45.554200122132897" lon="10.90548156760633">
        <ele>422.08999999999997</ele>
        <time>2021-10-31T09:57:43Z</time>
      </trkpt>
      <trkpt lat="45.554218729957938" lon="10.905470419675112">
        <ele>422.16000000000003</ele>
        <time>2021-10-31T09:57:45Z</time>
      </trkpt>
      <trkpt lat="45.554365748539567" lon="10.905335722491145">
        <ele>422.31</ele>
        <time>2021-10-31T09:58:02Z</time>
      </trkpt>
      <trkpt lat="45.554391480982304" lon="10.905313845723867">
        <ele>422.27999999999997</ele>
        <time>2021-10-31T09:58:05Z</time>
      </trkpt>
      <trkpt lat="45.554409250617027" lon="10.905301021412015">
        <ele>422.24000000000001</ele>
        <time>2021-10-31T09:58:07Z</time>
      </trkpt>
      <trkpt lat="45.554513186216354" lon="10.905208820477128">
        <ele>422.01999999999998</ele>
        <time>2021-10-31T09:58:19Z</time>
      </trkpt>
      <trkpt lat="45.554662384092808" lon="10.905101029202342">
        <ele>421.38</ele>
        <time>2021-10-31T09:58:35Z</time>
      </trkpt>
      <trkpt lat="45.55477243848145" lon="10.905071357265115">
        <ele>421.08999999999997</ele>
        <time>2021-10-31T09:58:46Z</time>
      </trkpt>
      <trkpt lat="45.554839828982949" lon="10.905097424983978">
        <ele>420.88</ele>
        <time>2021-10-31T09:58:57Z</time>
      </trkpt>
      <trkpt lat="45.55485256947577" lon="10.905100023373961">
        <ele>420.86000000000001</ele>
        <time>2021-10-31T09:59:02Z</time>
      </trkpt>
      <trkpt lat="45.554863382130861" lon="10.905104465782642">
        <ele>420.88999999999999</ele>
        <time>2021-10-31T09:59:03Z</time>
      </trkpt>
      <trkpt lat="45.554874446243048" lon="10.905109830200672">
        <ele>420.89999999999998</ele>
        <time>2021-10-31T09:59:04Z</time>
      </trkpt>
      <trkpt lat="45.554920295253396" lon="10.905127096921206">
        <ele>420.87</ele>
        <time>2021-10-31T09:59:10Z</time>
      </trkpt>
      <trkpt lat="45.55494099855423" lon="10.905137155205011">
        <ele>420.87</ele>
        <time>2021-10-31T09:59:12Z</time>
      </trkpt>
      <trkpt lat="45.554952062666416" lon="10.905143022537231">
        <ele>420.87</ele>
        <time>2021-10-31T09:59:13Z</time>
      </trkpt>
      <trkpt lat="45.555028840899467" lon="10.905170347541571">
        <ele>420.76999999999998</ele>
        <time>2021-10-31T09:59:21Z</time>
      </trkpt>
      <trkpt lat="45.55503973737359" lon="10.90516934171319">
        <ele>420.77999999999997</ele>
        <time>2021-10-31T09:59:22Z</time>
      </trkpt>
      <trkpt lat="45.555052394047379" lon="10.90516934171319">
        <ele>420.79000000000002</ele>
        <time>2021-10-31T09:59:23Z</time>
      </trkpt>
      <trkpt lat="45.555065050721169" lon="10.905170263722539">
        <ele>420.81999999999999</ele>
        <time>2021-10-31T09:59:24Z</time>
      </trkpt>
      <trkpt lat="45.55507829412818" lon="10.905170179903507">
        <ele>420.82999999999998</ele>
        <time>2021-10-31T09:59:25Z</time>
      </trkpt>
      <trkpt lat="45.555109474807978" lon="10.905176969245076">
        <ele>420.88999999999999</ele>
        <time>2021-10-31T09:59:31Z</time>
      </trkpt>
      <trkpt lat="45.555136548355222" lon="10.90518593788147">
        <ele>421</ele>
        <time>2021-10-31T09:59:40Z</time>
      </trkpt>
      <trkpt lat="45.555142750963569" lon="10.905192391946912">
        <ele>421.08999999999997</ele>
        <time>2021-10-31T09:59:46Z</time>
      </trkpt>
      <trkpt lat="45.555150546133518" lon="10.905200354754925">
        <ele>421.16000000000003</ele>
        <time>2021-10-31T09:59:47Z</time>
      </trkpt>
      <trkpt lat="45.555160352960229" lon="10.905210329219699">
        <ele>421.18000000000001</ele>
        <time>2021-10-31T09:59:48Z</time>
      </trkpt>
      <trkpt lat="45.555171417072415" lon="10.905220471322536">
        <ele>421.18000000000001</ele>
        <time>2021-10-31T09:59:49Z</time>
      </trkpt>
      <trkpt lat="45.555182565003633" lon="10.905232289806008">
        <ele>421.18000000000001</ele>
        <time>2021-10-31T09:59:50Z</time>
      </trkpt>
      <trkpt lat="45.555194551125169" lon="10.905242096632719">
        <ele>421.18000000000001</ele>
        <time>2021-10-31T09:59:51Z</time>
      </trkpt>
      <trkpt lat="45.555206453427672" lon="10.905250394716859">
        <ele>421.18000000000001</ele>
        <time>2021-10-31T09:59:52Z</time>
      </trkpt>
      <trkpt lat="45.555345341563225" lon="10.905336141586304">
        <ele>421.25999999999999</ele>
        <time>2021-10-31T10:00:04Z</time>
      </trkpt>
      <trkpt lat="45.555378198623657" lon="10.905348798260093">
        <ele>421.67000000000002</ele>
        <time>2021-10-31T10:00:14Z</time>
      </trkpt>
      <trkpt lat="45.555382641032338" lon="10.905353492125869">
        <ele>421.75</ele>
        <time>2021-10-31T10:00:18Z</time>
      </trkpt>
      <trkpt lat="45.555390436202288" lon="10.905361790210009">
        <ele>421.75999999999999</ele>
        <time>2021-10-31T10:00:19Z</time>
      </trkpt>
      <trkpt lat="45.555401751771569" lon="10.905372435227036">
        <ele>421.75999999999999</ele>
        <time>2021-10-31T10:00:20Z</time>
      </trkpt>
      <trkpt lat="45.555413486436009" lon="10.905381990596652">
        <ele>421.75999999999999</ele>
        <time>2021-10-31T10:00:21Z</time>
      </trkpt>
      <trkpt lat="45.555425556376576" lon="10.905390875414014">
        <ele>421.74000000000001</ele>
        <time>2021-10-31T10:00:22Z</time>
      </trkpt>
      <trkpt lat="45.55553276091814" lon="10.905470671132207">
        <ele>422.00999999999999</ele>
        <time>2021-10-31T10:00:31Z</time>
      </trkpt>
      <trkpt lat="45.555688748136163" lon="10.905584748834372">
        <ele>422.81</ele>
        <time>2021-10-31T10:00:45Z</time>
      </trkpt>
      <trkpt lat="45.555808944627643" lon="10.905634285882115">
        <ele>423.51999999999998</ele>
        <time>2021-10-31T10:00:55Z</time>
      </trkpt>
      <trkpt lat="45.555917825549841" lon="10.905660856515169">
        <ele>424.25999999999999</ele>
        <time>2021-10-31T10:01:05Z</time>
      </trkpt>
      <trkpt lat="45.555964931845665" lon="10.905654234811664">
        <ele>424.69999999999999</ele>
        <time>2021-10-31T10:01:12Z</time>
      </trkpt>
      <trkpt lat="45.55601648055017" lon="10.905656330287457">
        <ele>424.89999999999998</ele>
        <time>2021-10-31T10:01:19Z</time>
      </trkpt>
      <trkpt lat="45.556029388681054" lon="10.905658090487123">
        <ele>424.89999999999998</ele>
        <time>2021-10-31T10:01:20Z</time>
      </trkpt>
      <trkpt lat="45.55604238063097" lon="10.905658341944218">
        <ele>424.91000000000003</ele>
        <time>2021-10-31T10:01:21Z</time>
      </trkpt>
      <trkpt lat="45.556055121123791" lon="10.905657336115837">
        <ele>424.93000000000001</ele>
        <time>2021-10-31T10:01:22Z</time>
      </trkpt>
      <trkpt lat="45.556067861616611" lon="10.905655827373266">
        <ele>424.94999999999999</ele>
        <time>2021-10-31T10:01:23Z</time>
      </trkpt>
      <trkpt lat="45.556080434471369" lon="10.905654486268759">
        <ele>424.98000000000002</ele>
        <time>2021-10-31T10:01:24Z</time>
      </trkpt>
      <trkpt lat="45.556201972067356" lon="10.90566772967577">
        <ele>425.25999999999999</ele>
        <time>2021-10-31T10:01:35Z</time>
      </trkpt>
      <trkpt lat="45.55621144361794" lon="10.90566772967577">
        <ele>425.26999999999998</ele>
        <time>2021-10-31T10:01:36Z</time>
      </trkpt>
      <trkpt lat="45.556233990937471" lon="10.905667142942548">
        <ele>425.31</ele>
        <time>2021-10-31T10:01:38Z</time>
      </trkpt>
      <trkpt lat="45.556295346468687" lon="10.905700167641044">
        <ele>425.52999999999997</ele>
        <time>2021-10-31T10:01:46Z</time>
      </trkpt>
      <trkpt lat="45.556361060589552" lon="10.905709220096469">
        <ele>425.81999999999999</ele>
        <time>2021-10-31T10:01:53Z</time>
      </trkpt>
      <trkpt lat="45.556463235989213" lon="10.905731851235032">
        <ele>425.88999999999999</ele>
        <time>2021-10-31T10:02:01Z</time>
      </trkpt>
      <trkpt lat="45.556612517684698" lon="10.905725480988622">
        <ele>426.44999999999999</ele>
        <time>2021-10-31T10:02:13Z</time>
      </trkpt>
      <trkpt lat="45.556687619537115" lon="10.905715087428689">
        <ele>426.77999999999997</ele>
        <time>2021-10-31T10:02:20Z</time>
      </trkpt>
      <trkpt lat="45.556704131886363" lon="10.905727325007319">
        <ele>427.07999999999998</ele>
        <time>2021-10-31T10:02:29Z</time>
      </trkpt>
      <trkpt lat="45.55671326816082" lon="10.905728079378605">
        <ele>427.07999999999998</ele>
        <time>2021-10-31T10:02:30Z</time>
      </trkpt>
      <trkpt lat="45.556726176291704" lon="10.905731096863747">
        <ele>427.07999999999998</ele>
        <time>2021-10-31T10:02:31Z</time>
      </trkpt>
      <trkpt lat="45.556755932047963" lon="10.905733359977603">
        <ele>427.07999999999998</ele>
        <time>2021-10-31T10:02:34Z</time>
      </trkpt>
      <trkpt lat="45.556860286742449" lon="10.905735455453396">
        <ele>427.24000000000001</ele>
        <time>2021-10-31T10:02:42Z</time>
      </trkpt>
      <trkpt lat="45.556912254542112" lon="10.905750459060073">
        <ele>427.47000000000003</ele>
        <time>2021-10-31T10:02:47Z</time>
      </trkpt>
      <trkpt lat="45.556961288675666" lon="10.905766887590289">
        <ele>427.87</ele>
        <time>2021-10-31T10:02:53Z</time>
      </trkpt>
      <trkpt lat="45.556998085230589" lon="10.905770156532526">
        <ele>428.05000000000001</ele>
        <time>2021-10-31T10:02:57Z</time>
      </trkpt>
      <trkpt lat="45.557129345834255" lon="10.905788345262408">
        <ele>428.54000000000002</ele>
        <time>2021-10-31T10:03:09Z</time>
      </trkpt>
      <trkpt lat="45.557240573689342" lon="10.905790943652391">
        <ele>428.81999999999999</ele>
        <time>2021-10-31T10:03:19Z</time>
      </trkpt>
      <trkpt lat="45.55739245377481" lon="10.905769737437367">
        <ele>428.95999999999998</ele>
        <time>2021-10-31T10:03:32Z</time>
      </trkpt>
      <trkpt lat="45.55752438493073" lon="10.905746184289455">
        <ele>429.06999999999999</ele>
        <time>2021-10-31T10:03:44Z</time>
      </trkpt>
      <trkpt lat="45.557643827050924" lon="10.905727744102478">
        <ele>429.12</ele>
        <time>2021-10-31T10:03:55Z</time>
      </trkpt>
      <trkpt lat="45.557717671617866" lon="10.905723888427019">
        <ele>429.23000000000002</ele>
        <time>2021-10-31T10:04:03Z</time>
      </trkpt>
      <trkpt lat="45.557769555598497" lon="10.905722798779607">
        <ele>429.44</ele>
        <time>2021-10-31T10:04:11Z</time>
      </trkpt>
      <trkpt lat="45.557778691872954" lon="10.90571952983737">
        <ele>429.5</ele>
        <time>2021-10-31T10:04:12Z</time>
      </trkpt>
      <trkpt lat="45.557788833975792" lon="10.905715841799974">
        <ele>429.5</ele>
        <time>2021-10-31T10:04:13Z</time>
      </trkpt>
      <trkpt lat="45.557799730449915" lon="10.905712572857738">
        <ele>429.5</ele>
        <time>2021-10-31T10:04:14Z</time>
      </trkpt>
      <trkpt lat="45.557821439579129" lon="10.905703268945217">
        <ele>429.50999999999999</ele>
        <time>2021-10-31T10:04:16Z</time>
      </trkpt>
      <trkpt lat="45.557928727939725" lon="10.905636046081781">
        <ele>429.93000000000001</ele>
        <time>2021-10-31T10:04:27Z</time>
      </trkpt>
      <trkpt lat="45.557932332158089" lon="10.905632358044386">
        <ele>429.95999999999998</ele>
        <time>2021-10-31T10:04:28Z</time>
      </trkpt>
      <trkpt lat="45.557939875870943" lon="10.905623724684119">
        <ele>429.98000000000002</ele>
        <time>2021-10-31T10:04:29Z</time>
      </trkpt>
      <trkpt lat="45.557947754859924" lon="10.905613582581282">
        <ele>430.01999999999998</ele>
        <time>2021-10-31T10:04:30Z</time>
      </trkpt>
      <trkpt lat="45.557956052944064" lon="10.905601596459746">
        <ele>430.05000000000001</ele>
        <time>2021-10-31T10:04:31Z</time>
      </trkpt>
      <trkpt lat="45.557962926104665" lon="10.90559103526175">
        <ele>430.05000000000001</ele>
        <time>2021-10-31T10:04:32Z</time>
      </trkpt>
      <trkpt lat="45.558036938309669" lon="10.905459523200989">
        <ele>430.27999999999997</ele>
        <time>2021-10-31T10:04:43Z</time>
      </trkpt>
      <trkpt lat="45.558041296899319" lon="10.905447956174612">
        <ele>430.32999999999998</ele>
        <time>2021-10-31T10:04:44Z</time>
      </trkpt>
      <trkpt lat="45.558043727651238" lon="10.905432784929872">
        <ele>430.35000000000002</ele>
        <time>2021-10-31T10:04:45Z</time>
      </trkpt>
      <trkpt lat="45.558047667145729" lon="10.905417697504163">
        <ele>430.36000000000001</ele>
        <time>2021-10-31T10:04:46Z</time>
      </trkpt>
      <trkpt lat="45.558078596368432" lon="10.905266823247075">
        <ele>430.52999999999997</ele>
        <time>2021-10-31T10:04:56Z</time>
      </trkpt>
      <trkpt lat="45.558091085404158" lon="10.905165150761604">
        <ele>430.48000000000002</ele>
        <time>2021-10-31T10:05:03Z</time>
      </trkpt>
      <trkpt lat="45.558117069303989" lon="10.905050318688154">
        <ele>430.11000000000001</ele>
        <time>2021-10-31T10:05:10Z</time>
      </trkpt>
      <trkpt lat="45.558143053203821" lon="10.904935738071799">
        <ele>430.07999999999998</ele>
        <time>2021-10-31T10:05:17Z</time>
      </trkpt>
      <trkpt lat="45.558187561109662" lon="10.904801962897182">
        <ele>429.83999999999997</ele>
        <time>2021-10-31T10:05:26Z</time>
      </trkpt>
      <trkpt lat="45.558241456747055" lon="10.904631223529577">
        <ele>429.51999999999998</ele>
        <time>2021-10-31T10:05:37Z</time>
      </trkpt>
      <trkpt lat="45.558290826156735" lon="10.904500298202038">
        <ele>429.60000000000002</ele>
        <time>2021-10-31T10:05:46Z</time>
      </trkpt>
      <trkpt lat="45.558340363204479" lon="10.904384544119239">
        <ele>429.64999999999998</ele>
        <time>2021-10-31T10:05:56Z</time>
      </trkpt>
      <trkpt lat="45.558334160596132" lon="10.904334420338273">
        <ele>429.76999999999998</ele>
        <time>2021-10-31T10:06:04Z</time>
      </trkpt>
      <trkpt lat="45.558322174474597" lon="10.904307179152966">
        <ele>429.62</ele>
        <time>2021-10-31T10:06:12Z</time>
      </trkpt>
      <trkpt lat="45.558318989351392" lon="10.904209446161985">
        <ele>429.32999999999998</ele>
        <time>2021-10-31T10:06:23Z</time>
      </trkpt>
      <trkpt lat="45.558316642418504" lon="10.90419645421207">
        <ele>429.26999999999998</ele>
        <time>2021-10-31T10:06:24Z</time>
      </trkpt>
      <trkpt lat="45.558315049856901" lon="10.9041827917099">
        <ele>429.22000000000003</ele>
        <time>2021-10-31T10:06:25Z</time>
      </trkpt>
      <trkpt lat="45.558289065957069" lon="10.904035856947303">
        <ele>428.79000000000002</ele>
        <time>2021-10-31T10:06:36Z</time>
      </trkpt>
      <trkpt lat="45.55828713811934" lon="10.904022194445133">
        <ele>428.69999999999999</ele>
        <time>2021-10-31T10:06:37Z</time>
      </trkpt>
      <trkpt lat="45.558268195018172" lon="10.903856819495559">
        <ele>427.95999999999998</ele>
        <time>2021-10-31T10:06:49Z</time>
      </trkpt>
      <trkpt lat="45.558228883892298" lon="10.903699826449156">
        <ele>427.30000000000001</ele>
        <time>2021-10-31T10:07:00Z</time>
      </trkpt>
      <trkpt lat="45.558173144236207" lon="10.903527243062854">
        <ele>426.52999999999997</ele>
        <time>2021-10-31T10:07:12Z</time>
      </trkpt>
      <trkpt lat="45.558128468692303" lon="10.903404448181391">
        <ele>426.06</ele>
        <time>2021-10-31T10:07:22Z</time>
      </trkpt>
      <trkpt lat="45.558129977434874" lon="10.90338634327054">
        <ele>425.94</ele>
        <time>2021-10-31T10:07:32Z</time>
      </trkpt>
      <trkpt lat="45.558133581653237" lon="10.903389444574714">
        <ele>425.97000000000003</ele>
        <time>2021-10-31T10:07:58Z</time>
      </trkpt>
      <trkpt lat="45.558138526976109" lon="10.903378380462527">
        <ele>426.79000000000002</ele>
        <time>2021-10-31T10:08:16Z</time>
      </trkpt>
      <trkpt lat="45.558136347681284" lon="10.903376452624798">
        <ele>426.04000000000002</ele>
        <time>2021-10-31T10:08:37Z</time>
      </trkpt>
      <trkpt lat="45.558140622451901" lon="10.903377626091242">
        <ele>426.04000000000002</ele>
        <time>2021-10-31T10:08:49Z</time>
      </trkpt>
      <trkpt lat="45.558138778433204" lon="10.903375865891576">
        <ele>426.04000000000002</ele>
        <time>2021-10-31T10:09:08Z</time>
      </trkpt>
      <trkpt lat="45.558139868080616" lon="10.903384583070874">
        <ele>426.04000000000002</ele>
        <time>2021-10-31T10:09:18Z</time>
      </trkpt>
      <trkpt lat="45.55814397521317" lon="10.903381565585732">
        <ele>426.04000000000002</ele>
        <time>2021-10-31T10:09:40Z</time>
      </trkpt>
      <trkpt lat="45.558146070688963" lon="10.903379637748003">
        <ele>426.04000000000002</ele>
        <time>2021-10-31T10:09:58Z</time>
      </trkpt>
      <trkpt lat="45.558144729584455" lon="10.903373686596751">
        <ele>426.04000000000002</ele>
        <time>2021-10-31T10:10:17Z</time>
      </trkpt>
      <trkpt lat="45.558141125366092" lon="10.903371339663863">
        <ele>426.04000000000002</ele>
        <time>2021-10-31T10:10:32Z</time>
      </trkpt>
      <trkpt lat="45.558126959949732" lon="10.903327418491244">
        <ele>426.04000000000002</ele>
        <time>2021-10-31T10:10:36Z</time>
      </trkpt>
      <trkpt lat="45.558123355731368" lon="10.903312331065536">
        <ele>426.04000000000002</ele>
        <time>2021-10-31T10:10:37Z</time>
      </trkpt>
      <trkpt lat="45.558120924979448" lon="10.903296824544668">
        <ele>426.04000000000002</ele>
        <time>2021-10-31T10:10:38Z</time>
      </trkpt>
      <trkpt lat="45.558104999363422" lon="10.903136227279902">
        <ele>426.01999999999998</ele>
        <time>2021-10-31T10:10:49Z</time>
      </trkpt>
      <trkpt lat="45.5581493396312" lon="10.903016617521644">
        <ele>425.82999999999998</ele>
        <time>2021-10-31T10:10:59Z</time>
      </trkpt>
      <trkpt lat="45.558214718475938" lon="10.902876975014806">
        <ele>425.77999999999997</ele>
        <time>2021-10-31T10:11:10Z</time>
      </trkpt>
      <trkpt lat="45.558271883055568" lon="10.902752839028835">
        <ele>425.66000000000003</ele>
        <time>2021-10-31T10:11:20Z</time>
      </trkpt>
      <trkpt lat="45.558319659903646" lon="10.902613280341029">
        <ele>425.50999999999999</ele>
        <time>2021-10-31T10:11:30Z</time>
      </trkpt>
      <trkpt lat="45.558371124789119" lon="10.902475565671921">
        <ele>425.17000000000002</ele>
        <time>2021-10-31T10:11:40Z</time>
      </trkpt>
      <trkpt lat="45.558432396501303" lon="10.902336090803146">
        <ele>424.70999999999998</ele>
        <time>2021-10-31T10:11:51Z</time>
      </trkpt>
      <trkpt lat="45.558484867215157" lon="10.902216481044888">
        <ele>424.49000000000001</ele>
        <time>2021-10-31T10:12:01Z</time>
      </trkpt>
      <trkpt lat="45.558581678196788" lon="10.902180522680283">
        <ele>424.35000000000002</ele>
        <time>2021-10-31T10:12:11Z</time>
      </trkpt>
      <trkpt lat="45.558670442551374" lon="10.902263084426522">
        <ele>424.32999999999998</ele>
        <time>2021-10-31T10:12:21Z</time>
      </trkpt>
      <trkpt lat="45.558765241876245" lon="10.90235142968595">
        <ele>424.32999999999998</ele>
        <time>2021-10-31T10:12:31Z</time>
      </trkpt>
      <trkpt lat="45.558881163597107" lon="10.902397697791457">
        <ele>424.33999999999997</ele>
        <time>2021-10-31T10:12:42Z</time>
      </trkpt>
      <trkpt lat="45.558982416987419" lon="10.902403062209487">
        <ele>424.36000000000001</ele>
        <time>2021-10-31T10:12:51Z</time>
      </trkpt>
      <trkpt lat="45.559112085029483" lon="10.90239099226892">
        <ele>424.85000000000002</ele>
        <time>2021-10-31T10:13:03Z</time>
      </trkpt>
      <trkpt lat="45.559120969846845" lon="10.902383783832192">
        <ele>424.85000000000002</ele>
        <time>2021-10-31T10:13:04Z</time>
      </trkpt>
      <trkpt lat="45.55914519354701" lon="10.90234849601984">
        <ele>424.85000000000002</ele>
        <time>2021-10-31T10:13:07Z</time>
      </trkpt>
      <trkpt lat="45.559150893241167" lon="10.902333995327353">
        <ele>424.85000000000002</ele>
        <time>2021-10-31T10:13:08Z</time>
      </trkpt>
      <trkpt lat="45.55915592238307" lon="10.90231915935874">
        <ele>424.85000000000002</ele>
        <time>2021-10-31T10:13:09Z</time>
      </trkpt>
      <trkpt lat="45.559204118326306" lon="10.902125537395477">
        <ele>424.66000000000003</ele>
        <time>2021-10-31T10:13:22Z</time>
      </trkpt>
      <trkpt lat="45.559228928759694" lon="10.901920264586806">
        <ele>424.49000000000001</ele>
        <time>2021-10-31T10:13:35Z</time>
      </trkpt>
      <trkpt lat="45.559230269864202" lon="10.901903919875622">
        <ele>424.48000000000002</ele>
        <time>2021-10-31T10:13:36Z</time>
      </trkpt>
      <trkpt lat="45.559230437502265" lon="10.901888078078628">
        <ele>424.44</ele>
        <time>2021-10-31T10:13:37Z</time>
      </trkpt>
      <trkpt lat="45.559201268479228" lon="10.901790848001838">
        <ele>424.54000000000002</ele>
        <time>2021-10-31T10:13:45Z</time>
      </trkpt>
      <trkpt lat="45.559136057272553" lon="10.90172647498548">
        <ele>424.17000000000002</ele>
        <time>2021-10-31T10:13:53Z</time>
      </trkpt>
      <trkpt lat="45.559083083644509" lon="10.901730330660939">
        <ele>423.88</ele>
        <time>2021-10-31T10:14:02Z</time>
      </trkpt>
      <trkpt lat="45.55907629430294" lon="10.901741897687316">
        <ele>423.76999999999998</ele>
        <time>2021-10-31T10:14:11Z</time>
      </trkpt>
      <trkpt lat="45.559076797217131" lon="10.901752961799502">
        <ele>423.86000000000001</ele>
        <time>2021-10-31T10:14:24Z</time>
      </trkpt>
      <trkpt lat="45.559079982340336" lon="10.901753464713693">
        <ele>423.88999999999999</ele>
        <time>2021-10-31T10:14:39Z</time>
      </trkpt>
      <trkpt lat="45.559083670377731" lon="10.9017323423177">
        <ele>423.88999999999999</ele>
        <time>2021-10-31T10:14:55Z</time>
      </trkpt>
      <trkpt lat="45.559080485254526" lon="10.90177433565259">
        <ele>423.56</ele>
        <time>2021-10-31T10:15:06Z</time>
      </trkpt>
      <trkpt lat="45.559099093079567" lon="10.901770060881972">
        <ele>423.56</ele>
        <time>2021-10-31T10:15:16Z</time>
      </trkpt>
      <trkpt lat="45.559094399213791" lon="10.901774922385812">
        <ele>423.56</ele>
        <time>2021-10-31T10:15:33Z</time>
      </trkpt>
      <trkpt lat="45.559096075594425" lon="10.901767127215862">
        <ele>423.56</ele>
        <time>2021-10-31T10:15:57Z</time>
      </trkpt>
      <trkpt lat="45.559093561023474" lon="10.901766624301672">
        <ele>423.56</ele>
        <time>2021-10-31T10:16:31Z</time>
      </trkpt>
      <trkpt lat="45.559094483032823" lon="10.901766959577799">
        <ele>423.56</ele>
        <time>2021-10-31T10:17:03Z</time>
      </trkpt>
      <trkpt lat="45.559094483032823" lon="10.901767294853926">
        <ele>423.56</ele>
        <time>2021-10-31T10:17:26Z</time>
      </trkpt>
      <trkpt lat="45.559095991775393" lon="10.901767881587148">
        <ele>423.56</ele>
        <time>2021-10-31T10:17:46Z</time>
      </trkpt>
      <trkpt lat="45.559099847450852" lon="10.901770982891321">
        <ele>423.56</ele>
        <time>2021-10-31T10:18:15Z</time>
      </trkpt>
      <trkpt lat="45.559140164405107" lon="10.901803085580468">
        <ele>423.56</ele>
        <time>2021-10-31T10:18:23Z</time>
      </trkpt>
      <trkpt lat="45.559167070314288" lon="10.901817167177796">
        <ele>423.56999999999999</ele>
        <time>2021-10-31T10:18:26Z</time>
      </trkpt>
      <trkpt lat="45.559238735586405" lon="10.901912888512015">
        <ele>423.94</ele>
        <time>2021-10-31T10:18:35Z</time>
      </trkpt>
      <trkpt lat="45.55924192070961" lon="10.90192873030901">
        <ele>423.95999999999998</ele>
        <time>2021-10-31T10:18:36Z</time>
      </trkpt>
      <trkpt lat="45.559277040883899" lon="10.902078850194812">
        <ele>424.10000000000002</ele>
        <time>2021-10-31T10:18:46Z</time>
      </trkpt>
      <trkpt lat="45.559308556839824" lon="10.902142971754074">
        <ele>424.10000000000002</ele>
        <time>2021-10-31T10:18:55Z</time>
      </trkpt>
      <trkpt lat="45.559317357838154" lon="10.902147078886628">
        <ele>424.29000000000002</ele>
        <time>2021-10-31T10:19:06Z</time>
      </trkpt>
      <trkpt lat="45.559321464970708" lon="10.902181528508663">
        <ele>424.33999999999997</ele>
        <time>2021-10-31T10:19:12Z</time>
      </trkpt>
      <trkpt lat="45.559312161058187" lon="10.90217893011868">
        <ele>424.51999999999998</ele>
        <time>2021-10-31T10:19:26Z</time>
      </trkpt>
      <trkpt lat="45.559318363666534" lon="10.902174487709999">
        <ele>424.17000000000002</ele>
        <time>2021-10-31T10:19:39Z</time>
      </trkpt>
      <trkpt lat="45.559308137744665" lon="10.902175242081285">
        <ele>424.01999999999998</ele>
        <time>2021-10-31T10:19:55Z</time>
      </trkpt>
      <trkpt lat="45.559307048097253" lon="10.902183875441551">
        <ele>423.85000000000002</ele>
        <time>2021-10-31T10:20:07Z</time>
      </trkpt>
      <trkpt lat="45.55929958820343" lon="10.902242884039879">
        <ele>423.81999999999999</ele>
        <time>2021-10-31T10:20:28Z</time>
      </trkpt>
      <trkpt lat="45.559314843267202" lon="10.902391579002142">
        <ele>423.94</ele>
        <time>2021-10-31T10:20:40Z</time>
      </trkpt>
      <trkpt lat="45.559366643428802" lon="10.902509344741702">
        <ele>424.27999999999997</ele>
        <time>2021-10-31T10:20:52Z</time>
      </trkpt>
      <trkpt lat="45.559438643977046" lon="10.902616465464234">
        <ele>424.62</ele>
        <time>2021-10-31T10:21:03Z</time>
      </trkpt>
      <trkpt lat="45.559519194066525" lon="10.902713779360056">
        <ele>425.04000000000002</ele>
        <time>2021-10-31T10:21:14Z</time>
      </trkpt>
      <trkpt lat="45.559619693085551" lon="10.902763735502958">
        <ele>425.66000000000003</ele>
        <time>2021-10-31T10:21:26Z</time>
      </trkpt>
      <trkpt lat="45.559734525159001" lon="10.902741272002459">
        <ele>426.45999999999998</ele>
        <time>2021-10-31T10:21:38Z</time>
      </trkpt>
      <trkpt lat="45.559848267585039" lon="10.902671786025167">
        <ele>427.31</ele>
        <time>2021-10-31T10:21:51Z</time>
      </trkpt>
      <trkpt lat="45.559953963384032" lon="10.902624763548374">
        <ele>428</ele>
        <time>2021-10-31T10:22:03Z</time>
      </trkpt>
      <trkpt lat="45.560043649747968" lon="10.902614369988441">
        <ele>428.75</ele>
        <time>2021-10-31T10:22:13Z</time>
      </trkpt>
      <trkpt lat="45.560125121846795" lon="10.902641024440527">
        <ele>429.62</ele>
        <time>2021-10-31T10:22:25Z</time>
      </trkpt>
      <trkpt lat="45.560101820155978" lon="10.902718724682927">
        <ele>430.63</ele>
        <time>2021-10-31T10:22:34Z</time>
      </trkpt>
      <trkpt lat="45.560085056349635" lon="10.90283322148025">
        <ele>431.89999999999998</ele>
        <time>2021-10-31T10:22:45Z</time>
      </trkpt>
      <trkpt lat="45.560135347768664" lon="10.90290505439043">
        <ele>432.99000000000001</ele>
        <time>2021-10-31T10:22:54Z</time>
      </trkpt>
      <trkpt lat="45.560210198163986" lon="10.902956016361713">
        <ele>434.20999999999998</ele>
        <time>2021-10-31T10:23:05Z</time>
      </trkpt>
      <trkpt lat="45.560294520109892" lon="10.903029022738338">
        <ele>435.64999999999998</ele>
        <time>2021-10-31T10:23:18Z</time>
      </trkpt>
      <trkpt lat="45.560365682467818" lon="10.903098424896598">
        <ele>437.00999999999999</ele>
        <time>2021-10-31T10:23:30Z</time>
      </trkpt>
      <trkpt lat="45.560409184545279" lon="10.903160450980067">
        <ele>438.11000000000001</ele>
        <time>2021-10-31T10:23:39Z</time>
      </trkpt>
      <trkpt lat="45.560460146516562" lon="10.903233624994755">
        <ele>439.25</ele>
        <time>2021-10-31T10:23:49Z</time>
      </trkpt>
      <trkpt lat="45.560504319146276" lon="10.903329681605101">
        <ele>440.49000000000001</ele>
        <time>2021-10-31T10:24:01Z</time>
      </trkpt>
      <trkpt lat="45.560516975820065" lon="10.903448285534978">
        <ele>441.72000000000003</ele>
        <time>2021-10-31T10:24:13Z</time>
      </trkpt>
      <trkpt lat="45.560485376045108" lon="10.903585664927959">
        <ele>443.00999999999999</ele>
        <time>2021-10-31T10:24:26Z</time>
      </trkpt>
      <trkpt lat="45.560470540076494" lon="10.903691779822111">
        <ele>443.67000000000002</ele>
        <time>2021-10-31T10:24:36Z</time>
      </trkpt>
      <trkpt lat="45.560423685237765" lon="10.903811641037464">
        <ele>444.42000000000002</ele>
        <time>2021-10-31T10:24:47Z</time>
      </trkpt>
      <trkpt lat="45.560376830399036" lon="10.903906440362334">
        <ele>444.87</ele>
        <time>2021-10-31T10:24:56Z</time>
      </trkpt>
      <trkpt lat="45.560332238674164" lon="10.904015321284533">
        <ele>445.13999999999999</ele>
        <time>2021-10-31T10:25:06Z</time>
      </trkpt>
      <trkpt lat="45.56028219871223" lon="10.90411338955164">
        <ele>445.75</ele>
        <time>2021-10-31T10:25:16Z</time>
      </trkpt>
      <trkpt lat="45.560229560360312" lon="10.90417642146349">
        <ele>446.06999999999999</ele>
        <time>2021-10-31T10:25:24Z</time>
      </trkpt>
      <trkpt lat="45.560198631137609" lon="10.904204249382019">
        <ele>446.17000000000002</ele>
        <time>2021-10-31T10:25:28Z</time>
      </trkpt>
      <trkpt lat="45.56011363863945" lon="10.904239788651466">
        <ele>446.45999999999998</ele>
        <time>2021-10-31T10:25:37Z</time>
      </trkpt>
      <trkpt lat="45.560061084106565" lon="10.904289074242115">
        <ele>447.00999999999999</ele>
        <time>2021-10-31T10:25:46Z</time>
      </trkpt>
      <trkpt lat="45.560062928125262" lon="10.90436015278101">
        <ele>447.5</ele>
        <time>2021-10-31T10:25:55Z</time>
      </trkpt>
      <trkpt lat="45.560079859569669" lon="10.904394434764981">
        <ele>447.62</ele>
        <time>2021-10-31T10:25:59Z</time>
      </trkpt>
      <trkpt lat="45.560140125453472" lon="10.904458640143275">
        <ele>448.17000000000002</ele>
        <time>2021-10-31T10:26:08Z</time>
      </trkpt>
      <trkpt lat="45.560211790725589" lon="10.904544051736593">
        <ele>449.13999999999999</ele>
        <time>2021-10-31T10:26:19Z</time>
      </trkpt>
      <trkpt lat="45.560264177620411" lon="10.904606748372316">
        <ele>449.81999999999999</ele>
        <time>2021-10-31T10:26:27Z</time>
      </trkpt>
      <trkpt lat="45.560316648334265" lon="10.904675479978323">
        <ele>450.41000000000003</ele>
        <time>2021-10-31T10:26:35Z</time>
      </trkpt>
      <trkpt lat="45.56039652787149" lon="10.904760556295514">
        <ele>451.16000000000003</ele>
        <time>2021-10-31T10:26:46Z</time>
      </trkpt>
      <trkpt lat="45.560501050204039" lon="10.904835239052773">
        <ele>452.38</ele>
        <time>2021-10-31T10:26:59Z</time>
      </trkpt>
      <trkpt lat="45.560509348288178" lon="10.904842866584659">
        <ele>452.95999999999998</ele>
        <time>2021-10-31T10:27:08Z</time>
      </trkpt>
      <trkpt lat="45.56054849177599" lon="10.904871616512537">
        <ele>453.12</ele>
        <time>2021-10-31T10:27:19Z</time>
      </trkpt>
      <trkpt lat="45.5606359988451" lon="10.904917465522885">
        <ele>453.37</ele>
        <time>2021-10-31T10:27:30Z</time>
      </trkpt>
      <trkpt lat="45.560727445408702" lon="10.904952250421047">
        <ele>453.81</ele>
        <time>2021-10-31T10:27:41Z</time>
      </trkpt>
      <trkpt lat="45.560804978013039" lon="10.904979156330228">
        <ele>454.47000000000003</ele>
        <time>2021-10-31T10:27:50Z</time>
      </trkpt>
      <trkpt lat="45.560908243060112" lon="10.90501737780869">
        <ele>455.17000000000002</ele>
        <time>2021-10-31T10:28:02Z</time>
      </trkpt>
      <trkpt lat="45.560980243608356" lon="10.905054677277803">
        <ele>455.80000000000001</ele>
        <time>2021-10-31T10:28:11Z</time>
      </trkpt>
      <trkpt lat="45.561043694615364" lon="10.905094156041741">
        <ele>456.75999999999999</ele>
        <time>2021-10-31T10:28:20Z</time>
      </trkpt>
      <trkpt lat="45.561085017398" lon="10.905153835192323">
        <ele>457.82999999999998</ele>
        <time>2021-10-31T10:28:29Z</time>
      </trkpt>
      <trkpt lat="45.56101662106812" lon="10.905224997550249">
        <ele>459.25</ele>
        <time>2021-10-31T10:28:40Z</time>
      </trkpt>
      <trkpt lat="45.560962222516537" lon="10.905249388888478">
        <ele>460.69999999999999</ele>
        <time>2021-10-31T10:28:49Z</time>
      </trkpt>
      <trkpt lat="45.560924084857106" lon="10.905260453000665">
        <ele>461.99000000000001</ele>
        <time>2021-10-31T10:28:57Z</time>
      </trkpt>
      <trkpt lat="45.560872033238411" lon="10.905283251777291">
        <ele>463.77999999999997</ele>
        <time>2021-10-31T10:29:08Z</time>
      </trkpt>
      <trkpt lat="45.560818053781986" lon="10.905295321717858">
        <ele>465.32999999999998</ele>
        <time>2021-10-31T10:29:17Z</time>
      </trkpt>
      <trkpt lat="45.560779077932239" lon="10.905291549861431">
        <ele>466.72000000000003</ele>
        <time>2021-10-31T10:29:27Z</time>
      </trkpt>
      <trkpt lat="45.560736916959286" lon="10.905302194878459">
        <ele>467.36000000000001</ele>
        <time>2021-10-31T10:29:35Z</time>
      </trkpt>
      <trkpt lat="45.560704227536917" lon="10.905312923714519">
        <ele>468.42000000000002</ele>
        <time>2021-10-31T10:29:43Z</time>
      </trkpt>
      <trkpt lat="45.560644464567304" lon="10.905312672257423">
        <ele>469.51999999999998</ele>
        <time>2021-10-31T10:29:53Z</time>
      </trkpt>
      <trkpt lat="45.560565842315555" lon="10.90528903529048">
        <ele>470.33999999999997</ele>
        <time>2021-10-31T10:30:04Z</time>
      </trkpt>
      <trkpt lat="45.560497362166643" lon="10.905241258442402">
        <ele>470.79000000000002</ele>
        <time>2021-10-31T10:30:13Z</time>
      </trkpt>
      <trkpt lat="45.560438437387347" lon="10.905211670324206">
        <ele>471.11000000000001</ele>
        <time>2021-10-31T10:30:21Z</time>
      </trkpt>
      <trkpt lat="45.560368532314897" lon="10.905210748314857">
        <ele>471.60000000000002</ele>
        <time>2021-10-31T10:30:30Z</time>
      </trkpt>
      <trkpt lat="45.56030516512692" lon="10.905250143259764">
        <ele>472.70999999999998</ele>
        <time>2021-10-31T10:30:40Z</time>
      </trkpt>
      <trkpt lat="45.560230147093534" lon="10.905288029462099">
        <ele>473.89999999999998</ele>
        <time>2021-10-31T10:30:51Z</time>
      </trkpt>
      <trkpt lat="45.560173820704222" lon="10.905348546802998">
        <ele>474.99000000000001</ele>
        <time>2021-10-31T10:31:02Z</time>
      </trkpt>
      <trkpt lat="45.560117745772004" lon="10.90543907135725">
        <ele>476.20999999999998</ele>
        <time>2021-10-31T10:31:13Z</time>
      </trkpt>
      <trkpt lat="45.560054546222091" lon="10.905532529577613">
        <ele>477.13</ele>
        <time>2021-10-31T10:31:25Z</time>
      </trkpt>
      <trkpt lat="45.559995621442795" lon="10.905629675835371">
        <ele>478.02999999999997</ele>
        <time>2021-10-31T10:31:37Z</time>
      </trkpt>
      <trkpt lat="45.559939881786704" lon="10.905730091035366">
        <ele>478.74000000000001</ele>
        <time>2021-10-31T10:31:49Z</time>
      </trkpt>
      <trkpt lat="45.559875844046474" lon="10.905832769349217">
        <ele>479.45999999999998</ele>
        <time>2021-10-31T10:32:01Z</time>
      </trkpt>
      <trkpt lat="45.559825468808413" lon="10.905931340530515">
        <ele>480.13</ele>
        <time>2021-10-31T10:32:12Z</time>
      </trkpt>
      <trkpt lat="45.559782385826111" lon="10.906039131805301">
        <ele>480.93000000000001</ele>
        <time>2021-10-31T10:32:24Z</time>
      </trkpt>
      <trkpt lat="45.559721617028117" lon="10.906149270012975">
        <ele>481.48000000000002</ele>
        <time>2021-10-31T10:32:36Z</time>
      </trkpt>
      <trkpt lat="45.55966998450458" lon="10.906245075166225">
        <ele>482.11000000000001</ele>
        <time>2021-10-31T10:32:47Z</time>
      </trkpt>
      <trkpt lat="45.559608964249492" lon="10.906312465667725">
        <ele>482.82999999999998</ele>
        <time>2021-10-31T10:32:57Z</time>
      </trkpt>
      <trkpt lat="45.559599827975035" lon="10.906321099027991">
        <ele>482.89999999999998</ele>
        <time>2021-10-31T10:32:58Z</time>
      </trkpt>
      <trkpt lat="45.559552637860179" lon="10.9063655231148">
        <ele>483.38999999999999</ele>
        <time>2021-10-31T10:33:05Z</time>
      </trkpt>
      <trkpt lat="45.559494970366359" lon="10.906434422358871">
        <ele>484.69</ele>
        <time>2021-10-31T10:33:17Z</time>
      </trkpt>
      <trkpt lat="45.559465633705258" lon="10.906527796760201">
        <ele>485.83999999999997</ele>
        <time>2021-10-31T10:33:27Z</time>
      </trkpt>
      <trkpt lat="45.5594427511096" lon="10.906630391255021">
        <ele>486.56999999999999</ele>
        <time>2021-10-31T10:33:37Z</time>
      </trkpt>
      <trkpt lat="45.559415593743324" lon="10.906714042648673">
        <ele>487.41000000000003</ele>
        <time>2021-10-31T10:33:47Z</time>
      </trkpt>
      <trkpt lat="45.559390699490905" lon="10.906799621880054">
        <ele>488.62</ele>
        <time>2021-10-31T10:33:57Z</time>
      </trkpt>
      <trkpt lat="45.559366140514612" lon="10.906854271888733">
        <ele>489.70999999999998</ele>
        <time>2021-10-31T10:34:05Z</time>
      </trkpt>
      <trkpt lat="45.559333954006433" lon="10.90691864490509">
        <ele>490.89999999999998</ele>
        <time>2021-10-31T10:34:15Z</time>
      </trkpt>
      <trkpt lat="45.559296570718288" lon="10.906984694302082">
        <ele>492.5</ele>
        <time>2021-10-31T10:34:26Z</time>
      </trkpt>
      <trkpt lat="45.559259857982397" lon="10.907051749527454">
        <ele>494</ele>
        <time>2021-10-31T10:34:37Z</time>
      </trkpt>
      <trkpt lat="45.559221468865871" lon="10.907121151685715">
        <ele>495.62</ele>
        <time>2021-10-31T10:34:48Z</time>
      </trkpt>
      <trkpt lat="45.5591906234622" lon="10.907208658754826">
        <ele>496.82999999999998</ele>
        <time>2021-10-31T10:34:59Z</time>
      </trkpt>
      <trkpt lat="45.559176793321967" lon="10.907288957387209">
        <ele>498.19</ele>
        <time>2021-10-31T10:35:09Z</time>
      </trkpt>
      <trkpt lat="45.55919598788023" lon="10.907338326796889">
        <ele>500.88999999999999</ele>
        <time>2021-10-31T10:36:13Z</time>
      </trkpt>
      <trkpt lat="45.559183163568377" lon="10.907318042591214">
        <ele>500.24000000000001</ele>
        <time>2021-10-31T10:36:28Z</time>
      </trkpt>
      <trkpt lat="45.559206297621131" lon="10.907340757548809">
        <ele>500.31999999999999</ele>
        <time>2021-10-31T10:36:41Z</time>
      </trkpt>
      <trkpt lat="45.559245441108942" lon="10.907393982633948">
        <ele>501.06</ele>
        <time>2021-10-31T10:36:51Z</time>
      </trkpt>
      <trkpt lat="45.559280393645167" lon="10.907436478883028">
        <ele>502.38999999999999</ele>
        <time>2021-10-31T10:37:00Z</time>
      </trkpt>
      <trkpt lat="45.559327164664865" lon="10.907479142770171">
        <ele>504.70999999999998</ele>
        <time>2021-10-31T10:37:13Z</time>
      </trkpt>
      <trkpt lat="45.559365469962358" lon="10.907506886869669">
        <ele>506.69</ele>
        <time>2021-10-31T10:37:24Z</time>
      </trkpt>
      <trkpt lat="45.559392124414444" lon="10.907511161640286">
        <ele>507.26999999999998</ele>
        <time>2021-10-31T10:37:39Z</time>
      </trkpt>
      <trkpt lat="45.559422634541988" lon="10.907527841627598">
        <ele>509.06</ele>
        <time>2021-10-31T10:37:52Z</time>
      </trkpt>
      <trkpt lat="45.559456245973706" lon="10.907544940710068">
        <ele>509.56999999999999</ele>
        <time>2021-10-31T10:38:02Z</time>
      </trkpt>
      <trkpt lat="45.559484744444489" lon="10.907569080591202">
        <ele>511.47000000000003</ele>
        <time>2021-10-31T10:38:15Z</time>
      </trkpt>
      <trkpt lat="45.559512823820114" lon="10.907587185502052">
        <ele>512.09000000000003</ele>
        <time>2021-10-31T10:38:28Z</time>
      </trkpt>
      <trkpt lat="45.55954928509891" lon="10.907613253220916">
        <ele>512.88999999999999</ele>
        <time>2021-10-31T10:38:34Z</time>
      </trkpt>
      <trkpt lat="45.559601252898574" lon="10.907647283747792">
        <ele>514.73000000000002</ele>
        <time>2021-10-31T10:38:44Z</time>
      </trkpt>
      <trkpt lat="45.559644168242812" lon="10.907660778611898">
        <ele>516.38</ele>
        <time>2021-10-31T10:38:52Z</time>
      </trkpt>
      <trkpt lat="45.559639390558004" lon="10.907649043947458">
        <ele>517.53999999999996</ele>
        <time>2021-10-31T10:39:01Z</time>
      </trkpt>
      <trkpt lat="45.559630757197738" lon="10.907640494406223">
        <ele>517.77999999999997</ele>
        <time>2021-10-31T10:39:07Z</time>
      </trkpt>
      <trkpt lat="45.559622291475534" lon="10.907620126381516">
        <ele>518</ele>
        <time>2021-10-31T10:39:33Z</time>
      </trkpt>
      <trkpt lat="45.559591865167022" lon="10.907532786950469">
        <ele>518.48000000000002</ele>
        <time>2021-10-31T10:39:44Z</time>
      </trkpt>
      <trkpt lat="45.559572335332632" lon="10.90742533095181">
        <ele>519.34000000000003</ele>
        <time>2021-10-31T10:39:55Z</time>
      </trkpt>
      <trkpt lat="45.559574263170362" lon="10.9073515702039">
        <ele>519.97000000000003</ele>
        <time>2021-10-31T10:40:03Z</time>
      </trkpt>
      <trkpt lat="45.559602677822113" lon="10.907270684838295">
        <ele>520.67999999999995</ele>
        <time>2021-10-31T10:40:12Z</time>
      </trkpt>
      <trkpt lat="45.55966068059206" lon="10.907183345407248">
        <ele>521.46000000000004</ele>
        <time>2021-10-31T10:40:24Z</time>
      </trkpt>
      <trkpt lat="45.55971147492528" lon="10.90712676756084">
        <ele>522.25</ele>
        <time>2021-10-31T10:40:34Z</time>
      </trkpt>
      <trkpt lat="45.559771489351988" lon="10.90709013864398">
        <ele>522.82000000000005</ele>
        <time>2021-10-31T10:40:43Z</time>
      </trkpt>
      <trkpt lat="45.559834018349648" lon="10.90707303956151">
        <ele>523.63999999999999</ele>
        <time>2021-10-31T10:40:52Z</time>
      </trkpt>
      <trkpt lat="45.559866623952985" lon="10.907087037339807">
        <ele>524.22000000000003</ele>
        <time>2021-10-31T10:40:59Z</time>
      </trkpt>
      <trkpt lat="45.559859499335289" lon="10.907139340415597">
        <ele>524.54999999999995</ele>
        <time>2021-10-31T10:41:05Z</time>
      </trkpt>
      <trkpt lat="45.55984047241509" lon="10.907134143635631">
        <ele>525.75999999999999</ele>
        <time>2021-10-31T10:41:19Z</time>
      </trkpt>
      <trkpt lat="45.559842316433787" lon="10.907118888571858">
        <ele>525.50999999999999</ele>
        <time>2021-10-31T10:41:46Z</time>
      </trkpt>
      <trkpt lat="45.559844998642802" lon="10.907155349850655">
        <ele>525.72000000000003</ele>
        <time>2021-10-31T10:41:56Z</time>
      </trkpt>
      <trkpt lat="45.559813231229782" lon="10.907162558287382">
        <ele>526.96000000000004</ele>
        <time>2021-10-31T10:42:03Z</time>
      </trkpt>
      <trkpt lat="45.559777021408081" lon="10.907174963504076">
        <ele>529.05999999999995</ele>
        <time>2021-10-31T10:42:14Z</time>
      </trkpt>
      <trkpt lat="45.559761263430119" lon="10.907229362055659">
        <ele>530.48000000000002</ele>
        <time>2021-10-31T10:42:25Z</time>
      </trkpt>
      <trkpt lat="45.559756234288216" lon="10.907238749787211">
        <ele>530.75</ele>
        <time>2021-10-31T10:42:27Z</time>
      </trkpt>
      <trkpt lat="45.559751288965344" lon="10.90724553912878">
        <ele>532.38999999999999</ele>
        <time>2021-10-31T10:42:33Z</time>
      </trkpt>
      <trkpt lat="45.559747265651822" lon="10.907257022336125">
        <ele>533.42999999999995</ele>
        <time>2021-10-31T10:42:43Z</time>
      </trkpt>
      <trkpt lat="45.559779871255159" lon="10.907240426167846">
        <ele>534.12</ele>
        <time>2021-10-31T10:42:52Z</time>
      </trkpt>
      <trkpt lat="45.559802167117596" lon="10.907230535522103">
        <ele>535.83000000000004</ele>
        <time>2021-10-31T10:43:01Z</time>
      </trkpt>
      <trkpt lat="45.55981163866818" lon="10.907234977930784">
        <ele>537</ele>
        <time>2021-10-31T10:43:23Z</time>
      </trkpt>
      <trkpt lat="45.55984734557569" lon="10.907245371490717">
        <ele>537.35000000000002</ele>
        <time>2021-10-31T10:43:35Z</time>
      </trkpt>
      <trkpt lat="45.559884225949645" lon="10.907251238822937">
        <ele>538.36000000000001</ele>
        <time>2021-10-31T10:43:41Z</time>
      </trkpt>
      <trkpt lat="45.559893865138292" lon="10.907284431159496">
        <ele>539.37</ele>
        <time>2021-10-31T10:43:47Z</time>
      </trkpt>
      <trkpt lat="45.559874922037125" lon="10.907337320968509">
        <ele>541.58000000000004</ele>
        <time>2021-10-31T10:43:57Z</time>
      </trkpt>
      <trkpt lat="45.559901492670178" lon="10.90733589604497">
        <ele>543.26999999999998</ele>
        <time>2021-10-31T10:44:13Z</time>
      </trkpt>
      <trkpt lat="45.559939378872514" lon="10.907326927408576">
        <ele>543.80999999999995</ele>
        <time>2021-10-31T10:44:24Z</time>
      </trkpt>
      <trkpt lat="45.559940049424767" lon="10.907321060076356">
        <ele>543.72000000000003</ele>
        <time>2021-10-31T10:44:44Z</time>
      </trkpt>
      <trkpt lat="45.559937786310911" lon="10.907319635152817">
        <ele>543.52999999999997</ele>
        <time>2021-10-31T10:45:12Z</time>
      </trkpt>
      <trkpt lat="45.559963183477521" lon="10.90729583054781">
        <ele>543.70000000000005</ele>
        <time>2021-10-31T10:45:23Z</time>
      </trkpt>
      <trkpt lat="45.559967625886202" lon="10.907248137518764">
        <ele>543.5</ele>
        <time>2021-10-31T10:45:33Z</time>
      </trkpt>
      <trkpt lat="45.559950778260827" lon="10.907217878848314">
        <ele>543.39999999999998</ele>
        <time>2021-10-31T10:45:43Z</time>
      </trkpt>
      <trkpt lat="45.559921273961663" lon="10.907202875241637">
        <ele>543.26999999999998</ele>
        <time>2021-10-31T10:45:53Z</time>
      </trkpt>
      <trkpt lat="45.559940384700894" lon="10.907212179154158">
        <ele>543.34000000000003</ele>
        <time>2021-10-31T10:46:08Z</time>
      </trkpt>
      <trkpt lat="45.559949269518256" lon="10.907238498330116">
        <ele>543.34000000000003</ele>
        <time>2021-10-31T10:46:19Z</time>
      </trkpt>
      <trkpt lat="45.559945749118924" lon="10.90723916888237">
        <ele>543.34000000000003</ele>
        <time>2021-10-31T10:46:45Z</time>
      </trkpt>
      <trkpt lat="45.559960333630443" lon="10.90720983222127">
        <ele>543.34000000000003</ele>
        <time>2021-10-31T10:46:52Z</time>
      </trkpt>
      <trkpt lat="45.559984222054482" lon="10.907195834442973">
        <ele>543.34000000000003</ele>
        <time>2021-10-31T10:47:00Z</time>
      </trkpt>
      <trkpt lat="45.560048595070839" lon="10.907187033444643">
        <ele>543.36000000000001</ele>
        <time>2021-10-31T10:47:08Z</time>
      </trkpt>
      <trkpt lat="45.560118164867163" lon="10.90720547363162">
        <ele>543.40999999999997</ele>
        <time>2021-10-31T10:47:16Z</time>
      </trkpt>
      <trkpt lat="45.560161666944623" lon="10.907200528308749">
        <ele>543.5</ele>
        <time>2021-10-31T10:47:21Z</time>
      </trkpt>
      <trkpt lat="45.560208270326257" lon="10.907180579379201">
        <ele>543.73000000000002</ele>
        <time>2021-10-31T10:47:29Z</time>
      </trkpt>
      <trkpt lat="45.560206593945622" lon="10.907235229387879">
        <ele>543.86000000000001</ele>
        <time>2021-10-31T10:47:47Z</time>
      </trkpt>
      <trkpt lat="45.560241630300879" lon="10.90730563737452">
        <ele>543.91999999999996</ele>
        <time>2021-10-31T10:47:55Z</time>
      </trkpt>
      <trkpt lat="45.560247665271163" lon="10.907314354553819">
        <ele>543.96000000000004</ele>
        <time>2021-10-31T10:47:56Z</time>
      </trkpt>
      <trkpt lat="45.560276079922915" lon="10.907354922965169">
        <ele>544.11000000000001</ele>
        <time>2021-10-31T10:48:02Z</time>
      </trkpt>
      <trkpt lat="45.560320420190692" lon="10.90741116553545">
        <ele>544.25</ele>
        <time>2021-10-31T10:48:10Z</time>
      </trkpt>
      <trkpt lat="45.560356881469488" lon="10.90745709836483">
        <ele>544.74000000000001</ele>
        <time>2021-10-31T10:48:17Z</time>
      </trkpt>
      <trkpt lat="45.560372220352292" lon="10.907471431419253">
        <ele>545.09000000000003</ele>
        <time>2021-10-31T10:48:20Z</time>
      </trkpt>
      <trkpt lat="45.560403484851122" lon="10.90750303119421">
        <ele>545.63</ele>
        <time>2021-10-31T10:48:25Z</time>
      </trkpt>
      <trkpt lat="45.560441957786679" lon="10.90755089186132">
        <ele>546.52999999999997</ele>
        <time>2021-10-31T10:48:33Z</time>
      </trkpt>
      <trkpt lat="45.560468444600701" lon="10.907603278756142">
        <ele>547.49000000000001</ele>
        <time>2021-10-31T10:48:41Z</time>
      </trkpt>
      <trkpt lat="45.560510018840432" lon="10.907645775005221">
        <ele>548.28999999999996</ele>
        <time>2021-10-31T10:48:49Z</time>
      </trkpt>
      <trkpt lat="45.560562657192349" lon="10.90768969617784">
        <ele>549.71000000000004</ele>
        <time>2021-10-31T10:48:59Z</time>
      </trkpt>
      <trkpt lat="45.560612948611379" lon="10.907727247104049">
        <ele>550.66999999999996</ele>
        <time>2021-10-31T10:49:08Z</time>
      </trkpt>
      <trkpt lat="45.560663659125566" lon="10.907765384763479">
        <ele>551.66999999999996</ele>
        <time>2021-10-31T10:49:16Z</time>
      </trkpt>
      <trkpt lat="45.560695761814713" lon="10.907799163833261">
        <ele>552.32000000000005</ele>
        <time>2021-10-31T10:49:22Z</time>
      </trkpt>
      <trkpt lat="45.560703473165631" lon="10.907814418897033">
        <ele>553.11000000000001</ele>
        <time>2021-10-31T10:49:31Z</time>
      </trkpt>
      <trkpt lat="45.560714788734913" lon="10.907814251258969">
        <ele>553.17999999999995</ele>
        <time>2021-10-31T10:49:50Z</time>
      </trkpt>
      <trkpt lat="45.560717219486833" lon="10.907807378098369">
        <ele>553.21000000000004</ele>
        <time>2021-10-31T10:50:00Z</time>
      </trkpt>
      <trkpt lat="45.560728032141924" lon="10.907829757779837">
        <ele>552.97000000000003</ele>
        <time>2021-10-31T10:50:18Z</time>
      </trkpt>
      <trkpt lat="45.560785364359617" lon="10.907871164381504">
        <ele>553.10000000000002</ele>
        <time>2021-10-31T10:50:28Z</time>
      </trkpt>
      <trkpt lat="45.560821238905191" lon="10.907907038927078">
        <ele>553.60000000000002</ele>
        <time>2021-10-31T10:50:38Z</time>
      </trkpt>
      <trkpt lat="45.560859041288495" lon="10.907940147444606">
        <ele>553.60000000000002</ele>
        <time>2021-10-31T10:50:46Z</time>
      </trkpt>
      <trkpt lat="45.560885276645422" lon="10.907976776361465">
        <ele>553.60000000000002</ele>
        <time>2021-10-31T10:50:56Z</time>
      </trkpt>
      <trkpt lat="45.560916122049093" lon="10.908001838251948">
        <ele>553.60000000000002</ele>
        <time>2021-10-31T10:51:04Z</time>
      </trkpt>
      <trkpt lat="45.5609589535743" lon="10.908054728060961">
        <ele>553.82000000000005</ele>
        <time>2021-10-31T10:51:12Z</time>
      </trkpt>
      <trkpt lat="45.56099709123373" lon="10.908110132440925">
        <ele>556.27999999999997</ele>
        <time>2021-10-31T10:51:23Z</time>
      </trkpt>
      <trkpt lat="45.561031876131892" lon="10.908156232908368">
        <ele>556.64999999999998</ele>
        <time>2021-10-31T10:51:32Z</time>
      </trkpt>
      <trkpt lat="45.561066996306181" lon="10.908230748027563">
        <ele>557.27999999999997</ele>
        <time>2021-10-31T10:51:41Z</time>
      </trkpt>
      <trkpt lat="45.5611109174788" lon="10.908311130478978">
        <ele>557.75999999999999</ele>
        <time>2021-10-31T10:51:51Z</time>
      </trkpt>
      <trkpt lat="45.561147127300501" lon="10.908386651426554">
        <ele>558.51999999999998</ele>
        <time>2021-10-31T10:52:01Z</time>
      </trkpt>
      <trkpt lat="45.561152575537562" lon="10.908393189311028">
        <ele>558.97000000000003</ele>
        <time>2021-10-31T10:52:14Z</time>
      </trkpt>
      <trkpt lat="45.561173362657428" lon="10.908455131575465">
        <ele>558.98000000000002</ele>
        <time>2021-10-31T10:52:22Z</time>
      </trkpt>
      <trkpt lat="45.561182331293821" lon="10.908473655581474">
        <ele>559.35000000000002</ele>
        <time>2021-10-31T10:52:30Z</time>
      </trkpt>
      <trkpt lat="45.561208734288812" lon="10.908562336117029">
        <ele>560.00999999999999</ele>
        <time>2021-10-31T10:52:42Z</time>
      </trkpt>
      <trkpt lat="45.561229856684804" lon="10.908595696091652">
        <ele>560.55999999999995</ele>
        <time>2021-10-31T10:52:50Z</time>
      </trkpt>
      <trkpt lat="45.561249135062099" lon="10.908630061894655">
        <ele>561.10000000000002</ele>
        <time>2021-10-31T10:52:58Z</time>
      </trkpt>
      <trkpt lat="45.561273023486137" lon="10.908675575628877">
        <ele>561.44000000000005</ele>
        <time>2021-10-31T10:53:10Z</time>
      </trkpt>
      <trkpt lat="45.561287021264434" lon="10.908724525943398">
        <ele>561.89999999999998</ele>
        <time>2021-10-31T10:53:18Z</time>
      </trkpt>
      <trkpt lat="45.561301857233047" lon="10.908780433237553">
        <ele>562.13999999999999</ele>
        <time>2021-10-31T10:53:29Z</time>
      </trkpt>
      <trkpt lat="45.561310825869441" lon="10.908859223127365">
        <ele>562.77999999999997</ele>
        <time>2021-10-31T10:53:38Z</time>
      </trkpt>
      <trkpt lat="45.561316441744566" lon="10.908948993310332">
        <ele>562.73000000000002</ele>
        <time>2021-10-31T10:53:47Z</time>
      </trkpt>
      <trkpt lat="45.561318453401327" lon="10.908969193696976">
        <ele>562.87</ele>
        <time>2021-10-31T10:54:01Z</time>
      </trkpt>
      <trkpt lat="45.561329098418355" lon="10.909037673845887">
        <ele>563.13</ele>
        <time>2021-10-31T10:54:16Z</time>
      </trkpt>
      <trkpt lat="45.561362626031041" lon="10.909171616658568">
        <ele>563.12</ele>
        <time>2021-10-31T10:54:28Z</time>
      </trkpt>
      <trkpt lat="45.561405960470438" lon="10.90925426222384">
        <ele>563.38999999999999</ele>
        <time>2021-10-31T10:54:38Z</time>
      </trkpt>
      <trkpt lat="45.561454324051738" lon="10.909312181174755">
        <ele>563.69000000000005</ele>
        <time>2021-10-31T10:54:47Z</time>
      </trkpt>
      <trkpt lat="45.561461364850402" lon="10.90932123363018">
        <ele>563.69000000000005</ele>
        <time>2021-10-31T10:54:48Z</time>
      </trkpt>
      <trkpt lat="45.561516853049397" lon="10.909386863932014">
        <ele>563.98000000000002</ele>
        <time>2021-10-31T10:54:56Z</time>
      </trkpt>
      <trkpt lat="45.561550380662084" lon="10.90944092720747">
        <ele>564.12</ele>
        <time>2021-10-31T10:55:06Z</time>
      </trkpt>
      <trkpt lat="45.561575945466757" lon="10.909464480355382">
        <ele>564.11000000000001</ele>
        <time>2021-10-31T10:55:26Z</time>
      </trkpt>
      <trkpt lat="45.561641994863749" lon="10.909542599692941">
        <ele>563.96000000000004</ele>
        <time>2021-10-31T10:55:35Z</time>
      </trkpt>
      <trkpt lat="45.56172707118094" lon="10.909633543342352">
        <ele>564.00999999999999</ele>
        <time>2021-10-31T10:55:47Z</time>
      </trkpt>
      <trkpt lat="45.561798317357898" lon="10.909718535840511">
        <ele>564.17999999999995</ele>
        <time>2021-10-31T10:55:57Z</time>
      </trkpt>
      <trkpt lat="45.561859253793955" lon="10.909780142828822">
        <ele>564.37</ele>
        <time>2021-10-31T10:56:05Z</time>
      </trkpt>
      <trkpt lat="45.561933349817991" lon="10.909831272438169">
        <ele>565.01999999999998</ele>
        <time>2021-10-31T10:56:15Z</time>
      </trkpt>
      <trkpt lat="45.561988251283765" lon="10.909872176125646">
        <ele>565.75999999999999</ele>
        <time>2021-10-31T10:56:24Z</time>
      </trkpt>
      <trkpt lat="45.56201096624136" lon="10.909900590777397">
        <ele>566.25999999999999</ele>
        <time>2021-10-31T10:56:33Z</time>
      </trkpt>
      <trkpt lat="45.562028316780925" lon="10.909932358190417">
        <ele>566.32000000000005</ele>
        <time>2021-10-31T10:56:42Z</time>
      </trkpt>
      <trkpt lat="45.562034854665399" lon="10.909941075369716">
        <ele>566.32000000000005</ele>
        <time>2021-10-31T10:56:43Z</time>
      </trkpt>
      <trkpt lat="45.562111046165228" lon="10.910066552460194">
        <ele>565.98000000000002</ele>
        <time>2021-10-31T10:56:56Z</time>
      </trkpt>
      <trkpt lat="45.562158236280084" lon="10.910147354006767">
        <ele>565.82000000000005</ele>
        <time>2021-10-31T10:57:06Z</time>
      </trkpt>
      <trkpt lat="45.562202492728829" lon="10.910134194418788">
        <ele>565.63</ele>
        <time>2021-10-31T10:57:15Z</time>
      </trkpt>
      <trkpt lat="45.562204672023654" lon="10.910137128084898">
        <ele>565.61000000000001</ele>
        <time>2021-10-31T10:57:34Z</time>
      </trkpt>
      <trkpt lat="45.562190338969231" lon="10.910172499716282">
        <ele>565.61000000000001</ele>
        <time>2021-10-31T10:57:52Z</time>
      </trkpt>
      <trkpt lat="45.562208443880081" lon="10.910227568820119">
        <ele>565.61000000000001</ele>
        <time>2021-10-31T10:58:00Z</time>
      </trkpt>
      <trkpt lat="45.562236690893769" lon="10.910270232707262">
        <ele>565.61000000000001</ele>
        <time>2021-10-31T10:58:08Z</time>
      </trkpt>
      <trkpt lat="45.56230022571981" lon="10.910311974585056">
        <ele>565.58000000000004</ele>
        <time>2021-10-31T10:58:18Z</time>
      </trkpt>
      <trkpt lat="45.562309194356203" lon="10.910310717299581">
        <ele>565.55999999999995</ele>
        <time>2021-10-31T10:58:19Z</time>
      </trkpt>
      <trkpt lat="45.562327718362212" lon="10.910308286547661">
        <ele>565.39999999999998</ele>
        <time>2021-10-31T10:58:25Z</time>
      </trkpt>
      <trkpt lat="45.562316067516804" lon="10.910297390073538">
        <ele>565.57000000000005</ele>
        <time>2021-10-31T10:58:35Z</time>
      </trkpt>
      <trkpt lat="45.562295950949192" lon="10.910288840532303">
        <ele>565.51999999999998</ele>
        <time>2021-10-31T10:58:45Z</time>
      </trkpt>
      <trkpt lat="45.562289832159877" lon="10.910299234092236">
        <ele>565.34000000000003</ele>
        <time>2021-10-31T10:59:00Z</time>
      </trkpt>
      <trkpt lat="45.562268290668726" lon="10.910277524963021">
        <ele>565.38</ele>
        <time>2021-10-31T10:59:08Z</time>
      </trkpt>
      <trkpt lat="45.562273319810629" lon="10.910255145281553">
        <ele>565.32000000000005</ele>
        <time>2021-10-31T10:59:28Z</time>
      </trkpt>
      <trkpt lat="45.562255131080747" lon="10.910279285162687">
        <ele>565.32000000000005</ele>
        <time>2021-10-31T10:59:40Z</time>
      </trkpt>
      <trkpt lat="45.562248257920146" lon="10.910285236313939">
        <ele>565.32000000000005</ele>
        <time>2021-10-31T10:59:57Z</time>
      </trkpt>
      <trkpt lat="45.562248090282083" lon="10.910292277112603">
        <ele>565.32000000000005</ele>
        <time>2021-10-31T11:00:14Z</time>
      </trkpt>
      <trkpt lat="45.562279354780912" lon="10.910302419215441">
        <ele>565.32000000000005</ele>
        <time>2021-10-31T11:00:21Z</time>
      </trkpt>
      <trkpt lat="45.562289077788591" lon="10.910300826653838">
        <ele>565.32000000000005</ele>
        <time>2021-10-31T11:00:34Z</time>
      </trkpt>
      <trkpt lat="45.562277343124151" lon="10.910325385630131">
        <ele>565.32000000000005</ele>
        <time>2021-10-31T11:00:51Z</time>
      </trkpt>
      <trkpt lat="45.562247419729829" lon="10.910301329568028">
        <ele>565.32000000000005</ele>
        <time>2021-10-31T11:01:01Z</time>
      </trkpt>
      <trkpt lat="45.562244653701782" lon="10.910293450579047">
        <ele>565.32000000000005</ele>
        <time>2021-10-31T11:01:02Z</time>
      </trkpt>
      <trkpt lat="45.562207857146859" lon="10.910262437537313">
        <ele>565.25999999999999</ele>
        <time>2021-10-31T11:01:09Z</time>
      </trkpt>
      <trkpt lat="45.562184471637011" lon="10.910189263522625">
        <ele>565.19000000000005</ele>
        <time>2021-10-31T11:01:17Z</time>
      </trkpt>
      <trkpt lat="45.562193524092436" lon="10.910183731466532">
        <ele>565.51999999999998</ele>
        <time>2021-10-31T11:01:28Z</time>
      </trkpt>
      <trkpt lat="45.562192182987928" lon="10.910180043429136">
        <ele>565.74000000000001</ele>
        <time>2021-10-31T11:01:46Z</time>
      </trkpt>
      <trkpt lat="45.562193691730499" lon="10.910177696496248">
        <ele>565.77999999999997</ele>
        <time>2021-10-31T11:02:15Z</time>
      </trkpt>
      <trkpt lat="45.562196122482419" lon="10.910182222723961">
        <ele>565.90999999999997</ele>
        <time>2021-10-31T11:02:48Z</time>
      </trkpt>
      <trkpt lat="45.562188578769565" lon="10.910182725638151">
        <ele>565.90999999999997</ele>
        <time>2021-10-31T11:03:01Z</time>
      </trkpt>
      <trkpt lat="45.562177849933505" lon="10.910187754780054">
        <ele>565.90999999999997</ele>
        <time>2021-10-31T11:03:25Z</time>
      </trkpt>
      <trkpt lat="45.562155721709132" lon="10.910187168046832">
        <ele>565.90999999999997</ele>
        <time>2021-10-31T11:03:33Z</time>
      </trkpt>
      <trkpt lat="45.562161253765225" lon="10.910185659304261">
        <ele>565.90999999999997</ele>
        <time>2021-10-31T11:03:59Z</time>
      </trkpt>
      <trkpt lat="45.562166031450033" lon="10.910199154168367">
        <ele>565.90999999999997</ele>
        <time>2021-10-31T11:04:09Z</time>
      </trkpt>
      <trkpt lat="45.562175838276744" lon="10.910179289057851">
        <ele>565.90999999999997</ele>
        <time>2021-10-31T11:04:28Z</time>
      </trkpt>
      <trkpt lat="45.562187992036343" lon="10.910171158611774">
        <ele>565.90999999999997</ele>
        <time>2021-10-31T11:04:44Z</time>
      </trkpt>
      <trkpt lat="45.562171563506126" lon="10.910189934074879">
        <ele>565.90999999999997</ele>
        <time>2021-10-31T11:05:09Z</time>
      </trkpt>
      <trkpt lat="45.562168965116143" lon="10.910186329856515">
        <ele>565.90999999999997</ele>
        <time>2021-10-31T11:05:40Z</time>
      </trkpt>
      <trkpt lat="45.562161421403289" lon="10.910182390362024">
        <ele>565.90999999999997</ele>
        <time>2021-10-31T11:06:12Z</time>
      </trkpt>
      <trkpt lat="45.562170641496778" lon="10.910173840820789">
        <ele>565.90999999999997</ele>
        <time>2021-10-31T11:06:22Z</time>
      </trkpt>
      <trkpt lat="45.562148680910468" lon="10.910148695111275">
        <ele>565.90999999999997</ele>
        <time>2021-10-31T11:06:29Z</time>
      </trkpt>
      <trkpt lat="45.562100149691105" lon="10.910070827230811">
        <ele>565.90999999999997</ele>
        <time>2021-10-31T11:06:40Z</time>
      </trkpt>
      <trkpt lat="45.562042649835348" lon="10.909974183887243">
        <ele>566.42999999999995</ele>
        <time>2021-10-31T11:06:51Z</time>
      </trkpt>
      <trkpt lat="45.56199093349278" lon="10.909883743152022">
        <ele>566.70000000000005</ele>
        <time>2021-10-31T11:07:01Z</time>
      </trkpt>
      <trkpt lat="45.561937876045704" lon="10.909835295751691">
        <ele>567.05999999999995</ele>
        <time>2021-10-31T11:07:13Z</time>
      </trkpt>
      <trkpt lat="45.56193326599896" lon="10.909846276044846">
        <ele>566.79999999999995</ele>
        <time>2021-10-31T11:07:25Z</time>
      </trkpt>
      <trkpt lat="45.561920693144202" lon="10.909838564693928">
        <ele>566.78999999999996</ele>
        <time>2021-10-31T11:07:42Z</time>
      </trkpt>
      <trkpt lat="45.56188247166574" lon="10.909810988232493">
        <ele>566.60000000000002</ele>
        <time>2021-10-31T11:07:50Z</time>
      </trkpt>
      <trkpt lat="45.561817595735192" lon="10.909737646579742">
        <ele>565.75999999999999</ele>
        <time>2021-10-31T11:08:00Z</time>
      </trkpt>
      <trkpt lat="45.561810387298465" lon="10.909729599952698">
        <ele>565.67999999999995</ele>
        <time>2021-10-31T11:08:01Z</time>
      </trkpt>
      <trkpt lat="45.561802592128515" lon="10.909719876945019">
        <ele>565.60000000000002</ele>
        <time>2021-10-31T11:08:02Z</time>
      </trkpt>
      <trkpt lat="45.561730759218335" lon="10.909639662131667">
        <ele>565.41999999999996</ele>
        <time>2021-10-31T11:08:11Z</time>
      </trkpt>
      <trkpt lat="45.561655070632696" lon="10.909564225003123">
        <ele>565.41999999999996</ele>
        <time>2021-10-31T11:08:21Z</time>
      </trkpt>
      <trkpt lat="45.561572257429361" lon="10.909465067088604">
        <ele>565.27999999999997</ele>
        <time>2021-10-31T11:08:32Z</time>
      </trkpt>
      <trkpt lat="45.561499586328864" lon="10.909382253885269">
        <ele>565.54999999999995</ele>
        <time>2021-10-31T11:08:42Z</time>
      </trkpt>
      <trkpt lat="45.561444684863091" lon="10.909311175346375">
        <ele>565.53999999999996</ele>
        <time>2021-10-31T11:08:51Z</time>
      </trkpt>
      <trkpt lat="45.561379976570606" lon="10.909217046573758">
        <ele>565.12</ele>
        <time>2021-10-31T11:09:01Z</time>
      </trkpt>
      <trkpt lat="45.561335552483797" lon="10.909086037427187">
        <ele>564.79999999999995</ele>
        <time>2021-10-31T11:09:12Z</time>
      </trkpt>
      <trkpt lat="45.561332618817687" lon="10.909073129296303">
        <ele>564.79999999999995</ele>
        <time>2021-10-31T11:09:13Z</time>
      </trkpt>
      <trkpt lat="45.561309987679124" lon="10.908921333029866">
        <ele>564.49000000000001</ele>
        <time>2021-10-31T11:09:24Z</time>
      </trkpt>
      <trkpt lat="45.561290960758924" lon="10.908752270042896">
        <ele>564.15999999999997</ele>
        <time>2021-10-31T11:09:36Z</time>
      </trkpt>
      <trkpt lat="45.561254834756255" lon="10.908651938661933">
        <ele>563.72000000000003</ele>
        <time>2021-10-31T11:09:46Z</time>
      </trkpt>
      <trkpt lat="45.56121937930584" lon="10.90858438052237">
        <ele>562.98000000000002</ele>
        <time>2021-10-31T11:09:52Z</time>
      </trkpt>
      <trkpt lat="45.561167076230049" lon="10.908462759107351">
        <ele>561.58000000000004</ele>
        <time>2021-10-31T11:10:03Z</time>
      </trkpt>
      <trkpt lat="45.561120389029384" lon="10.90836058370769">
        <ele>560.69000000000005</ele>
        <time>2021-10-31T11:10:13Z</time>
      </trkpt>
      <trkpt lat="45.561080826446414" lon="10.90827458538115">
        <ele>559.94000000000005</ele>
        <time>2021-10-31T11:10:23Z</time>
      </trkpt>
      <trkpt lat="45.561039922758937" lon="10.908185485750437">
        <ele>559.40999999999997</ele>
        <time>2021-10-31T11:10:32Z</time>
      </trkpt>
      <trkpt lat="45.561015028506517" lon="10.908144498243928">
        <ele>558.97000000000003</ele>
        <time>2021-10-31T11:10:36Z</time>
      </trkpt>
      <trkpt lat="45.560939591377974" lon="10.908041819930077">
        <ele>557.99000000000001</ele>
        <time>2021-10-31T11:10:48Z</time>
      </trkpt>
      <trkpt lat="45.560871697962284" lon="10.907965879887342">
        <ele>556.98000000000002</ele>
        <time>2021-10-31T11:10:57Z</time>
      </trkpt>
      <trkpt lat="45.560780586674809" lon="10.907888934016228">
        <ele>555.87</ele>
        <time>2021-10-31T11:11:08Z</time>
      </trkpt>
      <trkpt lat="45.5607068259269" lon="10.907822968438268">
        <ele>555.12</ele>
        <time>2021-10-31T11:11:18Z</time>
      </trkpt>
      <trkpt lat="45.560634154826403" lon="10.907768737524748">
        <ele>554.27999999999997</ele>
        <time>2021-10-31T11:11:28Z</time>
      </trkpt>
      <trkpt lat="45.560564082115889" lon="10.907722972333431">
        <ele>553.19000000000005</ele>
        <time>2021-10-31T11:11:37Z</time>
      </trkpt>
      <trkpt lat="45.560496272519231" lon="10.907649882137775">
        <ele>551.63</ele>
        <time>2021-10-31T11:11:47Z</time>
      </trkpt>
      <trkpt lat="45.560441873967648" lon="10.907576456665993">
        <ele>550.22000000000003</ele>
        <time>2021-10-31T11:11:55Z</time>
      </trkpt>
      <trkpt lat="45.560380686074495" lon="10.907519375905395">
        <ele>549.08000000000004</ele>
        <time>2021-10-31T11:12:04Z</time>
      </trkpt>
      <trkpt lat="45.560356546193361" lon="10.907492469996214">
        <ele>548.64999999999998</ele>
        <time>2021-10-31T11:12:08Z</time>
      </trkpt>
      <trkpt lat="45.560309858992696" lon="10.907445447519422">
        <ele>548.10000000000002</ele>
        <time>2021-10-31T11:12:13Z</time>
      </trkpt>
      <trkpt lat="45.560299381613731" lon="10.907421642914414">
        <ele>547.76999999999998</ele>
        <time>2021-10-31T11:12:15Z</time>
      </trkpt>
      <trkpt lat="45.560305081307888" lon="10.907347463071346">
        <ele>547.02999999999997</ele>
        <time>2021-10-31T11:12:20Z</time>
      </trkpt>
      <trkpt lat="45.560314888134599" lon="10.907335225492716">
        <ele>546.91999999999996</ele>
        <time>2021-10-31T11:12:21Z</time>
      </trkpt>
      <trkpt lat="45.560424271970987" lon="10.907252077013254">
        <ele>545.97000000000003</ele>
        <time>2021-10-31T11:12:33Z</time>
      </trkpt>
      <trkpt lat="45.560502558946609" lon="10.907222321256995">
        <ele>545.85000000000002</ele>
        <time>2021-10-31T11:12:41Z</time>
      </trkpt>
      <trkpt lat="45.560621246695518" lon="10.907185943797231">
        <ele>545.51999999999998</ele>
        <time>2021-10-31T11:12:54Z</time>
      </trkpt>
      <trkpt lat="45.560629963874817" lon="10.907182423397899">
        <ele>545.48000000000002</ele>
        <time>2021-10-31T11:12:55Z</time>
      </trkpt>
      <trkpt lat="45.560640189796686" lon="10.907178483903408">
        <ele>545.47000000000003</ele>
        <time>2021-10-31T11:12:56Z</time>
      </trkpt>
      <trkpt lat="45.560671286657453" lon="10.907169179990888">
        <ele>545.38</ele>
        <time>2021-10-31T11:12:59Z</time>
      </trkpt>
      <trkpt lat="45.560783185064793" lon="10.907152332365513">
        <ele>545.13</ele>
        <time>2021-10-31T11:13:10Z</time>
      </trkpt>
      <trkpt lat="45.56084998883307" lon="10.907145878300071">
        <ele>545.07000000000005</ele>
        <time>2021-10-31T11:13:18Z</time>
      </trkpt>
      <trkpt lat="45.560859376564622" lon="10.907147638499737">
        <ele>545.09000000000003</ele>
        <time>2021-10-31T11:13:19Z</time>
      </trkpt>
      <trkpt lat="45.560870440676808" lon="10.907145459204912">
        <ele>545.09000000000003</ele>
        <time>2021-10-31T11:13:20Z</time>
      </trkpt>
      <trkpt lat="45.560880834236741" lon="10.907141687348485">
        <ele>545.09000000000003</ele>
        <time>2021-10-31T11:13:21Z</time>
      </trkpt>
      <trkpt lat="45.560890473425388" lon="10.907137496396899">
        <ele>545.09000000000003</ele>
        <time>2021-10-31T11:13:22Z</time>
      </trkpt>
      <trkpt lat="45.560900531709194" lon="10.90713263489306">
        <ele>545.08000000000004</ele>
        <time>2021-10-31T11:13:23Z</time>
      </trkpt>
      <trkpt lat="45.56091109290719" lon="10.907128192484379">
        <ele>545.08000000000004</ele>
        <time>2021-10-31T11:13:24Z</time>
      </trkpt>
      <trkpt lat="45.560920648276806" lon="10.907123917713761">
        <ele>545.05999999999995</ele>
        <time>2021-10-31T11:13:25Z</time>
      </trkpt>
      <trkpt lat="45.561018632724881" lon="10.907120984047651">
        <ele>544.99000000000001</ele>
        <time>2021-10-31T11:13:35Z</time>
      </trkpt>
      <trkpt lat="45.561019470915198" lon="10.90709307231009">
        <ele>545.07000000000005</ele>
        <time>2021-10-31T11:13:42Z</time>
      </trkpt>
      <trkpt lat="45.561050651594996" lon="10.907084690406919">
        <ele>545.15999999999997</ele>
        <time>2021-10-31T11:13:56Z</time>
      </trkpt>
      <trkpt lat="45.561063643544912" lon="10.907091228291392">
        <ele>545.27999999999997</ele>
        <time>2021-10-31T11:14:08Z</time>
      </trkpt>
      <trkpt lat="45.561072947457433" lon="10.907119559124112">
        <ele>545.30999999999995</ele>
        <time>2021-10-31T11:14:23Z</time>
      </trkpt>
      <trkpt lat="45.561067163944244" lon="10.907132048159838">
        <ele>545.49000000000001</ele>
        <time>2021-10-31T11:14:36Z</time>
      </trkpt>
      <trkpt lat="45.561090968549252" lon="10.907137831673026">
        <ele>545.27999999999997</ele>
        <time>2021-10-31T11:14:53Z</time>
      </trkpt>
      <trkpt lat="45.561134973540902" lon="10.90712433680892">
        <ele>545.27999999999997</ele>
        <time>2021-10-31T11:14:58Z</time>
      </trkpt>
      <trkpt lat="45.561148384585977" lon="10.907119223847985">
        <ele>545.27999999999997</ele>
        <time>2021-10-31T11:15:00Z</time>
      </trkpt>
      <trkpt lat="45.561217116191983" lon="10.907052671536803">
        <ele>545.27999999999997</ele>
        <time>2021-10-31T11:15:09Z</time>
      </trkpt>
      <trkpt lat="45.561200520023704" lon="10.907004559412599">
        <ele>545.11000000000001</ele>
        <time>2021-10-31T11:15:16Z</time>
      </trkpt>
      <trkpt lat="45.561106558889151" lon="10.907034063711762">
        <ele>544.32000000000005</ele>
        <time>2021-10-31T11:15:26Z</time>
      </trkpt>
      <trkpt lat="45.56109624914825" lon="10.907037081196904">
        <ele>544.16999999999996</ele>
        <time>2021-10-31T11:15:27Z</time>
      </trkpt>
      <trkpt lat="45.561005054041743" lon="10.907062478363514">
        <ele>543.17999999999995</ele>
        <time>2021-10-31T11:15:36Z</time>
      </trkpt>
      <trkpt lat="45.560906063765287" lon="10.907073374837637">
        <ele>541.89999999999998</ele>
        <time>2021-10-31T11:15:46Z</time>
      </trkpt>
      <trkpt lat="45.560806235298514" lon="10.907068848609924">
        <ele>540.84000000000003</ele>
        <time>2021-10-31T11:15:56Z</time>
      </trkpt>
      <trkpt lat="45.560720320791006" lon="10.907067423686385">
        <ele>539.92999999999995</ele>
        <time>2021-10-31T11:16:04Z</time>
      </trkpt>
      <trkpt lat="45.560628958046436" lon="10.907059544697404">
        <ele>538.74000000000001</ele>
        <time>2021-10-31T11:16:14Z</time>
      </trkpt>
      <trkpt lat="45.560526447370648" lon="10.907056359574199">
        <ele>537.60000000000002</ele>
        <time>2021-10-31T11:16:24Z</time>
      </trkpt>
      <trkpt lat="45.560443047434092" lon="10.907066166400909">
        <ele>536.54999999999995</ele>
        <time>2021-10-31T11:16:33Z</time>
      </trkpt>
      <trkpt lat="45.560319665819407" lon="10.907065328210592">
        <ele>535.03999999999996</ele>
        <time>2021-10-31T11:16:45Z</time>
      </trkpt>
      <trkpt lat="45.560222268104553" lon="10.907079828903079">
        <ele>533.94000000000005</ele>
        <time>2021-10-31T11:16:54Z</time>
      </trkpt>
      <trkpt lat="45.560127887874842" lon="10.907066920772195">
        <ele>532.83000000000004</ele>
        <time>2021-10-31T11:17:03Z</time>
      </trkpt>
      <trkpt lat="45.560070723295212" lon="10.907052587717772">
        <ele>531.75</ele>
        <time>2021-10-31T11:17:11Z</time>
      </trkpt>
      <trkpt lat="45.559989083558321" lon="10.907036494463682">
        <ele>530.76999999999998</ele>
        <time>2021-10-31T11:17:20Z</time>
      </trkpt>
      <trkpt lat="45.559911048039794" lon="10.907044289633632">
        <ele>530.07000000000005</ele>
        <time>2021-10-31T11:17:27Z</time>
      </trkpt>
      <trkpt lat="45.559879951179028" lon="10.907043619081378">
        <ele>529.61000000000001</ele>
        <time>2021-10-31T11:17:30Z</time>
      </trkpt>
      <trkpt lat="45.559810129925609" lon="10.90705594047904">
        <ele>528.86000000000001</ele>
        <time>2021-10-31T11:17:37Z</time>
      </trkpt>
      <trkpt lat="45.559695549309254" lon="10.907128779217601">
        <ele>527.69000000000005</ele>
        <time>2021-10-31T11:17:48Z</time>
      </trkpt>
      <trkpt lat="45.559599157422781" lon="10.907251322641969">
        <ele>526.13999999999999</ele>
        <time>2021-10-31T11:18:00Z</time>
      </trkpt>
      <trkpt lat="45.559558672830462" lon="10.907435724511743">
        <ele>524.45000000000005</ele>
        <time>2021-10-31T11:18:13Z</time>
      </trkpt>
      <trkpt lat="45.55956294760108" lon="10.907492553815246">
        <ele>524.04999999999995</ele>
        <time>2021-10-31T11:18:17Z</time>
      </trkpt>
      <trkpt lat="45.559593457728624" lon="10.907615181058645">
        <ele>522.89999999999998</ele>
        <time>2021-10-31T11:18:27Z</time>
      </trkpt>
      <trkpt lat="45.559597732499242" lon="10.907628424465656">
        <ele>522.83000000000004</ele>
        <time>2021-10-31T11:18:28Z</time>
      </trkpt>
      <trkpt lat="45.559677444398403" lon="10.90779036283493">
        <ele>521.51999999999998</ele>
        <time>2021-10-31T11:18:42Z</time>
      </trkpt>
      <trkpt lat="45.559742068871856" lon="10.907918438315392">
        <ele>520.51999999999998</ele>
        <time>2021-10-31T11:18:53Z</time>
      </trkpt>
      <trkpt lat="45.559806022793055" lon="10.908019356429577">
        <ele>519.63</ele>
        <time>2021-10-31T11:19:03Z</time>
      </trkpt>
      <trkpt lat="45.559889171272516" lon="10.908143995329738">
        <ele>518.39999999999998</ele>
        <time>2021-10-31T11:19:15Z</time>
      </trkpt>
      <trkpt lat="45.559952454641461" lon="10.908237537369132">
        <ele>517.35000000000002</ele>
        <time>2021-10-31T11:19:24Z</time>
      </trkpt>
      <trkpt lat="45.560028478503227" lon="10.90837231837213">
        <ele>515.55999999999995</ele>
        <time>2021-10-31T11:19:36Z</time>
      </trkpt>
      <trkpt lat="45.560087068006396" lon="10.908477259799838">
        <ele>514.26999999999998</ele>
        <time>2021-10-31T11:19:45Z</time>
      </trkpt>
      <trkpt lat="45.560126295313239" lon="10.908665182068944">
        <ele>511.63999999999999</ele>
        <time>2021-10-31T11:19:58Z</time>
      </trkpt>
      <trkpt lat="45.560106933116913" lon="10.908809350803494">
        <ele>509.76999999999998</ele>
        <time>2021-10-31T11:20:08Z</time>
      </trkpt>
      <trkpt lat="45.560061419382691" lon="10.908954022452235">
        <ele>507.29000000000002</ele>
        <time>2021-10-31T11:20:19Z</time>
      </trkpt>
      <trkpt lat="45.559996291995049" lon="10.909064244478941">
        <ele>505.10000000000002</ele>
        <time>2021-10-31T11:20:29Z</time>
      </trkpt>
      <trkpt lat="45.559910880401731" lon="10.909190056845546">
        <ele>502.83999999999997</ele>
        <time>2021-10-31T11:20:41Z</time>
      </trkpt>
      <trkpt lat="45.559857739135623" lon="10.90927236713469">
        <ele>501.26999999999998</ele>
        <time>2021-10-31T11:20:51Z</time>
      </trkpt>
      <trkpt lat="45.559793785214424" lon="10.909371944144368">
        <ele>499.68000000000001</ele>
        <time>2021-10-31T11:21:01Z</time>
      </trkpt>
      <trkpt lat="45.559757156297565" lon="10.90943799354136">
        <ele>498.62</ele>
        <time>2021-10-31T11:21:08Z</time>
      </trkpt>
      <trkpt lat="45.559703428298235" lon="10.909585431218147">
        <ele>496.70999999999998</ele>
        <time>2021-10-31T11:21:20Z</time>
      </trkpt>
      <trkpt lat="45.559680461883545" lon="10.909722140058875">
        <ele>495.5</ele>
        <time>2021-10-31T11:21:29Z</time>
      </trkpt>
      <trkpt lat="45.559676522389054" lon="10.909857172518969">
        <ele>494.06</ele>
        <time>2021-10-31T11:21:39Z</time>
      </trkpt>
      <trkpt lat="45.559676857665181" lon="10.909916767850518">
        <ele>493.39999999999998</ele>
        <time>2021-10-31T11:21:43Z</time>
      </trkpt>
      <trkpt lat="45.55967828258872" lon="10.910077029839158">
        <ele>491.82999999999998</ele>
        <time>2021-10-31T11:21:54Z</time>
      </trkpt>
      <trkpt lat="45.559674594551325" lon="10.910217678174376">
        <ele>490.81</ele>
        <time>2021-10-31T11:22:04Z</time>
      </trkpt>
      <trkpt lat="45.559674762189388" lon="10.910405516624451">
        <ele>489.22000000000003</ele>
        <time>2021-10-31T11:22:17Z</time>
      </trkpt>
      <trkpt lat="45.559638384729624" lon="10.910584218800068">
        <ele>487.44999999999999</ele>
        <time>2021-10-31T11:22:30Z</time>
      </trkpt>
      <trkpt lat="45.559612233191729" lon="10.910629061982036">
        <ele>486.91000000000003</ele>
        <time>2021-10-31T11:22:34Z</time>
      </trkpt>
      <trkpt lat="45.559603432193398" lon="10.910640293732285">
        <ele>486.75999999999999</ele>
        <time>2021-10-31T11:22:35Z</time>
      </trkpt>
      <trkpt lat="45.559594295918941" lon="10.910649849101901">
        <ele>486.64999999999998</ele>
        <time>2021-10-31T11:22:36Z</time>
      </trkpt>
      <trkpt lat="45.55948281660676" lon="10.910804243758321">
        <ele>484.08999999999997</ele>
        <time>2021-10-31T11:22:51Z</time>
      </trkpt>
      <trkpt lat="45.559402517974377" lon="10.910965092480183">
        <ele>482.13</ele>
        <time>2021-10-31T11:23:04Z</time>
      </trkpt>
      <trkpt lat="45.559341749176383" lon="10.911118732765317">
        <ele>480.41000000000003</ele>
        <time>2021-10-31T11:23:15Z</time>
      </trkpt>
      <trkpt lat="45.559285925701261" lon="10.911315456032753">
        <ele>478.67000000000002</ele>
        <time>2021-10-31T11:23:29Z</time>
      </trkpt>
      <trkpt lat="45.559284668415785" lon="10.911366920918226">
        <ele>477.57999999999998</ele>
        <time>2021-10-31T11:23:39Z</time>
      </trkpt>
      <trkpt lat="45.559278968721628" lon="10.911391898989677">
        <ele>477.38</ele>
        <time>2021-10-31T11:23:48Z</time>
      </trkpt>
      <trkpt lat="45.55926782079041" lon="10.911406399682164">
        <ele>477.30000000000001</ele>
        <time>2021-10-31T11:23:49Z</time>
      </trkpt>
      <trkpt lat="45.559255164116621" lon="10.91141989454627">
        <ele>477.25999999999999</ele>
        <time>2021-10-31T11:23:50Z</time>
      </trkpt>
      <trkpt lat="45.559242339804769" lon="10.911428779363632">
        <ele>477.22000000000003</ele>
        <time>2021-10-31T11:23:51Z</time>
      </trkpt>
      <trkpt lat="45.559188276529312" lon="10.911438670009375">
        <ele>476.88999999999999</ele>
        <time>2021-10-31T11:23:57Z</time>
      </trkpt>
      <trkpt lat="45.559169417247176" lon="10.911432886496186">
        <ele>476.76999999999998</ele>
        <time>2021-10-31T11:23:59Z</time>
      </trkpt>
      <trkpt lat="45.559081323444843" lon="10.911405393853784">
        <ele>476.31</ele>
        <time>2021-10-31T11:24:08Z</time>
      </trkpt>
      <trkpt lat="45.559007897973061" lon="10.911374129354954">
        <ele>475.81999999999999</ele>
        <time>2021-10-31T11:24:16Z</time>
      </trkpt>
      <trkpt lat="45.558899855241179" lon="10.911312522366643">
        <ele>474.99000000000001</ele>
        <time>2021-10-31T11:24:28Z</time>
      </trkpt>
      <trkpt lat="45.558820897713304" lon="10.911231720820069">
        <ele>474.39999999999998</ele>
        <time>2021-10-31T11:24:39Z</time>
      </trkpt>
      <trkpt lat="45.558722661808133" lon="10.911117726936936">
        <ele>473.67000000000002</ele>
        <time>2021-10-31T11:24:50Z</time>
      </trkpt>
      <trkpt lat="45.55870296433568" lon="10.911096688359976">
        <ele>473.51999999999998</ele>
        <time>2021-10-31T11:24:52Z</time>
      </trkpt>
      <trkpt lat="45.558628616854548" lon="10.910975066944957">
        <ele>472.38</ele>
        <time>2021-10-31T11:25:04Z</time>
      </trkpt>
      <trkpt lat="45.55854806676507" lon="10.911002978682518">
        <ele>471.61000000000001</ele>
        <time>2021-10-31T11:25:15Z</time>
      </trkpt>
      <trkpt lat="45.558534152805805" lon="10.911010773852468">
        <ele>471.19</ele>
        <time>2021-10-31T11:25:24Z</time>
      </trkpt>
      <trkpt lat="45.558541864156723" lon="10.911028627306223">
        <ele>471.12</ele>
        <time>2021-10-31T11:25:40Z</time>
      </trkpt>
      <trkpt lat="45.558538679033518" lon="10.911077661439776">
        <ele>471.12</ele>
        <time>2021-10-31T11:25:47Z</time>
      </trkpt>
      <trkpt lat="45.558529123663902" lon="10.911067686975002">
        <ele>471.13</ele>
        <time>2021-10-31T11:26:06Z</time>
      </trkpt>
      <trkpt lat="45.558544043451548" lon="10.911046229302883">
        <ele>471.07999999999998</ele>
        <time>2021-10-31T11:26:17Z</time>
      </trkpt>
      <trkpt lat="45.558547647669911" lon="10.911025274544954">
        <ele>471.36000000000001</ele>
        <time>2021-10-31T11:26:25Z</time>
      </trkpt>
      <trkpt lat="45.55853733792901" lon="10.911032147705555">
        <ele>471.37</ele>
        <time>2021-10-31T11:26:31Z</time>
      </trkpt>
      <trkpt lat="45.558523423969746" lon="10.911064082756639">
        <ele>471.37</ele>
        <time>2021-10-31T11:26:34Z</time>
      </trkpt>
      <trkpt lat="45.558516634628177" lon="10.911077493801713">
        <ele>471.38</ele>
        <time>2021-10-31T11:26:35Z</time>
      </trkpt>
      <trkpt lat="45.558457961305976" lon="10.91116139665246">
        <ele>471.07999999999998</ele>
        <time>2021-10-31T11:26:44Z</time>
      </trkpt>
      <trkpt lat="45.558447986841202" lon="10.91117212548852">
        <ele>471</ele>
        <time>2021-10-31T11:26:46Z</time>
      </trkpt>
      <trkpt lat="45.558421248570085" lon="10.911202551797032">
        <ele>470.82999999999998</ele>
        <time>2021-10-31T11:26:49Z</time>
      </trkpt>
      <trkpt lat="45.558409262448549" lon="10.911207748576999">
        <ele>470.74000000000001</ele>
        <time>2021-10-31T11:26:50Z</time>
      </trkpt>
      <trkpt lat="45.55833843536675" lon="10.911264577880502">
        <ele>470.36000000000001</ele>
        <time>2021-10-31T11:26:58Z</time>
      </trkpt>
      <trkpt lat="45.558330053463578" lon="10.911275474354625">
        <ele>470.33999999999997</ele>
        <time>2021-10-31T11:26:59Z</time>
      </trkpt>
      <trkpt lat="45.558234918862581" lon="10.911379577592015">
        <ele>469.56999999999999</ele>
        <time>2021-10-31T11:27:09Z</time>
      </trkpt>
      <trkpt lat="45.558148249983788" lon="10.911456774920225">
        <ele>468.68000000000001</ele>
        <time>2021-10-31T11:27:18Z</time>
      </trkpt>
      <trkpt lat="45.558084296062589" lon="10.911546126008034">
        <ele>467.93000000000001</ele>
        <time>2021-10-31T11:27:27Z</time>
      </trkpt>
      <trkpt lat="45.55802134796977" lon="10.911653246730566">
        <ele>466.94</ele>
        <time>2021-10-31T11:27:37Z</time>
      </trkpt>
      <trkpt lat="45.558064263314009" lon="10.911790123209357">
        <ele>466.05000000000001</ele>
        <time>2021-10-31T11:27:48Z</time>
      </trkpt>
      <trkpt lat="45.558096282184124" lon="10.911950133740902">
        <ele>465.25999999999999</ele>
        <time>2021-10-31T11:28:00Z</time>
      </trkpt>
      <trkpt lat="45.558140957728028" lon="10.912137720733881">
        <ele>463.61000000000001</ele>
        <time>2021-10-31T11:28:14Z</time>
      </trkpt>
      <trkpt lat="45.55821186862886" lon="10.912268562242389">
        <ele>462.33999999999997</ele>
        <time>2021-10-31T11:28:26Z</time>
      </trkpt>
      <trkpt lat="45.558274649083614" lon="10.91233947314322">
        <ele>461.57999999999998</ele>
        <time>2021-10-31T11:28:36Z</time>
      </trkpt>
      <trkpt lat="45.558369029313326" lon="10.912389094009995">
        <ele>461.16000000000003</ele>
        <time>2021-10-31T11:28:46Z</time>
      </trkpt>
      <trkpt lat="45.558438263833523" lon="10.912407282739878">
        <ele>461.16000000000003</ele>
        <time>2021-10-31T11:28:54Z</time>
      </trkpt>
      <trkpt lat="45.558430133387446" lon="10.912416251376271">
        <ele>461.16000000000003</ele>
        <time>2021-10-31T11:29:02Z</time>
      </trkpt>
      <trkpt lat="45.558420578017831" lon="10.912423375993967">
        <ele>461.17000000000002</ele>
        <time>2021-10-31T11:29:03Z</time>
      </trkpt>
      <trkpt lat="45.558410519734025" lon="10.912429243326187">
        <ele>461.19</ele>
        <time>2021-10-31T11:29:04Z</time>
      </trkpt>
      <trkpt lat="45.558399874716997" lon="10.912432093173265">
        <ele>461.19</ele>
        <time>2021-10-31T11:29:05Z</time>
      </trkpt>
      <trkpt lat="45.558388726785779" lon="10.912432176992297">
        <ele>461.19</ele>
        <time>2021-10-31T11:29:06Z</time>
      </trkpt>
      <trkpt lat="45.558377327397466" lon="10.912429075688124">
        <ele>461.17000000000002</ele>
        <time>2021-10-31T11:29:07Z</time>
      </trkpt>
      <trkpt lat="45.558324353769422" lon="10.912389680743217">
        <ele>461.07999999999998</ele>
        <time>2021-10-31T11:29:14Z</time>
      </trkpt>
      <trkpt lat="45.558310858905315" lon="10.912371994927526">
        <ele>461.23000000000002</ele>
        <time>2021-10-31T11:29:21Z</time>
      </trkpt>
      <trkpt lat="45.558304740116" lon="10.912383059039712">
        <ele>461.25</ele>
        <time>2021-10-31T11:29:31Z</time>
      </trkpt>
      <trkpt lat="45.558306416496634" lon="10.91237953864038">
        <ele>461.30000000000001</ele>
        <time>2021-10-31T11:29:53Z</time>
      </trkpt>
      <trkpt lat="45.558307589963078" lon="10.912381550297141">
        <ele>461.30000000000001</ele>
        <time>2021-10-31T11:30:23Z</time>
      </trkpt>
      <trkpt lat="45.558308679610491" lon="10.912381131201982">
        <ele>461.30000000000001</ele>
        <time>2021-10-31T11:30:49Z</time>
      </trkpt>
      <trkpt lat="45.558309853076935" lon="10.912386663258076">
        <ele>461.30000000000001</ele>
        <time>2021-10-31T11:31:05Z</time>
      </trkpt>
      <trkpt lat="45.558304656296968" lon="10.912439050152898">
        <ele>461.30000000000001</ele>
        <time>2021-10-31T11:31:13Z</time>
      </trkpt>
      <trkpt lat="45.558321671560407" lon="10.912577351555228">
        <ele>460.91000000000003</ele>
        <time>2021-10-31T11:31:25Z</time>
      </trkpt>
      <trkpt lat="45.558323850855231" lon="10.912591265514493">
        <ele>460.80000000000001</ele>
        <time>2021-10-31T11:31:26Z</time>
      </trkpt>
      <trkpt lat="45.55833893828094" lon="10.912764770910144">
        <ele>459.83999999999997</ele>
        <time>2021-10-31T11:31:39Z</time>
      </trkpt>
      <trkpt lat="45.558336591348052" lon="10.912911370396614">
        <ele>459.29000000000002</ele>
        <time>2021-10-31T11:31:50Z</time>
      </trkpt>
      <trkpt lat="45.558332735672593" lon="10.913032656535506">
        <ele>458.70999999999998</ele>
        <time>2021-10-31T11:31:59Z</time>
      </trkpt>
      <trkpt lat="45.558330556377769" lon="10.913171796128154">
        <ele>457.94999999999999</ele>
        <time>2021-10-31T11:32:09Z</time>
      </trkpt>
      <trkpt lat="45.558326784521341" lon="10.913372626528144">
        <ele>456.56999999999999</ele>
        <time>2021-10-31T11:32:23Z</time>
      </trkpt>
      <trkpt lat="45.558294430375099" lon="10.913569685071707">
        <ele>454.81</ele>
        <time>2021-10-31T11:32:37Z</time>
      </trkpt>
      <trkpt lat="45.558249419555068" lon="10.913740172982216">
        <ele>453.23000000000002</ele>
        <time>2021-10-31T11:32:50Z</time>
      </trkpt>
      <trkpt lat="45.558277498930693" lon="10.913855256512761">
        <ele>451.85000000000002</ele>
        <time>2021-10-31T11:33:00Z</time>
      </trkpt>
      <trkpt lat="45.558364670723677" lon="10.913892136886716">
        <ele>450.33999999999997</ele>
        <time>2021-10-31T11:33:11Z</time>
      </trkpt>
      <trkpt lat="45.55840783752501" lon="10.913906386122108">
        <ele>449.5</ele>
        <time>2021-10-31T11:33:16Z</time>
      </trkpt>
      <trkpt lat="45.558498948812485" lon="10.913954162970185">
        <ele>448.17000000000002</ele>
        <time>2021-10-31T11:33:26Z</time>
      </trkpt>
      <trkpt lat="45.558561393991113" lon="10.914063127711415">
        <ele>447.01999999999998</ele>
        <time>2021-10-31T11:33:36Z</time>
      </trkpt>
      <trkpt lat="45.558610260486603" lon="10.914193550124764">
        <ele>445.41000000000003</ele>
        <time>2021-10-31T11:33:47Z</time>
      </trkpt>
      <trkpt lat="45.558659043163061" lon="10.914294384419918">
        <ele>444.16000000000003</ele>
        <time>2021-10-31T11:33:56Z</time>
      </trkpt>
      <trkpt lat="45.558743281289935" lon="10.914420196786523">
        <ele>442.74000000000001</ele>
        <time>2021-10-31T11:34:08Z</time>
      </trkpt>
      <trkpt lat="45.558767421171069" lon="10.914441235363483">
        <ele>442.54000000000002</ele>
        <time>2021-10-31T11:34:11Z</time>
      </trkpt>
      <trkpt lat="45.558776473626494" lon="10.914447689428926">
        <ele>442.36000000000001</ele>
        <time>2021-10-31T11:34:12Z</time>
      </trkpt>
      <trkpt lat="45.5588832590729" lon="10.91453829780221">
        <ele>440.67000000000002</ele>
        <time>2021-10-31T11:34:25Z</time>
      </trkpt>
      <trkpt lat="45.558959785848856" lon="10.914604431018233">
        <ele>439.26999999999998</ele>
        <time>2021-10-31T11:34:35Z</time>
      </trkpt>
      <trkpt lat="45.55904058739543" lon="10.914668049663305">
        <ele>437.91000000000003</ele>
        <time>2021-10-31T11:34:45Z</time>
      </trkpt>
      <trkpt lat="45.559151647612453" lon="10.91475136578083">
        <ele>436.38999999999999</ele>
        <time>2021-10-31T11:34:58Z</time>
      </trkpt>
      <trkpt lat="45.559274023398757" lon="10.91481976211071">
        <ele>434.94999999999999</ele>
        <time>2021-10-31T11:35:12Z</time>
      </trkpt>
      <trkpt lat="45.559396063908935" lon="10.914838956668973">
        <ele>433.42000000000002</ele>
        <time>2021-10-31T11:35:25Z</time>
      </trkpt>
      <trkpt lat="45.559510895982385" lon="10.914865443482995">
        <ele>432.26999999999998</ele>
        <time>2021-10-31T11:35:37Z</time>
      </trkpt>
      <trkpt lat="45.559619441628456" lon="10.914899557828903">
        <ele>431.22000000000003</ele>
        <time>2021-10-31T11:35:48Z</time>
      </trkpt>
      <trkpt lat="45.559721952304244" lon="10.914964685216546">
        <ele>430.23000000000002</ele>
        <time>2021-10-31T11:35:59Z</time>
      </trkpt>
      <trkpt lat="45.559821361675858" lon="10.915067531168461">
        <ele>428.94</ele>
        <time>2021-10-31T11:36:11Z</time>
      </trkpt>
      <trkpt lat="45.559909539297223" lon="10.915170796215534">
        <ele>427.14999999999998</ele>
        <time>2021-10-31T11:36:23Z</time>
      </trkpt>
      <trkpt lat="45.559926722198725" lon="10.915196947753429">
        <ele>426.81</ele>
        <time>2021-10-31T11:36:26Z</time>
      </trkpt>
      <trkpt lat="45.559947257861495" lon="10.915224943310022">
        <ele>426.44</ele>
        <time>2021-10-31T11:36:29Z</time>
      </trkpt>
      <trkpt lat="45.559988748282194" lon="10.915281856432557">
        <ele>425.62</ele>
        <time>2021-10-31T11:36:35Z</time>
      </trkpt>
      <trkpt lat="45.559997046366334" lon="10.915288478136063">
        <ele>425.51999999999998</ele>
        <time>2021-10-31T11:36:36Z</time>
      </trkpt>
      <trkpt lat="45.560005763545632" lon="10.915296524763107">
        <ele>425.42000000000002</ele>
        <time>2021-10-31T11:36:37Z</time>
      </trkpt>
      <trkpt lat="45.560013642534614" lon="10.915307169780135">
        <ele>425.31999999999999</ele>
        <time>2021-10-31T11:36:38Z</time>
      </trkpt>
      <trkpt lat="45.560021018609405" lon="10.915318233892322">
        <ele>425.22000000000003</ele>
        <time>2021-10-31T11:36:39Z</time>
      </trkpt>
      <trkpt lat="45.560028562322259" lon="10.91532938182354">
        <ele>425.12</ele>
        <time>2021-10-31T11:36:40Z</time>
      </trkpt>
      <trkpt lat="45.56003644131124" lon="10.915339775383472">
        <ele>425.01999999999998</ele>
        <time>2021-10-31T11:36:41Z</time>
      </trkpt>
      <trkpt lat="45.560104670003057" lon="10.915420828387141">
        <ele>424.00999999999999</ele>
        <time>2021-10-31T11:36:50Z</time>
      </trkpt>
      <trkpt lat="45.560226459056139" lon="10.915566757321358">
        <ele>422.39999999999998</ele>
        <time>2021-10-31T11:37:05Z</time>
      </trkpt>
      <trkpt lat="45.560290664434433" lon="10.915705561637878">
        <ele>421.39999999999998</ele>
        <time>2021-10-31T11:37:16Z</time>
      </trkpt>
      <trkpt lat="45.560354785993695" lon="10.915902033448219">
        <ele>419.31</ele>
        <time>2021-10-31T11:37:30Z</time>
      </trkpt>
      <trkpt lat="45.560408933088183" lon="10.916082579642534">
        <ele>417.11000000000001</ele>
        <time>2021-10-31T11:37:43Z</time>
      </trkpt>
      <trkpt lat="45.56044002994895" lon="10.916256168857217">
        <ele>415.38999999999999</ele>
        <time>2021-10-31T11:37:55Z</time>
      </trkpt>
      <trkpt lat="45.560461487621069" lon="10.916398577392101">
        <ele>414.06</ele>
        <time>2021-10-31T11:38:05Z</time>
      </trkpt>
      <trkpt lat="45.560500547289848" lon="10.916622374206781">
        <ele>412.05000000000001</ele>
        <time>2021-10-31T11:38:21Z</time>
      </trkpt>
      <trkpt lat="45.560539942234755" lon="10.916834520176053">
        <ele>410.56</ele>
        <time>2021-10-31T11:38:36Z</time>
      </trkpt>
      <trkpt lat="45.560597190633416" lon="10.916968546807766">
        <ele>409.55000000000001</ele>
        <time>2021-10-31T11:38:47Z</time>
      </trkpt>
      <trkpt lat="45.560631975531578" lon="10.91706108301878">
        <ele>408.63</ele>
        <time>2021-10-31T11:38:57Z</time>
      </trkpt>
      <trkpt lat="45.560573469847441" lon="10.917061418294907">
        <ele>407.25999999999999</ele>
        <time>2021-10-31T11:39:05Z</time>
      </trkpt>
      <trkpt lat="45.560515718534589" lon="10.917005259543657">
        <ele>405.94</ele>
        <time>2021-10-31T11:39:15Z</time>
      </trkpt>
      <trkpt lat="45.56045176461339" lon="10.91689202003181">
        <ele>404.17000000000002</ele>
        <time>2021-10-31T11:39:27Z</time>
      </trkpt>
      <trkpt lat="45.560396863147616" lon="10.916780456900597">
        <ele>402.81</ele>
        <time>2021-10-31T11:39:38Z</time>
      </trkpt>
      <trkpt lat="45.560354199260473" lon="10.916690938174725">
        <ele>401.83999999999997</ele>
        <time>2021-10-31T11:39:46Z</time>
      </trkpt>
      <trkpt lat="45.560302818194032" lon="10.916610974818468">
        <ele>400.76999999999998</ele>
        <time>2021-10-31T11:39:54Z</time>
      </trkpt>
      <trkpt lat="45.560271553695202" lon="10.916574262082577">
        <ele>399.81</ele>
        <time>2021-10-31T11:40:04Z</time>
      </trkpt>
      <trkpt lat="45.560240289196372" lon="10.916540399193764">
        <ele>399.56</ele>
        <time>2021-10-31T11:40:13Z</time>
      </trkpt>
      <trkpt lat="45.560158230364323" lon="10.916501088067889">
        <ele>398.75999999999999</ele>
        <time>2021-10-31T11:40:24Z</time>
      </trkpt>
      <trkpt lat="45.560148674994707" lon="10.916498657315969">
        <ele>398.69</ele>
        <time>2021-10-31T11:40:25Z</time>
      </trkpt>
      <trkpt lat="45.560104167088866" lon="10.916494634002447">
        <ele>398.27999999999997</ele>
        <time>2021-10-31T11:40:30Z</time>
      </trkpt>
      <trkpt lat="45.560026550665498" lon="10.916521456092596">
        <ele>397.63</ele>
        <time>2021-10-31T11:40:39Z</time>
      </trkpt>
      <trkpt lat="45.559894032776356" lon="10.916579123586416">
        <ele>396.22000000000003</ele>
        <time>2021-10-31T11:40:53Z</time>
      </trkpt>
      <trkpt lat="45.559776183217764" lon="10.916642658412457">
        <ele>395.38</ele>
        <time>2021-10-31T11:41:06Z</time>
      </trkpt>
      <trkpt lat="45.55964064784348" lon="10.916711557656527">
        <ele>394.24000000000001</ele>
        <time>2021-10-31T11:41:20Z</time>
      </trkpt>
      <trkpt lat="45.559499077498913" lon="10.91676595620811">
        <ele>393.12</ele>
        <time>2021-10-31T11:41:34Z</time>
      </trkpt>
      <trkpt lat="45.559381144121289" lon="10.916803171858191">
        <ele>392.11000000000001</ele>
        <time>2021-10-31T11:41:46Z</time>
      </trkpt>
      <trkpt lat="45.559240579605103" lon="10.91680065728724">
        <ele>390.69</ele>
        <time>2021-10-31T11:42:00Z</time>
      </trkpt>
      <trkpt lat="45.55912465788424" lon="10.916783222928643">
        <ele>389.52999999999997</ele>
        <time>2021-10-31T11:42:12Z</time>
      </trkpt>
      <trkpt lat="45.558995241299272" lon="10.916769728064537">
        <ele>388.04000000000002</ele>
        <time>2021-10-31T11:42:25Z</time>
      </trkpt>
      <trkpt lat="45.558875799179077" lon="10.916724046692252">
        <ele>386.74000000000001</ele>
        <time>2021-10-31T11:42:37Z</time>
      </trkpt>
      <trkpt lat="45.558779826387763" lon="10.91668632812798">
        <ele>385.69</ele>
        <time>2021-10-31T11:42:47Z</time>
      </trkpt>
      <trkpt lat="45.558642027899623" lon="10.916655482724309">
        <ele>384.24000000000001</ele>
        <time>2021-10-31T11:43:01Z</time>
      </trkpt>
      <trkpt lat="45.558533817529678" lon="10.916630420833826">
        <ele>383.44999999999999</ele>
        <time>2021-10-31T11:43:12Z</time>
      </trkpt>
      <trkpt lat="45.558449327945709" lon="10.916618183255196">
        <ele>382.87</ele>
        <time>2021-10-31T11:43:21Z</time>
      </trkpt>
      <trkpt lat="45.558325443416834" lon="10.916599240154028">
        <ele>382.23000000000002</ele>
        <time>2021-10-31T11:43:34Z</time>
      </trkpt>
      <trkpt lat="45.558208683505654" lon="10.916586332023144">
        <ele>381.38999999999999</ele>
        <time>2021-10-31T11:43:46Z</time>
      </trkpt>
      <trkpt lat="45.558070298284292" lon="10.916583482176065">
        <ele>380.5</ele>
        <time>2021-10-31T11:44:00Z</time>
      </trkpt>
      <trkpt lat="45.557944066822529" lon="10.916587673127651">
        <ele>379.64999999999998</ele>
        <time>2021-10-31T11:44:13Z</time>
      </trkpt>
      <trkpt lat="45.557807357981801" lon="10.916598485782743">
        <ele>378.82999999999998</ele>
        <time>2021-10-31T11:44:27Z</time>
      </trkpt>
      <trkpt lat="45.557664865627885" lon="10.916634779423475">
        <ele>377.99000000000001</ele>
        <time>2021-10-31T11:44:42Z</time>
      </trkpt>
      <trkpt lat="45.557553973048925" lon="10.916666379198432">
        <ele>377.25</ele>
        <time>2021-10-31T11:44:53Z</time>
      </trkpt>
      <trkpt lat="45.557418186217546" lon="10.916704935953021">
        <ele>376.26999999999998</ele>
        <time>2021-10-31T11:45:07Z</time>
      </trkpt>
      <trkpt lat="45.557296145707369" lon="10.916714575141668">
        <ele>375.38</ele>
        <time>2021-10-31T11:45:20Z</time>
      </trkpt>
      <trkpt lat="45.557202687487006" lon="10.916690519079566">
        <ele>374.55000000000001</ele>
        <time>2021-10-31T11:45:30Z</time>
      </trkpt>
      <trkpt lat="45.557078467682004" lon="10.916621871292591">
        <ele>373.68000000000001</ele>
        <time>2021-10-31T11:45:44Z</time>
      </trkpt>
      <trkpt lat="45.55698643438518" lon="10.916606029495597">
        <ele>373.16000000000003</ele>
        <time>2021-10-31T11:45:54Z</time>
      </trkpt>
      <trkpt lat="45.556887863203883" lon="10.91659639030695">
        <ele>372.88999999999999</ele>
        <time>2021-10-31T11:46:04Z</time>
      </trkpt>
      <trkpt lat="45.556791387498379" lon="10.916543416678905">
        <ele>372.33999999999997</ele>
        <time>2021-10-31T11:46:15Z</time>
      </trkpt>
      <trkpt lat="45.556677477434278" lon="10.916483737528324">
        <ele>371.93000000000001</ele>
        <time>2021-10-31T11:46:27Z</time>
      </trkpt>
      <trkpt lat="45.556585444137454" lon="10.916382735595107">
        <ele>371.61000000000001</ele>
        <time>2021-10-31T11:46:39Z</time>
      </trkpt>
      <trkpt lat="45.556499194353819" lon="10.916241584345698">
        <ele>371.26999999999998</ele>
        <time>2021-10-31T11:46:52Z</time>
      </trkpt>
      <trkpt lat="45.556407244876027" lon="10.916130356490612">
        <ele>370.77999999999997</ele>
        <time>2021-10-31T11:47:03Z</time>
      </trkpt>
      <trkpt lat="45.55633407086134" lon="10.916043352335691">
        <ele>370.35000000000002</ele>
        <time>2021-10-31T11:47:12Z</time>
      </trkpt>
      <trkpt lat="45.556252347305417" lon="10.915947631001472">
        <ele>369.93000000000001</ele>
        <time>2021-10-31T11:47:22Z</time>
      </trkpt>
      <trkpt lat="45.556149417534471" lon="10.915821986272931">
        <ele>369.32999999999998</ele>
        <time>2021-10-31T11:47:35Z</time>
      </trkpt>
      <trkpt lat="45.556096695363522" lon="10.915744621306658">
        <ele>368.60000000000002</ele>
        <time>2021-10-31T11:47:46Z</time>
      </trkpt>
      <trkpt lat="45.556086385622621" lon="10.915701789781451">
        <ele>368.26999999999998</ele>
        <time>2021-10-31T11:47:55Z</time>
      </trkpt>
      <trkpt lat="45.556081775575876" lon="10.915711177513003">
        <ele>368.13</ele>
        <time>2021-10-31T11:48:08Z</time>
      </trkpt>
      <trkpt lat="45.556088648736477" lon="10.915744453668594">
        <ele>367.76999999999998</ele>
        <time>2021-10-31T11:48:17Z</time>
      </trkpt>
      <trkpt lat="45.556092588230968" lon="10.915744118392467">
        <ele>368.23000000000002</ele>
        <time>2021-10-31T11:48:35Z</time>
      </trkpt>
      <trkpt lat="45.556097449734807" lon="10.91573984362185">
        <ele>368.13</ele>
        <time>2021-10-31T11:48:56Z</time>
      </trkpt>
      <trkpt lat="45.556096276268363" lon="10.915738167241216">
        <ele>368.13</ele>
        <time>2021-10-31T11:49:31Z</time>
      </trkpt>
      <trkpt lat="45.556098120287061" lon="10.915736826136708">
        <ele>368.13</ele>
        <time>2021-10-31T11:49:53Z</time>
      </trkpt>
      <trkpt lat="45.556098455563188" lon="10.915735568851233">
        <ele>368.13</ele>
        <time>2021-10-31T11:50:22Z</time>
      </trkpt>
      <trkpt lat="45.556097533553839" lon="10.915737245231867">
        <ele>368.13</ele>
        <time>2021-10-31T11:50:42Z</time>
      </trkpt>
      <trkpt lat="45.556096527725458" lon="10.915736993774772">
        <ele>368.13</ele>
        <time>2021-10-31T11:51:03Z</time>
      </trkpt>
      <trkpt lat="45.556063670665026" lon="10.915706232190132">
        <ele>368.13</ele>
        <time>2021-10-31T11:51:13Z</time>
      </trkpt>
      <trkpt lat="45.556015390902758" lon="10.915644122287631">
        <ele>368.13</ele>
        <time>2021-10-31T11:51:23Z</time>
      </trkpt>
      <trkpt lat="45.55593584664166" lon="10.915571535006166">
        <ele>367.19999999999999</ele>
        <time>2021-10-31T11:51:34Z</time>
      </trkpt>
      <trkpt lat="45.555852949619293" lon="10.915546640753746">
        <ele>366.73000000000002</ele>
        <time>2021-10-31T11:51:43Z</time>
      </trkpt>
      <trkpt lat="45.555843226611614" lon="10.915543623268604">
        <ele>366.69999999999999</ele>
        <time>2021-10-31T11:51:44Z</time>
      </trkpt>
      <trkpt lat="45.555832581594586" lon="10.915540019050241">
        <ele>366.66000000000003</ele>
        <time>2021-10-31T11:51:45Z</time>
      </trkpt>
      <trkpt lat="45.555748678743839" lon="10.915493499487638">
        <ele>365.67000000000002</ele>
        <time>2021-10-31T11:51:55Z</time>
      </trkpt>
      <trkpt lat="45.55574624799192" lon="10.915478998795152">
        <ele>365.57999999999998</ele>
        <time>2021-10-31T11:51:56Z</time>
      </trkpt>
      <trkpt lat="45.55574482306838" lon="10.915463324636221">
        <ele>365.51999999999998</ele>
        <time>2021-10-31T11:51:57Z</time>
      </trkpt>
      <trkpt lat="45.555744068697095" lon="10.915447818115354">
        <ele>365.48000000000002</ele>
        <time>2021-10-31T11:51:58Z</time>
      </trkpt>
      <trkpt lat="45.555700985714793" lon="10.915402974933386">
        <ele>365.23000000000002</ele>
        <time>2021-10-31T11:52:05Z</time>
      </trkpt>
      <trkpt lat="45.555690424516797" lon="10.915402052924037">
        <ele>365.17000000000002</ele>
        <time>2021-10-31T11:52:06Z</time>
      </trkpt>
      <trkpt lat="45.555550530552864" lon="10.915385540574789">
        <ele>364.5</ele>
        <time>2021-10-31T11:52:19Z</time>
      </trkpt>
      <trkpt lat="45.555422035977244" lon="10.915378835052252">
        <ele>363.69999999999999</ele>
        <time>2021-10-31T11:52:31Z</time>
      </trkpt>
      <trkpt lat="45.55529186502099" lon="10.915374057367444">
        <ele>363.22000000000003</ele>
        <time>2021-10-31T11:52:43Z</time>
      </trkpt>
      <trkpt lat="45.55518826469779" lon="10.915298536419868">
        <ele>362.63999999999999</ele>
        <time>2021-10-31T11:52:54Z</time>
      </trkpt>
      <trkpt lat="45.555089944973588" lon="10.91517792083323">
        <ele>362.43000000000001</ele>
        <time>2021-10-31T11:53:07Z</time>
      </trkpt>
      <trkpt lat="45.555001432076097" lon="10.915083875879645">
        <ele>362.08999999999997</ele>
        <time>2021-10-31T11:53:18Z</time>
      </trkpt>
      <trkpt lat="45.554887941107154" lon="10.915008522570133">
        <ele>361.89999999999998</ele>
        <time>2021-10-31T11:53:30Z</time>
      </trkpt>
      <trkpt lat="45.554764978587627" lon="10.91497415676713">
        <ele>361.38</ele>
        <time>2021-10-31T11:53:42Z</time>
      </trkpt>
      <trkpt lat="45.554649643599987" lon="10.914949346333742">
        <ele>361.30000000000001</ele>
        <time>2021-10-31T11:53:53Z</time>
      </trkpt>
      <trkpt lat="45.554548474028707" lon="10.914920177310705">
        <ele>361.00999999999999</ele>
        <time>2021-10-31T11:54:03Z</time>
      </trkpt>
      <trkpt lat="45.554461050778627" lon="10.91492629610002">
        <ele>360.70999999999998</ele>
        <time>2021-10-31T11:54:12Z</time>
      </trkpt>
      <trkpt lat="45.554430121555924" lon="10.915000475943089">
        <ele>360.22000000000003</ele>
        <time>2021-10-31T11:54:19Z</time>
      </trkpt>
      <trkpt lat="45.554428528994322" lon="10.915014054626226">
        <ele>360.10000000000002</ele>
        <time>2021-10-31T11:54:20Z</time>
      </trkpt>
      <trkpt lat="45.554415788501501" lon="10.915161743760109">
        <ele>358.91000000000003</ele>
        <time>2021-10-31T11:54:30Z</time>
      </trkpt>
      <trkpt lat="45.554396761581302" lon="10.915424264967442">
        <ele>356.30000000000001</ele>
        <time>2021-10-31T11:54:48Z</time>
      </trkpt>
      <trkpt lat="45.554362144321203" lon="10.915644457563758">
        <ele>354.39999999999998</ele>
        <time>2021-10-31T11:55:02Z</time>
      </trkpt>
      <trkpt lat="45.554347895085812" lon="10.915674716234207">
        <ele>354.19999999999999</ele>
        <time>2021-10-31T11:55:04Z</time>
      </trkpt>
      <trkpt lat="45.554337920621037" lon="10.915685361251235">
        <ele>354.11000000000001</ele>
        <time>2021-10-31T11:55:05Z</time>
      </trkpt>
      <trkpt lat="45.554327024146914" lon="10.915692653506994">
        <ele>354.02999999999997</ele>
        <time>2021-10-31T11:55:06Z</time>
      </trkpt>
      <trkpt lat="45.554296262562275" lon="10.915704052895308">
        <ele>353.50999999999999</ele>
        <time>2021-10-31T11:55:10Z</time>
      </trkpt>
      <trkpt lat="45.554266758263111" lon="10.915703885257244">
        <ele>353.23000000000002</ele>
        <time>2021-10-31T11:55:13Z</time>
      </trkpt>
      <trkpt lat="45.5541723780334" lon="10.915711931884289">
        <ele>352.69</ele>
        <time>2021-10-31T11:55:21Z</time>
      </trkpt>
      <trkpt lat="45.554093336686492" lon="10.915687959641218">
        <ele>351.97000000000003</ele>
        <time>2021-10-31T11:55:29Z</time>
      </trkpt>
      <trkpt lat="45.553974229842424" lon="10.915703549981117">
        <ele>351.19</ele>
        <time>2021-10-31T11:55:40Z</time>
      </trkpt>
      <trkpt lat="45.553868031129241" lon="10.915695168077946">
        <ele>350.44999999999999</ele>
        <time>2021-10-31T11:55:50Z</time>
      </trkpt>
      <trkpt lat="45.55378295481205" lon="10.915682595223188">
        <ele>349.87</ele>
        <time>2021-10-31T11:55:58Z</time>
      </trkpt>
      <trkpt lat="45.553679522126913" lon="10.915687037631869">
        <ele>349.20999999999998</ele>
        <time>2021-10-31T11:56:09Z</time>
      </trkpt>
      <trkpt lat="45.553630739450455" lon="10.915654180571437">
        <ele>348.57999999999998</ele>
        <time>2021-10-31T11:56:15Z</time>
      </trkpt>
      <trkpt lat="45.55353719741106" lon="10.915606990456581">
        <ele>347.32999999999998</ele>
        <time>2021-10-31T11:56:25Z</time>
      </trkpt>
      <trkpt lat="45.553396129980683" lon="10.915534989908338">
        <ele>345.58999999999997</ele>
        <time>2021-10-31T11:56:40Z</time>
      </trkpt>
      <trkpt lat="45.553276771679521" lon="10.915459217503667">
        <ele>344.00999999999999</ele>
        <time>2021-10-31T11:56:52Z</time>
      </trkpt>
      <trkpt lat="45.553139140829444" lon="10.915403980761766">
        <ele>342.80000000000001</ele>
        <time>2021-10-31T11:57:06Z</time>
      </trkpt>
      <trkpt lat="45.553127992898226" lon="10.915399538353086">
        <ele>342.60000000000002</ele>
        <time>2021-10-31T11:57:08Z</time>
      </trkpt>
      <trkpt lat="45.553121035918593" lon="10.9154022205621">
        <ele>342</ele>
        <time>2021-10-31T11:57:14Z</time>
      </trkpt>
      <trkpt lat="45.553122041746974" lon="10.915409177541733">
        <ele>341.66000000000003</ele>
        <time>2021-10-31T11:57:25Z</time>
      </trkpt>
      <trkpt lat="45.553125981241465" lon="10.915396688506007">
        <ele>341.45999999999998</ele>
        <time>2021-10-31T11:57:43Z</time>
      </trkpt>
      <trkpt lat="45.553125143051147" lon="10.915396437048912">
        <ele>341.47000000000003</ele>
        <time>2021-10-31T11:58:00Z</time>
      </trkpt>
      <trkpt lat="45.553124723955989" lon="10.915397778153419">
        <ele>341.27999999999997</ele>
        <time>2021-10-31T11:58:14Z</time>
      </trkpt>
      <trkpt lat="45.553118688985705" lon="10.915391072630882">
        <ele>341.56</ele>
        <time>2021-10-31T11:58:29Z</time>
      </trkpt>
      <trkpt lat="45.553102344274521" lon="10.915373638272285">
        <ele>341.56</ele>
        <time>2021-10-31T11:58:31Z</time>
      </trkpt>
      <trkpt lat="45.553021375089884" lon="10.91531815007329">
        <ele>340.95999999999998</ele>
        <time>2021-10-31T11:58:39Z</time>
      </trkpt>
      <trkpt lat="45.55287804454565" lon="10.91528344899416">
        <ele>339.60000000000002</ele>
        <time>2021-10-31T11:58:51Z</time>
      </trkpt>
      <trkpt lat="45.552729349583387" lon="10.915240282192826">
        <ele>338.23000000000002</ele>
        <time>2021-10-31T11:59:04Z</time>
      </trkpt>
      <trkpt lat="45.552585264667869" lon="10.91520382091403">
        <ele>336.75</ele>
        <time>2021-10-31T11:59:16Z</time>
      </trkpt>
      <trkpt lat="45.552446879446507" lon="10.915165096521378">
        <ele>335.76999999999998</ele>
        <time>2021-10-31T11:59:28Z</time>
      </trkpt>
      <trkpt lat="45.552317295223475" lon="10.915125450119376">
        <ele>334.79000000000002</ele>
        <time>2021-10-31T11:59:40Z</time>
      </trkpt>
      <trkpt lat="45.552195087075233" lon="10.915086641907692">
        <ele>333.75999999999999</ele>
        <time>2021-10-31T11:59:52Z</time>
      </trkpt>
      <trkpt lat="45.552047565579414" lon="10.915043139830232">
        <ele>332.75999999999999</ele>
        <time>2021-10-31T12:00:06Z</time>
      </trkpt>
      <trkpt lat="45.551954945549369" lon="10.915017994120717">
        <ele>331.89999999999998</ele>
        <time>2021-10-31T12:00:16Z</time>
      </trkpt>
      <trkpt lat="45.551919657737017" lon="10.915001817047596">
        <ele>331.48000000000002</ele>
        <time>2021-10-31T12:00:23Z</time>
      </trkpt>
      <trkpt lat="45.55191052146256" lon="10.915001984685659">
        <ele>331.32999999999998</ele>
        <time>2021-10-31T12:00:26Z</time>
      </trkpt>
      <trkpt lat="45.551875988021493" lon="10.914994273334742">
        <ele>331.25</ele>
        <time>2021-10-31T12:00:29Z</time>
      </trkpt>
      <trkpt lat="45.551717234775424" lon="10.91494825668633">
        <ele>329.91000000000003</ele>
        <time>2021-10-31T12:00:42Z</time>
      </trkpt>
      <trkpt lat="45.551686640828848" lon="10.914936857298017">
        <ele>329.38999999999999</ele>
        <time>2021-10-31T12:00:45Z</time>
      </trkpt>
      <trkpt lat="45.551677169278264" lon="10.914927637204528">
        <ele>329.27999999999997</ele>
        <time>2021-10-31T12:00:46Z</time>
      </trkpt>
      <trkpt lat="45.551669290289283" lon="10.914912633597851">
        <ele>329.17000000000002</ele>
        <time>2021-10-31T12:00:47Z</time>
      </trkpt>
      <trkpt lat="45.551660237833858" lon="10.914893774315715">
        <ele>329.04000000000002</ele>
        <time>2021-10-31T12:00:48Z</time>
      </trkpt>
      <trkpt lat="45.551648251712322" lon="10.914872149005532">
        <ele>328.91000000000003</ele>
        <time>2021-10-31T12:00:49Z</time>
      </trkpt>
      <trkpt lat="45.551635259762406" lon="10.914853876456618">
        <ele>328.83999999999997</ele>
        <time>2021-10-31T12:00:50Z</time>
      </trkpt>
      <trkpt lat="45.55162369273603" lon="10.914840465411544">
        <ele>328.80000000000001</ele>
        <time>2021-10-31T12:00:51Z</time>
      </trkpt>
      <trkpt lat="45.551614724099636" lon="10.914828646928072">
        <ele>328.76999999999998</ele>
        <time>2021-10-31T12:00:52Z</time>
      </trkpt>
      <trkpt lat="45.551543477922678" lon="10.91468783095479">
        <ele>328.32999999999998</ele>
        <time>2021-10-31T12:01:02Z</time>
      </trkpt>
      <trkpt lat="45.55152059532702" lon="10.914486665278673">
        <ele>328.47000000000003</ele>
        <time>2021-10-31T12:01:12Z</time>
      </trkpt>
      <trkpt lat="45.551474746316671" lon="10.914238560944796">
        <ele>328.39999999999998</ele>
        <time>2021-10-31T12:01:26Z</time>
      </trkpt>
      <trkpt lat="45.5513696372509" lon="10.914224144071341">
        <ele>327.95999999999998</ele>
        <time>2021-10-31T12:01:36Z</time>
      </trkpt>
      <trkpt lat="45.551253631711006" lon="10.914236297830939">
        <ele>327.13999999999999</ele>
        <time>2021-10-31T12:01:48Z</time>
      </trkpt>
      <trkpt lat="45.551111726090312" lon="10.914168069139123">
        <ele>324.73000000000002</ele>
        <time>2021-10-31T12:02:04Z</time>
      </trkpt>
      <trkpt lat="45.551009047776461" lon="10.914120459929109">
        <ele>322.87</ele>
        <time>2021-10-31T12:02:15Z</time>
      </trkpt>
      <trkpt lat="45.550920618698001" lon="10.914089949801564">
        <ele>321.39999999999998</ele>
        <time>2021-10-31T12:02:24Z</time>
      </trkpt>
      <trkpt lat="45.550810396671295" lon="10.914040580391884">
        <ele>319.74000000000001</ele>
        <time>2021-10-31T12:02:35Z</time>
      </trkpt>
      <trkpt lat="45.550712579861283" lon="10.91400034725666">
        <ele>318.5</ele>
        <time>2021-10-31T12:02:46Z</time>
      </trkpt>
      <trkpt lat="45.550667066127062" lon="10.913969837129116">
        <ele>317.60000000000002</ele>
        <time>2021-10-31T12:02:55Z</time>
      </trkpt>
      <trkpt lat="45.550648542121053" lon="10.913971764966846">
        <ele>317.50999999999999</ele>
        <time>2021-10-31T12:02:59Z</time>
      </trkpt>
      <trkpt lat="45.550638567656279" lon="10.913969837129116">
        <ele>317.5</ele>
        <time>2021-10-31T12:03:00Z</time>
      </trkpt>
      <trkpt lat="45.550578385591507" lon="10.913951732218266">
        <ele>317.20999999999998</ele>
        <time>2021-10-31T12:03:06Z</time>
      </trkpt>
      <trkpt lat="45.550459446385503" lon="10.913906218484044">
        <ele>316.05000000000001</ele>
        <time>2021-10-31T12:03:18Z</time>
      </trkpt>
      <trkpt lat="45.550306141376495" lon="10.913850730285048">
        <ele>314.24000000000001</ele>
        <time>2021-10-31T12:03:32Z</time>
      </trkpt>
      <trkpt lat="45.550217544659972" lon="10.913780657574534">
        <ele>313</ele>
        <time>2021-10-31T12:03:41Z</time>
      </trkpt>
      <trkpt lat="45.550127690657973" lon="10.913580162450671">
        <ele>311.98000000000002</ele>
        <time>2021-10-31T12:03:54Z</time>
      </trkpt>
      <trkpt lat="45.550034986808896" lon="10.913378158584237">
        <ele>311.01999999999998</ele>
        <time>2021-10-31T12:04:09Z</time>
      </trkpt>
      <trkpt lat="45.549957370385528" lon="10.91319601982832">
        <ele>310.37</ele>
        <time>2021-10-31T12:04:22Z</time>
      </trkpt>
      <trkpt lat="45.549891740083694" lon="10.913046738132834">
        <ele>309.79000000000002</ele>
        <time>2021-10-31T12:04:33Z</time>
      </trkpt>
      <trkpt lat="45.549853518605232" lon="10.912985382601619">
        <ele>309.57999999999998</ele>
        <time>2021-10-31T12:04:38Z</time>
      </trkpt>
      <trkpt lat="45.549843795597553" lon="10.912975743412971">
        <ele>309.55000000000001</ele>
        <time>2021-10-31T12:04:39Z</time>
      </trkpt>
      <trkpt lat="45.54979233071208" lon="10.912951519712806">
        <ele>309.19</ele>
        <time>2021-10-31T12:04:45Z</time>
      </trkpt>
      <trkpt lat="45.549782440066338" lon="10.912952860817313">
        <ele>309.12</ele>
        <time>2021-10-31T12:04:46Z</time>
      </trkpt>
      <trkpt lat="45.549611197784543" lon="10.912945568561554">
        <ele>306.44999999999999</ele>
        <time>2021-10-31T12:05:02Z</time>
      </trkpt>
      <trkpt lat="45.549501981586218" lon="10.912946155294776">
        <ele>304.43000000000001</ele>
        <time>2021-10-31T12:05:13Z</time>
      </trkpt>
      <trkpt lat="45.549342557787895" lon="10.912951352074742">
        <ele>302.29000000000002</ele>
        <time>2021-10-31T12:05:28Z</time>
      </trkpt>
      <trkpt lat="45.549221355468035" lon="10.912951352074742">
        <ele>300.36000000000001</ele>
        <time>2021-10-31T12:05:40Z</time>
      </trkpt>
      <trkpt lat="45.549096968024969" lon="10.912951938807964">
        <ele>298.81</ele>
        <time>2021-10-31T12:05:52Z</time>
      </trkpt>
      <trkpt lat="45.548968221992254" lon="10.912986975163221">
        <ele>296.75</ele>
        <time>2021-10-31T12:06:05Z</time>
      </trkpt>
      <trkpt lat="45.548899993300438" lon="10.913014467805624">
        <ele>295.31999999999999</ele>
        <time>2021-10-31T12:06:16Z</time>
      </trkpt>
      <trkpt lat="45.54886101745069" lon="10.913056377321482">
        <ele>294.60000000000002</ele>
        <time>2021-10-31T12:06:25Z</time>
      </trkpt>
      <trkpt lat="45.548841068521142" lon="10.913074733689427">
        <ele>294.42000000000002</ele>
        <time>2021-10-31T12:06:28Z</time>
      </trkpt>
      <trkpt lat="45.548819024115801" lon="10.913099376484752">
        <ele>294.10000000000002</ele>
        <time>2021-10-31T12:06:31Z</time>
      </trkpt>
      <trkpt lat="45.548719447106123" lon="10.913254357874393">
        <ele>292.14999999999998</ele>
        <time>2021-10-31T12:06:44Z</time>
      </trkpt>
      <trkpt lat="45.548632694408298" lon="10.913402633741498">
        <ele>290.5</ele>
        <time>2021-10-31T12:06:56Z</time>
      </trkpt>
      <trkpt lat="45.548482993617654" lon="10.913556525483727">
        <ele>288.06</ele>
        <time>2021-10-31T12:07:12Z</time>
      </trkpt>
      <trkpt lat="45.54836698807776" lon="10.91362944804132">
        <ele>286.43000000000001</ele>
        <time>2021-10-31T12:07:23Z</time>
      </trkpt>
      <trkpt lat="45.548320384696126" lon="10.913666328415275">
        <ele>285.85000000000002</ele>
        <time>2021-10-31T12:07:28Z</time>
      </trkpt>
      <trkpt lat="45.548310745507479" lon="10.913674123585224">
        <ele>285.62</ele>
        <time>2021-10-31T12:07:29Z</time>
      </trkpt>
      <trkpt lat="45.548226339742541" lon="10.91374428011477">
        <ele>284.79000000000002</ele>
        <time>2021-10-31T12:07:38Z</time>
      </trkpt>
      <trkpt lat="45.548095582053065" lon="10.913817370310426">
        <ele>283.31999999999999</ele>
        <time>2021-10-31T12:07:50Z</time>
      </trkpt>
      <trkpt lat="45.547965243458748" lon="10.913871685042977">
        <ele>281.88</ele>
        <time>2021-10-31T12:08:02Z</time>
      </trkpt>
      <trkpt lat="45.547846220433712" lon="10.913926754146814">
        <ele>280.48000000000002</ele>
        <time>2021-10-31T12:08:13Z</time>
      </trkpt>
      <trkpt lat="45.547692496329546" lon="10.914034377783537">
        <ele>277.88</ele>
        <time>2021-10-31T12:08:28Z</time>
      </trkpt>
      <trkpt lat="45.547561487182975" lon="10.914044268429279">
        <ele>275.45999999999998</ele>
        <time>2021-10-31T12:08:40Z</time>
      </trkpt>
      <trkpt lat="45.547429723665118" lon="10.914039155468345">
        <ele>273.02999999999997</ele>
        <time>2021-10-31T12:08:52Z</time>
      </trkpt>
      <trkpt lat="45.547310281544924" lon="10.914056841284037">
        <ele>270.70999999999998</ele>
        <time>2021-10-31T12:09:03Z</time>
      </trkpt>
      <trkpt lat="45.547174829989672" lon="10.914086597040296">
        <ele>269.16000000000003</ele>
        <time>2021-10-31T12:09:15Z</time>
      </trkpt>
      <trkpt lat="45.547037869691849" lon="10.914104366675019">
        <ele>267.52999999999997</ele>
        <time>2021-10-31T12:09:27Z</time>
      </trkpt>
      <trkpt lat="45.546878026798368" lon="10.914120962843299">
        <ele>266.04000000000002</ele>
        <time>2021-10-31T12:09:41Z</time>
      </trkpt>
      <trkpt lat="45.54673695936799" lon="10.914100678637624">
        <ele>264.98000000000002</ele>
        <time>2021-10-31T12:09:54Z</time>
      </trkpt>
      <trkpt lat="45.546621372923255" lon="10.914057595655322">
        <ele>264.19999999999999</ele>
        <time>2021-10-31T12:10:05Z</time>
      </trkpt>
      <trkpt lat="45.546503523364663" lon="10.914017027243972">
        <ele>263.31999999999999</ele>
        <time>2021-10-31T12:10:18Z</time>
      </trkpt>
      <trkpt lat="45.546423560008407" lon="10.914028258994222">
        <ele>262.08999999999997</ele>
        <time>2021-10-31T12:10:27Z</time>
      </trkpt>
      <trkpt lat="45.546301687136292" lon="10.914056757465005">
        <ele>260.69</ele>
        <time>2021-10-31T12:10:40Z</time>
      </trkpt>
      <trkpt lat="45.546186435967684" lon="10.914055416360497">
        <ele>259.37</ele>
        <time>2021-10-31T12:10:52Z</time>
      </trkpt>
      <trkpt lat="45.546065485104918" lon="10.914068324491382">
        <ele>258.56</ele>
        <time>2021-10-31T12:11:04Z</time>
      </trkpt>
      <trkpt lat="45.545942774042487" lon="10.914108473807573">
        <ele>257.72000000000003</ele>
        <time>2021-10-31T12:11:16Z</time>
      </trkpt>
      <trkpt lat="45.545826265588403" lon="10.914152394980192">
        <ele>256.52999999999997</ele>
        <time>2021-10-31T12:11:28Z</time>
      </trkpt>
      <trkpt lat="45.545697184279561" lon="10.914197573438287">
        <ele>255.58000000000001</ele>
        <time>2021-10-31T12:11:40Z</time>
      </trkpt>
      <trkpt lat="45.545593416318297" lon="10.914220288395882">
        <ele>255.25</ele>
        <time>2021-10-31T12:11:51Z</time>
      </trkpt>
      <trkpt lat="45.545573551207781" lon="10.914218360558152">
        <ele>255.11000000000001</ele>
        <time>2021-10-31T12:11:53Z</time>
      </trkpt>
      <trkpt lat="45.545563325285912" lon="10.914213331416249">
        <ele>255.09</ele>
        <time>2021-10-31T12:11:54Z</time>
      </trkpt>
      <trkpt lat="45.545495431870222" lon="10.914121130481362">
        <ele>254.66999999999999</ele>
        <time>2021-10-31T12:12:03Z</time>
      </trkpt>
      <trkpt lat="45.545415887609124" lon="10.914050722494721">
        <ele>253.86000000000001</ele>
        <time>2021-10-31T12:12:14Z</time>
      </trkpt>
      <trkpt lat="45.545404069125652" lon="10.914049549028277">
        <ele>253.27000000000001</ele>
        <time>2021-10-31T12:12:26Z</time>
      </trkpt>
      <trkpt lat="45.545387221500278" lon="10.914086429402232">
        <ele>253.27000000000001</ele>
        <time>2021-10-31T12:12:35Z</time>
      </trkpt>
      <trkpt lat="45.545353023335338" lon="10.914156753569841">
        <ele>253</ele>
        <time>2021-10-31T12:12:43Z</time>
      </trkpt>
      <trkpt lat="45.545344054698944" lon="10.914176367223263">
        <ele>252.74000000000001</ele>
        <time>2021-10-31T12:12:54Z</time>
      </trkpt>
      <trkpt lat="45.545350173488259" lon="10.914177121594548">
        <ele>252.86000000000001</ele>
        <time>2021-10-31T12:13:03Z</time>
      </trkpt>
      <trkpt lat="45.5453463178128" lon="10.914176953956485">
        <ele>252.91</ele>
        <time>2021-10-31T12:13:19Z</time>
      </trkpt>
      <trkpt lat="45.545349922031164" lon="10.914174942299724">
        <ele>253</ele>
        <time>2021-10-31T12:13:38Z</time>
      </trkpt>
      <trkpt lat="45.545346150174737" lon="10.914174690842628">
        <ele>253</ele>
        <time>2021-10-31T12:14:11Z</time>
      </trkpt>
      <trkpt lat="45.545344473794103" lon="10.914174523204565">
        <ele>253</ele>
        <time>2021-10-31T12:14:36Z</time>
      </trkpt>
      <trkpt lat="45.545340282842517" lon="10.914171757176518">
        <ele>253</ele>
        <time>2021-10-31T12:14:50Z</time>
      </trkpt>
      <trkpt lat="45.545338941738009" lon="10.914170248433948">
        <ele>253</ele>
        <time>2021-10-31T12:15:04Z</time>
      </trkpt>
      <trkpt lat="45.545333074405789" lon="10.914146360009909">
        <ele>253</ele>
        <time>2021-10-31T12:15:19Z</time>
      </trkpt>
      <trkpt lat="45.545331398025155" lon="10.914143342524767">
        <ele>253</ele>
        <time>2021-10-31T12:15:20Z</time>
      </trkpt>
      <trkpt lat="45.545310778543353" lon="10.914096822962165">
        <ele>253</ele>
        <time>2021-10-31T12:15:26Z</time>
      </trkpt>
      <trkpt lat="45.545249339193106" lon="10.914030857384205">
        <ele>253</ele>
        <time>2021-10-31T12:15:39Z</time>
      </trkpt>
      <trkpt lat="45.545191587880254" lon="10.913950391113758">
        <ele>253</ele>
        <time>2021-10-31T12:15:52Z</time>
      </trkpt>
      <trkpt lat="45.545100560411811" lon="10.91400227509439">
        <ele>241.97999999999999</ele>
        <time>2021-10-31T12:18:55Z</time>
      </trkpt>
      <trkpt lat="45.545106092467904" lon="10.914005627855659">
        <ele>241.94</ele>
        <time>2021-10-31T12:18:56Z</time>
      </trkpt>
      <trkpt lat="45.545041467994452" lon="10.914137726649642">
        <ele>241.90000000000001</ele>
        <time>2021-10-31T12:19:02Z</time>
      </trkpt>
      <trkpt lat="45.54502378217876" lon="10.914216348901391">
        <ele>241.84</ele>
        <time>2021-10-31T12:19:09Z</time>
      </trkpt>
      <trkpt lat="45.54502185434103" lon="10.914257084950805">
        <ele>238.47999999999999</ele>
        <time>2021-10-31T12:19:18Z</time>
      </trkpt>
      <trkpt lat="45.545021435245872" lon="10.914255492389202">
        <ele>237.71000000000001</ele>
        <time>2021-10-31T12:19:20Z</time>
      </trkpt>
      <trkpt lat="45.545019842684269" lon="10.914254235103726">
        <ele>240.78</ele>
        <time>2021-10-31T12:19:23Z</time>
      </trkpt>
      <trkpt lat="45.54502378217876" lon="10.914249289780855">
        <ele>244.33000000000001</ele>
        <time>2021-10-31T12:19:26Z</time>
      </trkpt>
      <trkpt lat="45.545029398053885" lon="10.914244260638952">
        <ele>244.34</ele>
        <time>2021-10-31T12:19:27Z</time>
      </trkpt>
      <trkpt lat="45.545043982565403" lon="10.91422556899488">
        <ele>243.88999999999999</ele>
        <time>2021-10-31T12:19:29Z</time>
      </trkpt>
      <trkpt lat="45.545061416924" lon="10.914185587316751">
        <ele>243.06</ele>
        <time>2021-10-31T12:19:32Z</time>
      </trkpt>
      <trkpt lat="45.545102572068572" lon="10.914187263697386">
        <ele>242.03999999999999</ele>
        <time>2021-10-31T12:19:37Z</time>
      </trkpt>
    </trkseg>
  </trk>

</gpx>